GEFSMA_prec_meanprecacc_024.txt.gz
Total_Precipitation_Accumulation
0.00 0.00 0.00 0.00 0.00 0.00 0.00 0.00 0.00 0.00 0.00 0.00 0.00 0.00 0.00 0.00 0.00 0.00 0.00 0.00 0.00 0.00 0.00 0.00 0.00 0.00 0.00 0.01 0.01 0.03 0.05 0.04 0.03 0.04 0.05 0.05 0.05 0.05 0.07 0.09 0.11 0.13 0.14
0.00 0.00 0.00 0.00 0.00 0.00 0.00 0.00 0.00 0.00 0.00 0.00 0.00 0.00 0.00 0.00 0.00 0.00 0.00 0.00 0.00 0.00 0.00 0.00 0.00 0.00 0.00 0.00 0.01 0.01 0.02 0.02 0.03 0.03 0.04 0.06 0.07 0.07 0.07 0.08 0.10 0.11 0.11
0.00 0.00 0.00 0.00 0.00 0.00 0.00 0.00 0.00 0.00 0.00 0.00 0.00 0.00 0.01 0.01 0.01 0.01 0.01 0.01 0.01 0.00 0.00 0.00 0.00 0.01 0.01 0.01 0.01 0.01 0.01 0.01 0.02 0.04 0.04 0.05 0.07 0.08 0.08 0.09 0.09 0.10 0.11
0.00 0.00 0.00 0.00 0.00 0.00 0.00 0.00 0.00 0.00 0.01 0.01 0.02 0.02 0.02 0.02 0.01 0.01 0.01 0.01 0.01 0.01 0.01 0.00 0.01 0.01 0.01 0.01 0.02 0.02 0.03 0.03 0.03 0.04 0.05 0.07 0.07 0.07 0.07 0.07 0.08 0.09 0.10
0.00 0.00 0.00 0.01 0.00 0.00 0.01 0.02 0.02 0.03 0.03 0.03 0.04 0.03 0.02 0.02 0.01 0.01 0.01 0.01 0.01 0.01 0.01 0.01 0.01 0.02 0.03 0.03 0.03 0.04 0.05 0.07 0.07 0.06 0.06 0.07 0.07 0.06 0.06 0.07 0.08 0.09 0.10
0.01 0.01 0.01 0.02 0.01 0.02 0.04 0.06 0.06 0.06 0.04 0.04 0.02 0.01 0.01 0.00 0.00 0.00 0.00 0.00 0.00 0.00 0.00 0.00 0.01 0.02 0.06 0.09 0.09 0.09 0.11 0.13 0.14 0.12 0.09 0.07 0.06 0.07 0.06 0.06 0.07 0.10 0.11
0.06 0.05 0.04 0.05 0.04 0.05 0.04 0.03 0.03 0.02 0.01 0.01 0.01 0.00 0.00 0.00 0.00 0.00 0.00 0.00 0.00 0.00 0.00 0.01 0.01 0.02 0.05 0.10 0.13 0.15 0.16 0.17 0.18 0.17 0.13 0.10 0.10 0.08 0.06 0.04 0.05 0.07 0.08
0.10 0.09 0.09 0.09 0.08 0.06 0.05 0.04 0.03 0.01 0.00 0.00 0.01 0.01 0.00 0.00 0.00 0.00 0.00 0.00 0.00 0.00 0.00 0.00 0.01 0.01 0.01 0.03 0.05 0.09 0.13 0.12 0.12 0.15 0.16 0.13 0.10 0.09 0.06 0.04 0.03 0.03 0.05
0.12 0.12 0.11 0.09 0.07 0.05 0.03 0.03 0.02 0.01 0.01 0.00 0.00 0.01 0.02 0.01 0.00 0.00 0.00 0.00 0.00 0.00 0.00 0.00 0.00 0.00 0.00 0.00 0.01 0.03 0.07 0.09 0.06 0.07 0.11 0.13 0.13 0.11 0.09 0.06 0.04 0.04 0.05
0.08 0.06 0.05 0.04 0.03 0.02 0.01 0.01 0.01 0.01 0.01 0.01 0.01 0.01 0.02 0.02 0.02 0.01 0.00 0.00 0.00 0.00 0.00 0.00 0.00 0.00 0.00 0.00 0.00 0.01 0.02 0.05 0.07 0.07 0.08 0.10 0.11 0.10 0.08 0.06 0.06 0.07 0.07
0.01 0.01 0.01 0.01 0.01 0.01 0.01 0.01 0.01 0.02 0.02 0.02 0.01 0.01 0.01 0.01 0.02 0.04 0.02 0.00 0.00 0.00 0.00 0.00 0.00 0.00 0.00 0.00 0.01 0.01 0.02 0.05 0.07 0.08 0.08 0.07 0.07 0.08 0.07 0.07 0.07 0.07 0.08
0.00 0.00 0.00 0.00 0.01 0.01 0.01 0.02 0.02 0.02 0.03 0.03 0.03 0.03 0.04 0.05 0.05 0.06 0.04 0.02 0.01 0.00 0.00 0.00 0.00 0.00 0.00 0.01 0.02 0.03 0.04 0.05 0.06 0.05 0.06 0.06 0.07 0.08 0.08 0.09 0.11 0.13 0.14
0.00 0.00 0.00 0.00 0.00 0.01 0.01 0.01 0.02 0.02 0.02 0.03 0.04 0.04 0.05 0.05 0.06 0.08 0.09 0.05 0.03 0.01 0.01 0.01 0.01 0.01 0.02 0.04 0.09 0.08 0.09 0.08 0.06 0.04 0.05 0.09 0.11 0.15 0.14 0.15 0.14 0.14 0.14
0.00 0.00 0.00 0.00 0.01 0.01 0.01 0.02 0.02 0.02 0.03 0.05 0.05 0.06 0.07 0.06 0.07 0.10 0.13 0.15 0.12 0.06 0.04 0.03 0.03 0.05 0.10 0.14 0.17 0.12 0.19 0.12 0.08 0.08 0.10 0.16 0.21 0.28 0.26 0.20 0.16 0.17 0.15
0.00 0.00 0.01 0.01 0.01 0.02 0.02 0.04 0.04 0.05 0.06 0.07 0.07 0.07 0.08 0.08 0.09 0.12 0.15 0.22 0.25 0.18 0.11 0.07 0.07 0.11 0.19 0.21 0.23 0.27 0.31 0.20 0.19 0.25 0.25 0.28 0.32 0.42 0.43 0.35 0.27 0.20 0.17
0.01 0.01 0.01 0.02 0.03 0.03 0.05 0.07 0.07 0.07 0.08 0.08 0.08 0.07 0.07 0.08 0.09 0.10 0.12 0.16 0.22 0.25 0.21 0.10 0.08 0.13 0.18 0.19 0.23 0.29 0.29 0.27 0.33 0.55 0.66 0.58 0.53 0.65 0.71 0.57 0.41 0.31 0.25
0.02 0.03 0.03 0.04 0.05 0.06 0.07 0.09 0.09 0.08 0.07 0.06 0.06 0.07 0.07 0.08 0.10 0.11 0.13 0.17 0.20 0.27 0.29 0.16 0.11 0.15 0.20 0.22 0.26 0.31 0.32 0.34 0.45 0.84 1.11 1.30 1.05 0.95 0.98 0.83 0.63 0.44 0.35
0.04 0.04 0.05 0.06 0.07 0.07 0.08 0.09 0.08 0.06 0.07 0.07 0.08 0.10 0.10 0.10 0.11 0.13 0.17 0.20 0.22 0.28 0.36 0.30 0.22 0.27 0.31 0.33 0.42 0.44 0.42 0.38 0.41 0.83 1.23 1.57 1.53 1.31 1.32 1.14 0.93 0.67 0.49
0.05 0.06 0.08 0.09 0.09 0.08 0.07 0.07 0.07 0.07 0.07 0.08 0.10 0.12 0.12 0.15 0.17 0.19 0.26 0.29 0.30 0.32 0.40 0.40 0.34 0.39 0.46 0.53 0.60 0.55 0.44 0.37 0.33 0.64 1.12 1.45 1.63 1.70 1.81 1.67 1.36 0.99 0.71
0.07 0.09 0.09 0.08 0.07 0.06 0.05 0.05 0.05 0.05 0.07 0.09 0.13 0.17 0.20 0.25 0.27 0.30 0.31 0.29 0.31 0.35 0.39 0.44 0.43 0.50 0.56 0.62 0.58 0.55 0.44 0.35 0.33 0.46 0.89 1.40 1.74 1.84 2.05 2.18 1.89 1.38 0.96
0.08 0.08 0.07 0.06 0.05 0.04 0.03 0.03 0.03 0.05 0.08 0.11 0.14 0.16 0.21 0.28 0.31 0.28 0.25 0.24 0.29 0.37 0.39 0.46 0.50 0.50 0.51 0.55 0.50 0.39 0.32 0.29 0.28 0.35 0.53 1.00 1.67 1.97 1.99 2.10 2.06 1.60 1.17
0.07 0.06 0.05 0.04 0.04 0.03 0.03 0.05 0.05 0.06 0.11 0.15 0.17 0.16 0.15 0.17 0.17 0.17 0.22 0.24 0.28 0.40 0.56 0.63 0.53 0.44 0.36 0.32 0.29 0.26 0.27 0.25 0.24 0.21 0.26 0.61 1.22 1.81 1.99 2.01 1.96 1.51 1.12
0.06 0.06 0.05 0.03 0.03 0.03 0.03 0.04 0.05 0.07 0.12 0.17 0.18 0.15 0.10 0.07 0.08 0.09 0.15 0.21 0.29 0.41 0.51 0.65 0.60 0.37 0.33 0.25 0.23 0.26 0.28 0.30 0.27 0.16 0.20 0.46 0.89 1.40 1.68 1.80 1.67 1.25 0.95
0.06 0.05 0.04 0.02 0.03 0.03 0.02 0.02 0.03 0.05 0.09 0.13 0.14 0.12 0.09 0.06 0.08 0.16 0.18 0.19 0.24 0.31 0.38 0.43 0.58 0.44 0.31 0.29 0.27 0.25 0.26 0.29 0.25 0.14 0.15 0.36 0.69 1.06 1.22 1.27 1.26 1.02 0.83
0.06 0.04 0.02 0.02 0.02 0.02 0.01 0.01 0.02 0.03 0.05 0.08 0.09 0.08 0.06 0.05 0.13 0.26 0.30 0.33 0.38 0.44 0.48 0.61 0.75 0.74 0.62 0.54 0.42 0.33 0.28 0.21 0.16 0.13 0.16 0.28 0.49 0.71 0.83 0.86 0.87 0.78 0.67
0.05 0.03 0.01 0.01 0.02 0.01 0.00 0.00 0.01 0.02 0.03 0.03 0.04 0.05 0.06 0.09 0.18 0.32 0.42 0.45 0.48 0.57 0.49 0.54 0.73 0.83 0.72 0.72 0.72 0.52 0.33 0.17 0.12 0.13 0.16 0.20 0.31 0.40 0.55 0.62 0.57 0.52 0.49

GEFSMA_prec_meanprecacc_030.txt.gz
Total_Precipitation_Accumulation
0.00 0.00 0.00 0.00 0.00 0.00 0.00 0.00 0.00 0.00 0.00 0.00 0.00 0.00 0.00 0.00 0.00 0.00 0.00 0.00 0.00 0.00 0.00 0.00 0.00 0.01 0.01 0.02 0.02 0.04 0.05 0.05 0.04 0.04 0.05 0.05 0.05 0.05 0.07 0.09 0.11 0.13 0.14
0.00 0.00 0.00 0.00 0.00 0.00 0.00 0.00 0.00 0.00 0.00 0.00 0.00 0.00 0.00 0.00 0.00 0.00 0.00 0.00 0.00 0.00 0.00 0.00 0.00 0.01 0.01 0.02 0.02 0.02 0.02 0.02 0.03 0.04 0.06 0.06 0.07 0.07 0.07 0.09 0.10 0.11 0.11
0.00 0.00 0.00 0.00 0.00 0.00 0.00 0.00 0.00 0.00 0.00 0.00 0.00 0.01 0.01 0.02 0.02 0.02 0.02 0.02 0.02 0.02 0.01 0.01 0.01 0.02 0.02 0.02 0.02 0.02 0.03 0.03 0.04 0.06 0.07 0.07 0.08 0.09 0.08 0.09 0.10 0.11 0.11
0.00 0.00 0.00 0.00 0.01 0.00 0.01 0.01 0.01 0.01 0.02 0.03 0.03 0.03 0.04 0.05 0.05 0.04 0.04 0.04 0.04 0.03 0.02 0.01 0.01 0.02 0.02 0.02 0.02 0.04 0.05 0.06 0.07 0.08 0.08 0.10 0.09 0.08 0.08 0.08 0.08 0.09 0.11
0.00 0.00 0.00 0.01 0.00 0.01 0.02 0.03 0.04 0.05 0.05 0.05 0.06 0.06 0.05 0.04 0.04 0.05 0.05 0.04 0.03 0.03 0.02 0.01 0.02 0.03 0.03 0.03 0.04 0.05 0.07 0.10 0.11 0.10 0.09 0.11 0.10 0.09 0.09 0.08 0.09 0.10 0.10
0.01 0.02 0.02 0.03 0.03 0.03 0.05 0.07 0.06 0.06 0.04 0.04 0.02 0.01 0.01 0.01 0.02 0.02 0.02 0.01 0.01 0.01 0.01 0.01 0.01 0.02 0.06 0.10 0.10 0.09 0.11 0.15 0.17 0.16 0.14 0.12 0.13 0.14 0.11 0.09 0.10 0.11 0.12
0.07 0.06 0.05 0.06 0.05 0.05 0.05 0.04 0.04 0.03 0.02 0.01 0.01 0.00 0.00 0.00 0.00 0.00 0.00 0.00 0.00 0.00 0.00 0.01 0.01 0.02 0.05 0.10 0.13 0.15 0.16 0.18 0.20 0.21 0.19 0.18 0.19 0.18 0.16 0.12 0.11 0.10 0.11
0.10 0.09 0.10 0.09 0.08 0.06 0.05 0.04 0.03 0.01 0.01 0.01 0.01 0.01 0.00 0.00 0.00 0.00 0.00 0.00 0.00 0.00 0.00 0.00 0.01 0.01 0.01 0.03 0.05 0.09 0.13 0.12 0.12 0.17 0.20 0.20 0.20 0.20 0.19 0.16 0.14 0.12 0.11
0.12 0.12 0.11 0.09 0.07 0.05 0.03 0.03 0.02 0.02 0.01 0.01 0.01 0.01 0.02 0.01 0.00 0.00 0.00 0.00 0.00 0.00 0.00 0.00 0.00 0.00 0.00 0.00 0.01 0.03 0.07 0.09 0.07 0.08 0.13 0.17 0.19 0.19 0.19 0.18 0.15 0.13 0.13
0.08 0.06 0.05 0.04 0.03 0.02 0.01 0.01 0.01 0.01 0.02 0.01 0.01 0.01 0.02 0.03 0.03 0.02 0.00 0.00 0.00 0.00 0.00 0.00 0.00 0.00 0.00 0.00 0.01 0.01 0.03 0.06 0.07 0.07 0.09 0.12 0.14 0.14 0.15 0.15 0.15 0.16 0.15
0.01 0.01 0.01 0.01 0.01 0.01 0.01 0.01 0.01 0.02 0.02 0.02 0.01 0.01 0.01 0.01 0.03 0.05 0.02 0.01 0.00 0.00 0.00 0.00 0.00 0.00 0.00 0.00 0.01 0.02 0.03 0.05 0.08 0.09 0.08 0.08 0.08 0.10 0.10 0.13 0.15 0.18 0.19
0.00 0.00 0.00 0.00 0.01 0.01 0.01 0.02 0.02 0.02 0.03 0.03 0.03 0.03 0.04 0.05 0.05 0.07 0.05 0.02 0.01 0.00 0.00 0.00 0.00 0.00 0.00 0.01 0.02 0.03 0.06 0.07 0.07 0.07 0.06 0.06 0.07 0.09 0.10 0.11 0.16 0.21 0.25
0.00 0.00 0.00 0.00 0.00 0.01 0.01 0.01 0.02 0.02 0.02 0.03 0.04 0.04 0.05 0.05 0.06 0.08 0.09 0.06 0.04 0.01 0.01 0.01 0.01 0.01 0.02 0.04 0.09 0.09 0.10 0.09 0.07 0.05 0.06 0.09 0.12 0.15 0.15 0.16 0.16 0.19 0.20
0.00 0.00 0.00 0.00 0.01 0.01 0.01 0.02 0.02 0.02 0.03 0.05 0.05 0.06 0.07 0.06 0.07 0.10 0.13 0.16 0.13 0.07 0.04 0.03 0.03 0.05 0.10 0.14 0.17 0.12 0.20 0.12 0.09 0.09 0.11 0.17 0.21 0.28 0.27 0.21 0.17 0.19 0.18
0.00 0.00 0.01 0.01 0.01 0.02 0.02 0.04 0.04 0.05 0.06 0.07 0.07 0.07 0.08 0.08 0.09 0.12 0.16 0.23 0.27 0.20 0.12 0.07 0.08 0.11 0.19 0.21 0.23 0.27 0.31 0.21 0.20 0.26 0.26 0.29 0.33 0.43 0.44 0.36 0.28 0.21 0.18
0.01 0.01 0.01 0.02 0.03 0.03 0.05 0.07 0.07 0.07 0.08 0.08 0.08 0.07 0.07 0.08 0.09 0.10 0.12 0.16 0.23 0.28 0.24 0.11 0.08 0.13 0.18 0.19 0.23 0.29 0.29 0.28 0.34 0.57 0.68 0.60 0.54 0.66 0.72 0.58 0.42 0.31 0.26
0.02 0.03 0.03 0.04 0.05 0.06 0.07 0.09 0.09 0.08 0.07 0.06 0.06 0.07 0.07 0.08 0.10 0.11 0.13 0.17 0.21 0.29 0.32 0.18 0.12 0.15 0.20 0.22 0.27 0.31 0.33 0.35 0.46 0.88 1.15 1.34 1.08 0.96 0.99 0.84 0.64 0.45 0.35
0.04 0.04 0.05 0.06 0.07 0.07 0.08 0.09 0.08 0.06 0.07 0.07 0.08 0.10 0.10 0.10 0.11 0.13 0.17 0.20 0.23 0.30 0.40 0.33 0.24 0.28 0.31 0.33 0.42 0.44 0.42 0.38 0.42 0.87 1.26 1.60 1.56 1.33 1.33 1.15 0.93 0.67 0.50
0.05 0.06 0.08 0.09 0.09 0.08 0.07 0.07 0.07 0.07 0.07 0.08 0.10 0.12 0.12 0.15 0.17 0.20 0.26 0.30 0.31 0.34 0.43 0.43 0.35 0.39 0.46 0.53 0.61 0.56 0.46 0.38 0.34 0.67 1.15 1.47 1.64 1.71 1.81 1.68 1.36 1.00 0.71
0.07 0.09 0.09 0.08 0.07 0.06 0.05 0.05 0.05 0.05 0.07 0.09 0.13 0.17 0.20 0.25 0.28 0.31 0.32 0.31 0.33 0.36 0.40 0.45 0.44 0.50 0.57 0.62 0.59 0.57 0.47 0.37 0.35 0.48 0.90 1.41 1.75 1.85 2.05 2.19 1.91 1.39 0.97
0.08 0.08 0.07 0.06 0.05 0.04 0.03 0.03 0.03 0.05 0.08 0.11 0.14 0.16 0.21 0.28 0.33 0.30 0.27 0.26 0.31 0.39 0.41 0.48 0.52 0.52 0.52 0.56 0.53 0.42 0.35 0.31 0.30 0.36 0.54 1.01 1.68 1.99 2.03 2.15 2.12 1.65 1.20
0.07 0.06 0.05 0.04 0.04 0.03 0.03 0.05 0.05 0.06 0.11 0.15 0.17 0.16 0.15 0.17 0.17 0.17 0.23 0.25 0.30 0.42 0.60 0.68 0.58 0.47 0.38 0.35 0.33 0.30 0.31 0.28 0.26 0.22 0.27 0.62 1.23 1.86 2.09 2.15 2.14 1.65 1.19
0.06 0.06 0.05 0.03 0.03 0.03 0.03 0.04 0.05 0.07 0.12 0.17 0.18 0.15 0.10 0.08 0.08 0.10 0.15 0.21 0.30 0.44 0.58 0.74 0.68 0.42 0.37 0.30 0.28 0.29 0.31 0.32 0.29 0.18 0.21 0.47 0.93 1.55 1.88 2.04 1.95 1.44 1.06
0.06 0.05 0.04 0.02 0.03 0.03 0.02 0.02 0.03 0.05 0.09 0.13 0.14 0.12 0.10 0.06 0.09 0.16 0.18 0.20 0.26 0.36 0.45 0.51 0.67 0.50 0.37 0.34 0.32 0.29 0.30 0.32 0.28 0.15 0.17 0.39 0.80 1.27 1.45 1.51 1.54 1.24 0.97
0.06 0.04 0.02 0.02 0.02 0.02 0.01 0.01 0.02 0.03 0.05 0.08 0.09 0.08 0.06 0.05 0.13 0.27 0.32 0.36 0.43 0.54 0.61 0.73 0.86 0.83 0.70 0.60 0.47 0.37 0.33 0.25 0.19 0.15 0.17 0.33 0.60 0.85 1.02 1.10 1.11 1.04 0.88
0.05 0.03 0.02 0.02 0.02 0.01 0.00 0.00 0.01 0.02 0.03 0.04 0.04 0.05 0.07 0.10 0.19 0.33 0.45 0.51 0.58 0.72 0.66 0.69 0.84 0.90 0.76 0.75 0.77 0.58 0.38 0.20 0.14 0.14 0.17 0.26 0.40 0.50 0.73 0.87 0.81 0.71 0.68

GEFSMA_prec_meanprecacc_036.txt.gz
Total_Precipitation_Accumulation
0.01 0.01 0.01 0.00 0.00 0.00 0.00 0.00 0.00 0.00 0.00 0.00 0.00 0.00 0.00 0.00 0.00 0.00 0.00 0.00 0.00 0.00 0.00 0.00 0.00 0.01 0.01 0.02 0.02 0.04 0.05 0.05 0.04 0.05 0.06 0.05 0.05 0.05 0.07 0.09 0.11 0.13 0.14
0.02 0.01 0.01 0.01 0.01 0.00 0.00 0.00 0.00 0.00 0.00 0.00 0.00 0.00 0.00 0.00 0.00 0.00 0.00 0.00 0.00 0.00 0.00 0.00 0.01 0.01 0.02 0.02 0.02 0.02 0.03 0.04 0.05 0.06 0.07 0.07 0.08 0.08 0.08 0.09 0.11 0.11 0.11
0.02 0.02 0.01 0.01 0.01 0.00 0.00 0.00 0.00 0.00 0.00 0.00 0.00 0.01 0.01 0.02 0.02 0.02 0.02 0.02 0.03 0.02 0.02 0.02 0.02 0.02 0.02 0.02 0.03 0.03 0.04 0.05 0.06 0.08 0.09 0.10 0.10 0.10 0.10 0.10 0.10 0.11 0.11
0.00 0.00 0.01 0.01 0.01 0.01 0.01 0.01 0.02 0.02 0.02 0.03 0.03 0.04 0.05 0.05 0.06 0.05 0.06 0.05 0.05 0.05 0.04 0.03 0.03 0.03 0.03 0.02 0.03 0.04 0.06 0.08 0.09 0.09 0.11 0.12 0.12 0.10 0.10 0.09 0.09 0.09 0.11
0.00 0.00 0.00 0.01 0.01 0.01 0.02 0.03 0.04 0.05 0.05 0.06 0.07 0.06 0.05 0.05 0.05 0.06 0.05 0.05 0.04 0.04 0.03 0.03 0.03 0.04 0.04 0.04 0.05 0.05 0.07 0.11 0.13 0.12 0.12 0.13 0.13 0.12 0.11 0.11 0.11 0.11 0.11
0.01 0.02 0.02 0.03 0.03 0.03 0.05 0.07 0.07 0.06 0.04 0.04 0.02 0.02 0.02 0.02 0.02 0.02 0.02 0.02 0.02 0.02 0.01 0.01 0.01 0.02 0.07 0.10 0.10 0.09 0.12 0.15 0.18 0.17 0.15 0.15 0.16 0.18 0.15 0.12 0.13 0.14 0.13
0.07 0.06 0.05 0.06 0.05 0.05 0.05 0.04 0.04 0.03 0.02 0.01 0.01 0.01 0.01 0.01 0.01 0.01 0.01 0.01 0.00 0.00 0.01 0.01 0.01 0.02 0.05 0.10 0.13 0.15 0.17 0.18 0.21 0.22 0.21 0.21 0.23 0.23 0.21 0.17 0.16 0.15 0.14
0.10 0.09 0.10 0.09 0.08 0.06 0.05 0.04 0.03 0.01 0.01 0.01 0.01 0.01 0.00 0.00 0.00 0.00 0.00 0.00 0.00 0.00 0.00 0.00 0.01 0.01 0.01 0.03 0.05 0.10 0.13 0.12 0.13 0.17 0.21 0.22 0.23 0.25 0.25 0.23 0.21 0.19 0.17
0.12 0.12 0.11 0.09 0.07 0.05 0.03 0.03 0.02 0.02 0.01 0.01 0.01 0.01 0.02 0.01 0.00 0.00 0.00 0.00 0.00 0.00 0.00 0.00 0.00 0.00 0.00 0.00 0.01 0.03 0.07 0.10 0.07 0.09 0.14 0.19 0.21 0.23 0.24 0.23 0.22 0.21 0.21
0.08 0.06 0.05 0.04 0.03 0.02 0.01 0.01 0.01 0.01 0.02 0.01 0.01 0.01 0.02 0.03 0.04 0.02 0.00 0.00 0.00 0.00 0.00 0.00 0.00 0.00 0.00 0.00 0.01 0.01 0.03 0.06 0.07 0.08 0.10 0.14 0.16 0.18 0.19 0.20 0.21 0.23 0.23
0.01 0.01 0.01 0.01 0.01 0.01 0.01 0.01 0.01 0.02 0.02 0.02 0.01 0.01 0.01 0.02 0.03 0.06 0.03 0.01 0.00 0.00 0.00 0.00 0.00 0.00 0.00 0.00 0.01 0.02 0.03 0.06 0.08 0.10 0.10 0.10 0.11 0.13 0.14 0.17 0.20 0.25 0.28
0.00 0.00 0.00 0.00 0.01 0.01 0.02 0.02 0.02 0.02 0.03 0.03 0.03 0.03 0.04 0.05 0.05 0.07 0.06 0.02 0.01 0.00 0.00 0.00 0.00 0.00 0.00 0.01 0.02 0.04 0.06 0.09 0.09 0.08 0.08 0.09 0.10 0.12 0.13 0.15 0.21 0.27 0.34
0.00 0.00 0.00 0.00 0.01 0.01 0.01 0.01 0.02 0.02 0.03 0.04 0.04 0.05 0.05 0.06 0.06 0.08 0.09 0.06 0.04 0.01 0.01 0.01 0.01 0.01 0.02 0.04 0.10 0.09 0.11 0.10 0.08 0.06 0.07 0.10 0.13 0.17 0.17 0.19 0.19 0.23 0.26
0.00 0.00 0.00 0.01 0.01 0.01 0.01 0.02 0.02 0.02 0.04 0.05 0.05 0.06 0.07 0.06 0.07 0.10 0.14 0.16 0.14 0.07 0.05 0.03 0.03 0.05 0.10 0.15 0.18 0.13 0.21 0.13 0.09 0.10 0.12 0.18 0.22 0.30 0.29 0.23 0.18 0.21 0.21
0.00 0.00 0.01 0.01 0.01 0.02 0.03 0.04 0.05 0.05 0.07 0.07 0.07 0.07 0.08 0.08 0.10 0.12 0.16 0.23 0.28 0.21 0.13 0.07 0.08 0.11 0.20 0.23 0.25 0.29 0.35 0.24 0.21 0.27 0.27 0.30 0.34 0.44 0.45 0.37 0.29 0.22 0.19
0.01 0.01 0.02 0.02 0.03 0.04 0.05 0.07 0.07 0.07 0.08 0.08 0.08 0.08 0.08 0.08 0.09 0.10 0.12 0.16 0.24 0.30 0.25 0.12 0.09 0.14 0.20 0.20 0.25 0.32 0.33 0.30 0.35 0.58 0.70 0.61 0.55 0.67 0.73 0.59 0.44 0.33 0.27
0.02 0.03 0.03 0.04 0.05 0.06 0.07 0.09 0.09 0.08 0.07 0.07 0.06 0.07 0.07 0.09 0.10 0.11 0.14 0.18 0.22 0.31 0.35 0.20 0.13 0.17 0.22 0.25 0.29 0.34 0.35 0.38 0.50 0.90 1.16 1.35 1.09 0.97 1.01 0.85 0.65 0.47 0.37
0.04 0.05 0.05 0.06 0.07 0.07 0.09 0.09 0.08 0.07 0.07 0.07 0.08 0.10 0.10 0.11 0.12 0.13 0.17 0.21 0.25 0.33 0.44 0.37 0.27 0.30 0.33 0.36 0.45 0.47 0.45 0.40 0.46 0.89 1.28 1.62 1.57 1.35 1.34 1.17 0.95 0.68 0.51
0.06 0.07 0.08 0.09 0.09 0.08 0.07 0.08 0.08 0.07 0.07 0.09 0.11 0.12 0.13 0.16 0.17 0.20 0.27 0.31 0.33 0.37 0.47 0.48 0.39 0.42 0.48 0.55 0.64 0.59 0.49 0.42 0.37 0.68 1.16 1.48 1.66 1.72 1.83 1.68 1.37 1.00 0.71
0.08 0.09 0.09 0.09 0.08 0.07 0.06 0.06 0.06 0.06 0.07 0.10 0.14 0.17 0.20 0.25 0.28 0.31 0.34 0.33 0.36 0.41 0.45 0.50 0.48 0.53 0.59 0.64 0.63 0.62 0.51 0.42 0.40 0.50 0.93 1.42 1.76 1.85 2.06 2.20 1.91 1.40 0.97
0.08 0.08 0.07 0.06 0.06 0.05 0.04 0.03 0.03 0.05 0.09 0.12 0.14 0.16 0.21 0.28 0.33 0.31 0.29 0.29 0.35 0.44 0.46 0.53 0.56 0.55 0.55 0.59 0.58 0.49 0.41 0.37 0.34 0.39 0.56 1.03 1.69 2.00 2.04 2.16 2.13 1.66 1.20
0.08 0.07 0.06 0.05 0.04 0.03 0.04 0.05 0.05 0.06 0.11 0.15 0.17 0.16 0.15 0.17 0.17 0.18 0.24 0.27 0.33 0.47 0.65 0.74 0.64 0.52 0.41 0.39 0.39 0.38 0.38 0.34 0.30 0.24 0.29 0.63 1.24 1.87 2.10 2.17 2.17 1.69 1.22
0.07 0.06 0.05 0.04 0.04 0.03 0.03 0.04 0.05 0.07 0.12 0.17 0.19 0.16 0.11 0.08 0.09 0.11 0.16 0.23 0.31 0.46 0.64 0.83 0.78 0.50 0.42 0.36 0.36 0.38 0.38 0.38 0.34 0.21 0.22 0.48 0.94 1.57 1.92 2.08 2.01 1.49 1.09
0.06 0.06 0.04 0.03 0.03 0.03 0.02 0.02 0.03 0.05 0.10 0.13 0.15 0.13 0.11 0.07 0.10 0.18 0.20 0.21 0.28 0.40 0.53 0.61 0.78 0.60 0.45 0.42 0.40 0.37 0.38 0.38 0.31 0.17 0.18 0.40 0.82 1.32 1.50 1.57 1.63 1.32 1.02
0.06 0.04 0.03 0.02 0.02 0.02 0.01 0.01 0.02 0.03 0.05 0.08 0.09 0.09 0.07 0.07 0.15 0.29 0.34 0.39 0.47 0.60 0.71 0.86 0.99 0.94 0.80 0.67 0.53 0.43 0.37 0.28 0.23 0.17 0.19 0.35 0.65 0.92 1.10 1.18 1.20 1.16 0.98
0.05 0.03 0.02 0.02 0.02 0.02 0.01 0.00 0.01 0.02 0.03 0.04 0.05 0.05 0.07 0.11 0.20 0.36 0.49 0.56 0.64 0.79 0.76 0.82 0.97 1.00 0.83 0.80 0.80 0.62 0.41 0.24 0.16 0.16 0.19 0.29 0.45 0.56 0.83 0.99 0.94 0.86 0.82

GEFSMA_prec_meanprecacc_042.txt.gz
Total_Precipitation_Accumulation
0.02 0.01 0.01 0.01 0.00 0.00 0.00 0.00 0.00 0.00 0.00 0.00 0.00 0.00 0.00 0.00 0.00 0.00 0.00 0.00 0.00 0.00 0.00 0.00 0.00 0.01 0.01 0.02 0.03 0.04 0.06 0.05 0.04 0.05 0.06 0.06 0.06 0.06 0.08 0.10 0.12 0.14 0.15
0.03 0.02 0.03 0.02 0.01 0.00 0.00 0.00 0.00 0.00 0.00 0.00 0.00 0.00 0.00 0.00 0.00 0.00 0.00 0.01 0.01 0.01 0.00 0.00 0.01 0.02 0.02 0.02 0.03 0.03 0.03 0.04 0.05 0.06 0.08 0.08 0.09 0.09 0.09 0.10 0.12 0.12 0.12
0.04 0.04 0.04 0.03 0.01 0.01 0.01 0.01 0.01 0.00 0.01 0.01 0.01 0.01 0.01 0.02 0.02 0.02 0.02 0.03 0.04 0.04 0.03 0.02 0.02 0.02 0.02 0.02 0.03 0.03 0.04 0.05 0.06 0.08 0.09 0.10 0.11 0.11 0.11 0.12 0.12 0.12 0.12
0.01 0.02 0.03 0.03 0.02 0.01 0.01 0.02 0.03 0.03 0.03 0.04 0.04 0.05 0.05 0.07 0.06 0.06 0.06 0.06 0.06 0.07 0.06 0.05 0.04 0.04 0.03 0.03 0.03 0.05 0.07 0.08 0.09 0.10 0.11 0.13 0.14 0.12 0.11 0.11 0.11 0.12 0.13
0.00 0.01 0.02 0.03 0.02 0.02 0.03 0.04 0.06 0.07 0.07 0.07 0.07 0.07 0.06 0.06 0.06 0.06 0.06 0.06 0.05 0.05 0.05 0.05 0.05 0.05 0.05 0.05 0.05 0.06 0.08 0.11 0.14 0.13 0.12 0.14 0.14 0.14 0.13 0.13 0.13 0.13 0.13
0.02 0.03 0.03 0.04 0.03 0.04 0.06 0.07 0.07 0.07 0.05 0.05 0.02 0.02 0.02 0.02 0.02 0.03 0.03 0.02 0.02 0.02 0.02 0.02 0.01 0.03 0.07 0.11 0.11 0.10 0.12 0.16 0.19 0.18 0.16 0.16 0.18 0.19 0.16 0.14 0.15 0.16 0.16
0.07 0.07 0.06 0.06 0.05 0.05 0.05 0.04 0.04 0.03 0.02 0.01 0.01 0.01 0.01 0.01 0.01 0.01 0.01 0.01 0.00 0.00 0.01 0.01 0.01 0.02 0.05 0.11 0.14 0.15 0.17 0.18 0.21 0.22 0.22 0.22 0.25 0.25 0.23 0.19 0.18 0.17 0.17
0.11 0.09 0.10 0.09 0.08 0.06 0.05 0.04 0.03 0.01 0.01 0.01 0.01 0.01 0.00 0.00 0.00 0.00 0.00 0.00 0.00 0.00 0.00 0.00 0.01 0.01 0.01 0.03 0.05 0.10 0.13 0.12 0.13 0.18 0.21 0.22 0.24 0.26 0.26 0.25 0.23 0.22 0.21
0.12 0.12 0.11 0.09 0.07 0.05 0.04 0.03 0.02 0.02 0.01 0.01 0.01 0.02 0.02 0.01 0.00 0.00 0.00 0.00 0.00 0.00 0.00 0.00 0.00 0.00 0.00 0.00 0.01 0.03 0.07 0.10 0.07 0.09 0.14 0.19 0.22 0.24 0.25 0.25 0.24 0.24 0.25
0.08 0.06 0.05 0.04 0.03 0.02 0.01 0.01 0.01 0.01 0.02 0.01 0.01 0.02 0.02 0.03 0.04 0.02 0.01 0.00 0.00 0.00 0.00 0.00 0.00 0.00 0.00 0.00 0.01 0.01 0.03 0.06 0.07 0.08 0.10 0.14 0.17 0.19 0.20 0.22 0.24 0.26 0.27
0.01 0.01 0.01 0.01 0.01 0.01 0.01 0.01 0.02 0.02 0.02 0.02 0.02 0.02 0.02 0.02 0.04 0.06 0.03 0.01 0.00 0.00 0.00 0.00 0.00 0.00 0.00 0.00 0.01 0.02 0.03 0.06 0.08 0.10 0.10 0.10 0.12 0.14 0.16 0.19 0.23 0.28 0.32
0.00 0.00 0.00 0.01 0.01 0.01 0.02 0.03 0.03 0.03 0.03 0.04 0.03 0.03 0.04 0.05 0.05 0.07 0.06 0.02 0.01 0.00 0.00 0.00 0.00 0.00 0.00 0.01 0.02 0.04 0.06 0.09 0.09 0.08 0.08 0.09 0.10 0.13 0.15 0.18 0.24 0.31 0.39
0.00 0.00 0.00 0.00 0.01 0.01 0.01 0.02 0.02 0.03 0.03 0.04 0.05 0.05 0.05 0.06 0.06 0.08 0.09 0.06 0.04 0.01 0.01 0.01 0.01 0.01 0.02 0.04 0.10 0.09 0.11 0.10 0.08 0.06 0.07 0.10 0.13 0.17 0.18 0.20 0.21 0.26 0.30
0.00 0.00 0.01 0.01 0.01 0.01 0.01 0.02 0.03 0.03 0.05 0.06 0.05 0.07 0.07 0.06 0.07 0.10 0.14 0.16 0.14 0.07 0.05 0.03 0.03 0.05 0.10 0.15 0.19 0.13 0.21 0.14 0.10 0.11 0.12 0.18 0.22 0.30 0.29 0.23 0.19 0.22 0.23
0.00 0.01 0.01 0.01 0.02 0.02 0.03 0.05 0.06 0.06 0.08 0.08 0.08 0.08 0.09 0.09 0.10 0.12 0.16 0.24 0.29 0.21 0.13 0.07 0.08 0.11 0.20 0.23 0.25 0.30 0.37 0.26 0.23 0.28 0.28 0.30 0.34 0.44 0.45 0.37 0.29 0.23 0.20
0.01 0.01 0.02 0.03 0.03 0.04 0.06 0.08 0.08 0.08 0.09 0.09 0.10 0.10 0.10 0.09 0.10 0.11 0.13 0.17 0.25 0.31 0.26 0.12 0.09 0.14 0.20 0.20 0.25 0.33 0.35 0.32 0.37 0.59 0.71 0.62 0.56 0.67 0.73 0.59 0.44 0.33 0.27
0.02 0.03 0.04 0.04 0.05 0.06 0.08 0.10 0.10 0.09 0.09 0.09 0.08 0.09 0.10 0.11 0.13 0.13 0.15 0.19 0.23 0.32 0.37 0.21 0.14 0.18 0.24 0.27 0.31 0.37 0.38 0.41 0.53 0.93 1.19 1.37 1.11 0.98 1.01 0.86 0.66 0.47 0.38
0.04 0.05 0.05 0.06 0.07 0.08 0.09 0.11 0.10 0.09 0.10 0.10 0.11 0.13 0.12 0.13 0.14 0.15 0.19 0.22 0.26 0.35 0.47 0.40 0.29 0.32 0.36 0.38 0.48 0.50 0.46 0.42 0.49 0.92 1.30 1.64 1.59 1.36 1.35 1.17 0.95 0.69 0.51
0.06 0.07 0.08 0.10 0.10 0.09 0.09 0.10 0.11 0.10 0.10 0.11 0.13 0.15 0.15 0.18 0.19 0.22 0.29 0.33 0.35 0.39 0.50 0.52 0.42 0.44 0.50 0.57 0.67 0.62 0.53 0.48 0.42 0.71 1.17 1.50 1.68 1.74 1.84 1.69 1.38 1.00 0.71
0.08 0.10 0.11 0.10 0.10 0.09 0.08 0.08 0.07 0.07 0.09 0.11 0.15 0.19 0.22 0.27 0.30 0.34 0.36 0.35 0.38 0.44 0.49 0.55 0.52 0.56 0.62 0.67 0.69 0.68 0.57 0.49 0.47 0.56 0.98 1.47 1.80 1.87 2.07 2.21 1.92 1.40 0.98
0.10 0.10 0.10 0.09 0.09 0.08 0.05 0.03 0.03 0.05 0.09 0.12 0.15 0.17 0.22 0.30 0.34 0.33 0.31 0.32 0.39 0.48 0.50 0.58 0.60 0.59 0.57 0.63 0.63 0.55 0.47 0.42 0.38 0.44 0.62 1.09 1.75 2.05 2.09 2.19 2.14 1.66 1.21
0.12 0.11 0.09 0.07 0.06 0.04 0.04 0.05 0.05 0.06 0.11 0.15 0.18 0.17 0.16 0.19 0.19 0.19 0.25 0.30 0.37 0.51 0.70 0.78 0.68 0.56 0.44 0.43 0.44 0.43 0.44 0.39 0.35 0.28 0.33 0.67 1.28 1.91 2.15 2.22 2.21 1.70 1.22
0.09 0.08 0.06 0.04 0.04 0.04 0.03 0.04 0.05 0.07 0.12 0.18 0.20 0.18 0.12 0.09 0.11 0.14 0.20 0.26 0.34 0.49 0.68 0.89 0.84 0.56 0.48 0.41 0.43 0.44 0.44 0.45 0.41 0.26 0.27 0.52 0.97 1.61 1.95 2.11 2.04 1.50 1.10
0.07 0.06 0.04 0.03 0.04 0.03 0.02 0.02 0.03 0.05 0.10 0.14 0.16 0.15 0.14 0.10 0.13 0.21 0.22 0.23 0.30 0.42 0.57 0.65 0.83 0.66 0.51 0.48 0.46 0.43 0.44 0.44 0.36 0.22 0.22 0.44 0.85 1.36 1.53 1.59 1.65 1.33 1.03
0.07 0.05 0.03 0.02 0.03 0.03 0.02 0.01 0.02 0.03 0.06 0.09 0.10 0.10 0.09 0.09 0.17 0.30 0.36 0.41 0.49 0.62 0.74 0.90 1.04 0.99 0.86 0.74 0.58 0.48 0.44 0.35 0.29 0.23 0.24 0.41 0.69 0.96 1.12 1.20 1.22 1.18 1.00
0.05 0.03 0.02 0.02 0.03 0.04 0.01 0.00 0.01 0.03 0.04 0.05 0.05 0.06 0.09 0.13 0.22 0.38 0.51 0.59 0.67 0.82 0.79 0.86 1.03 1.07 0.89 0.86 0.86 0.67 0.47 0.31 0.24 0.25 0.25 0.35 0.50 0.60 0.87 1.02 0.97 0.90 0.85

GEFSMA_prec_meanprecacc_048.txt.gz
Total_Precipitation_Accumulation
0.02 0.02 0.02 0.01 0.01 0.01 0.01 0.01 0.00 0.00 0.00 0.00 0.00 0.00 0.00 0.00 0.00 0.00 0.00 0.00 0.00 0.00 0.01 0.01 0.01 0.01 0.02 0.03 0.03 0.04 0.06 0.05 0.05 0.05 0.06 0.06 0.06 0.06 0.08 0.10 0.12 0.14 0.15
0.03 0.03 0.03 0.02 0.01 0.01 0.00 0.01 0.00 0.00 0.00 0.00 0.00 0.00 0.00 0.00 0.00 0.01 0.01 0.01 0.02 0.01 0.01 0.01 0.02 0.02 0.03 0.04 0.04 0.04 0.04 0.04 0.05 0.07 0.08 0.09 0.10 0.10 0.10 0.11 0.13 0.13 0.13
0.04 0.04 0.05 0.03 0.02 0.01 0.01 0.01 0.01 0.01 0.01 0.01 0.01 0.01 0.02 0.02 0.02 0.03 0.03 0.04 0.05 0.05 0.03 0.03 0.03 0.04 0.04 0.03 0.05 0.06 0.06 0.07 0.08 0.09 0.11 0.12 0.12 0.13 0.13 0.14 0.14 0.14 0.13
0.02 0.02 0.03 0.04 0.03 0.01 0.02 0.02 0.03 0.03 0.03 0.04 0.04 0.05 0.06 0.07 0.07 0.07 0.07 0.07 0.08 0.08 0.07 0.06 0.05 0.05 0.04 0.04 0.04 0.06 0.09 0.11 0.12 0.12 0.13 0.15 0.15 0.14 0.13 0.13 0.14 0.14 0.15
0.01 0.02 0.03 0.04 0.02 0.02 0.03 0.04 0.06 0.07 0.07 0.07 0.07 0.07 0.07 0.06 0.06 0.06 0.07 0.06 0.06 0.06 0.05 0.05 0.05 0.06 0.06 0.06 0.06 0.07 0.09 0.13 0.16 0.15 0.15 0.16 0.16 0.16 0.15 0.15 0.15 0.16 0.16
0.03 0.04 0.04 0.06 0.04 0.05 0.06 0.08 0.07 0.07 0.05 0.05 0.02 0.02 0.02 0.02 0.02 0.03 0.03 0.03 0.02 0.02 0.02 0.02 0.02 0.03 0.08 0.11 0.11 0.11 0.14 0.18 0.21 0.21 0.19 0.19 0.21 0.22 0.19 0.17 0.17 0.18 0.18
0.11 0.10 0.08 0.08 0.06 0.06 0.06 0.04 0.04 0.03 0.02 0.01 0.01 0.01 0.01 0.01 0.01 0.01 0.01 0.01 0.00 0.01 0.01 0.01 0.01 0.02 0.05 0.11 0.14 0.15 0.17 0.18 0.22 0.24 0.23 0.24 0.27 0.28 0.26 0.22 0.21 0.20 0.20
0.19 0.15 0.14 0.12 0.10 0.08 0.06 0.05 0.03 0.02 0.01 0.01 0.01 0.01 0.00 0.00 0.00 0.00 0.00 0.00 0.00 0.00 0.00 0.00 0.01 0.01 0.01 0.03 0.06 0.10 0.13 0.12 0.13 0.18 0.22 0.23 0.24 0.27 0.28 0.27 0.26 0.25 0.24
0.22 0.19 0.15 0.12 0.09 0.06 0.04 0.03 0.02 0.02 0.01 0.01 0.01 0.02 0.02 0.01 0.00 0.00 0.00 0.00 0.00 0.00 0.00 0.00 0.00 0.00 0.00 0.00 0.01 0.03 0.07 0.10 0.07 0.09 0.14 0.19 0.22 0.24 0.25 0.26 0.25 0.25 0.27
0.17 0.12 0.09 0.07 0.05 0.03 0.02 0.01 0.01 0.01 0.02 0.01 0.01 0.02 0.02 0.03 0.04 0.02 0.01 0.00 0.00 0.00 0.00 0.00 0.00 0.00 0.00 0.00 0.01 0.01 0.03 0.06 0.07 0.08 0.10 0.14 0.17 0.19 0.21 0.22 0.24 0.27 0.29
0.10 0.06 0.05 0.04 0.03 0.02 0.02 0.02 0.02 0.02 0.02 0.02 0.02 0.02 0.02 0.02 0.04 0.06 0.03 0.01 0.00 0.00 0.00 0.00 0.00 0.00 0.00 0.00 0.01 0.02 0.03 0.06 0.08 0.10 0.10 0.11 0.12 0.14 0.16 0.20 0.24 0.29 0.34
0.05 0.04 0.03 0.03 0.02 0.02 0.02 0.03 0.03 0.03 0.03 0.04 0.03 0.03 0.04 0.05 0.05 0.07 0.06 0.02 0.01 0.00 0.00 0.00 0.00 0.00 0.00 0.01 0.02 0.04 0.07 0.09 0.09 0.09 0.09 0.09 0.11 0.13 0.15 0.19 0.25 0.33 0.41
0.04 0.04 0.03 0.02 0.02 0.02 0.02 0.02 0.02 0.03 0.03 0.04 0.05 0.05 0.05 0.06 0.06 0.08 0.09 0.06 0.04 0.01 0.01 0.01 0.01 0.01 0.02 0.04 0.10 0.09 0.11 0.10 0.08 0.07 0.07 0.11 0.14 0.18 0.18 0.21 0.23 0.27 0.32
0.03 0.02 0.02 0.02 0.02 0.01 0.01 0.02 0.03 0.03 0.05 0.06 0.05 0.07 0.07 0.06 0.07 0.10 0.14 0.16 0.14 0.07 0.05 0.03 0.03 0.05 0.10 0.15 0.19 0.13 0.21 0.14 0.11 0.12 0.13 0.19 0.23 0.31 0.30 0.25 0.21 0.23 0.24
0.01 0.01 0.01 0.02 0.02 0.02 0.03 0.05 0.06 0.06 0.08 0.08 0.08 0.08 0.09 0.09 0.10 0.12 0.16 0.24 0.29 0.22 0.13 0.07 0.08 0.11 0.20 0.23 0.25 0.30 0.37 0.26 0.24 0.29 0.29 0.31 0.36 0.45 0.47 0.38 0.30 0.24 0.21
0.02 0.02 0.02 0.03 0.03 0.04 0.06 0.08 0.08 0.08 0.09 0.09 0.10 0.10 0.10 0.10 0.10 0.11 0.13 0.17 0.26 0.32 0.27 0.12 0.09 0.14 0.20 0.20 0.25 0.33 0.35 0.32 0.37 0.60 0.71 0.63 0.57 0.69 0.75 0.61 0.46 0.35 0.29
0.03 0.03 0.04 0.04 0.05 0.07 0.08 0.10 0.10 0.09 0.09 0.09 0.09 0.09 0.10 0.11 0.13 0.13 0.15 0.19 0.23 0.33 0.37 0.21 0.14 0.18 0.24 0.27 0.31 0.37 0.38 0.41 0.53 0.94 1.21 1.39 1.13 1.00 1.03 0.88 0.69 0.50 0.40
0.05 0.05 0.06 0.07 0.08 0.08 0.10 0.11 0.10 0.09 0.10 0.10 0.11 0.13 0.13 0.13 0.14 0.15 0.19 0.22 0.26 0.35 0.48 0.40 0.29 0.32 0.36 0.38 0.48 0.50 0.47 0.42 0.50 0.93 1.32 1.65 1.61 1.38 1.38 1.19 0.98 0.71 0.53
0.08 0.09 0.10 0.11 0.10 0.10 0.10 0.10 0.11 0.10 0.10 0.11 0.13 0.15 0.15 0.18 0.19 0.22 0.29 0.33 0.35 0.40 0.51 0.53 0.42 0.45 0.50 0.57 0.68 0.63 0.53 0.48 0.43 0.72 1.19 1.53 1.71 1.77 1.87 1.71 1.39 1.01 0.72
0.12 0.13 0.12 0.12 0.11 0.10 0.09 0.08 0.07 0.07 0.09 0.11 0.15 0.19 0.22 0.27 0.30 0.34 0.36 0.35 0.39 0.44 0.49 0.55 0.52 0.56 0.62 0.68 0.69 0.69 0.58 0.49 0.47 0.56 0.99 1.49 1.82 1.89 2.09 2.22 1.93 1.41 0.98
0.14 0.14 0.13 0.11 0.10 0.08 0.05 0.03 0.03 0.05 0.09 0.12 0.15 0.17 0.22 0.30 0.35 0.34 0.32 0.32 0.40 0.49 0.52 0.59 0.61 0.60 0.58 0.64 0.64 0.56 0.49 0.43 0.39 0.44 0.63 1.09 1.76 2.06 2.10 2.21 2.16 1.69 1.23
0.16 0.13 0.11 0.08 0.07 0.04 0.04 0.05 0.05 0.06 0.11 0.15 0.18 0.17 0.16 0.19 0.19 0.20 0.27 0.32 0.40 0.54 0.73 0.81 0.71 0.58 0.46 0.45 0.46 0.46 0.46 0.42 0.37 0.29 0.33 0.68 1.28 1.92 2.16 2.23 2.23 1.73 1.24
0.11 0.09 0.07 0.04 0.04 0.04 0.03 0.04 0.05 0.07 0.12 0.18 0.20 0.18 0.13 0.09 0.12 0.15 0.21 0.27 0.35 0.51 0.71 0.93 0.88 0.59 0.51 0.44 0.47 0.49 0.48 0.49 0.44 0.28 0.29 0.54 0.98 1.62 1.96 2.13 2.06 1.52 1.11
0.08 0.06 0.05 0.03 0.04 0.03 0.02 0.02 0.03 0.05 0.10 0.14 0.16 0.15 0.14 0.10 0.14 0.21 0.23 0.24 0.30 0.43 0.58 0.67 0.85 0.68 0.53 0.51 0.51 0.48 0.49 0.49 0.39 0.24 0.26 0.48 0.87 1.37 1.55 1.61 1.68 1.35 1.05
0.07 0.05 0.03 0.02 0.03 0.03 0.02 0.01 0.02 0.03 0.06 0.09 0.10 0.10 0.09 0.10 0.17 0.31 0.37 0.42 0.50 0.63 0.75 0.92 1.06 1.02 0.89 0.78 0.63 0.53 0.49 0.41 0.34 0.27 0.29 0.45 0.72 0.98 1.14 1.21 1.24 1.21 1.02
0.06 0.04 0.02 0.02 0.03 0.04 0.01 0.00 0.01 0.03 0.04 0.05 0.05 0.06 0.10 0.14 0.23 0.40 0.52 0.60 0.68 0.83 0.80 0.88 1.04 1.09 0.92 0.89 0.91 0.72 0.53 0.37 0.30 0.31 0.30 0.39 0.54 0.63 0.90 1.05 1.00 0.92 0.87

GEFSMA_prec_meanprecacc_054.txt.gz
Total_Precipitation_Accumulation
0.02 0.02 0.02 0.01 0.02 0.02 0.02 0.01 0.01 0.01 0.00 0.00 0.00 0.00 0.00 0.00 0.00 0.00 0.00 0.01 0.01 0.02 0.03 0.03 0.03 0.03 0.03 0.04 0.05 0.06 0.07 0.06 0.05 0.06 0.06 0.06 0.06 0.07 0.09 0.11 0.14 0.16 0.17
0.03 0.03 0.03 0.03 0.02 0.02 0.01 0.02 0.01 0.01 0.01 0.01 0.00 0.00 0.00 0.00 0.00 0.01 0.01 0.02 0.03 0.03 0.03 0.04 0.04 0.05 0.06 0.07 0.07 0.06 0.07 0.06 0.07 0.08 0.09 0.09 0.10 0.10 0.10 0.12 0.14 0.15 0.14
0.05 0.05 0.06 0.05 0.03 0.02 0.02 0.02 0.02 0.01 0.01 0.01 0.01 0.02 0.02 0.03 0.02 0.03 0.03 0.04 0.05 0.06 0.06 0.07 0.07 0.08 0.08 0.08 0.09 0.10 0.10 0.10 0.10 0.11 0.12 0.13 0.13 0.13 0.13 0.14 0.15 0.15 0.14
0.05 0.05 0.05 0.06 0.05 0.04 0.04 0.06 0.05 0.04 0.04 0.05 0.05 0.06 0.06 0.07 0.07 0.07 0.07 0.07 0.08 0.08 0.08 0.08 0.08 0.08 0.08 0.08 0.08 0.10 0.12 0.13 0.14 0.14 0.15 0.17 0.17 0.15 0.15 0.14 0.15 0.15 0.16
0.06 0.06 0.08 0.09 0.08 0.07 0.09 0.10 0.11 0.11 0.10 0.09 0.09 0.08 0.07 0.07 0.06 0.07 0.07 0.06 0.06 0.06 0.06 0.06 0.07 0.09 0.09 0.09 0.09 0.09 0.11 0.15 0.18 0.18 0.17 0.19 0.19 0.19 0.18 0.16 0.16 0.17 0.18
0.13 0.15 0.16 0.18 0.15 0.14 0.16 0.16 0.14 0.12 0.10 0.09 0.06 0.04 0.04 0.03 0.03 0.03 0.03 0.03 0.03 0.02 0.02 0.02 0.02 0.04 0.10 0.13 0.13 0.13 0.16 0.20 0.23 0.23 0.22 0.23 0.26 0.26 0.22 0.19 0.19 0.19 0.18
0.31 0.32 0.30 0.27 0.23 0.19 0.17 0.13 0.11 0.09 0.08 0.06 0.05 0.03 0.02 0.01 0.01 0.01 0.01 0.01 0.01 0.01 0.01 0.01 0.01 0.02 0.06 0.12 0.15 0.16 0.18 0.20 0.23 0.25 0.25 0.27 0.30 0.31 0.29 0.25 0.23 0.22 0.21
0.53 0.46 0.41 0.35 0.28 0.22 0.17 0.14 0.11 0.09 0.07 0.06 0.04 0.03 0.01 0.01 0.00 0.00 0.00 0.00 0.00 0.00 0.00 0.01 0.01 0.01 0.02 0.03 0.06 0.10 0.14 0.13 0.13 0.18 0.22 0.24 0.26 0.29 0.30 0.29 0.27 0.26 0.26
0.58 0.50 0.41 0.32 0.25 0.18 0.14 0.12 0.10 0.09 0.06 0.03 0.02 0.02 0.03 0.02 0.01 0.00 0.00 0.00 0.00 0.00 0.00 0.00 0.00 0.00 0.00 0.00 0.01 0.03 0.07 0.10 0.07 0.09 0.15 0.20 0.23 0.25 0.26 0.27 0.26 0.27 0.28
0.46 0.38 0.31 0.23 0.19 0.16 0.14 0.11 0.09 0.07 0.05 0.04 0.03 0.02 0.03 0.04 0.04 0.02 0.01 0.00 0.00 0.00 0.00 0.00 0.00 0.00 0.00 0.00 0.01 0.01 0.03 0.06 0.07 0.08 0.10 0.14 0.17 0.19 0.21 0.23 0.25 0.29 0.30
0.34 0.27 0.23 0.19 0.16 0.13 0.11 0.08 0.06 0.05 0.04 0.04 0.03 0.02 0.02 0.02 0.04 0.06 0.03 0.01 0.00 0.00 0.00 0.00 0.00 0.00 0.00 0.00 0.01 0.02 0.03 0.06 0.08 0.10 0.10 0.11 0.12 0.15 0.17 0.20 0.25 0.31 0.36
0.24 0.20 0.16 0.14 0.12 0.09 0.07 0.06 0.05 0.04 0.04 0.04 0.03 0.03 0.05 0.05 0.06 0.08 0.06 0.02 0.01 0.00 0.00 0.00 0.00 0.00 0.00 0.01 0.02 0.04 0.07 0.09 0.09 0.09 0.09 0.09 0.11 0.14 0.16 0.19 0.27 0.35 0.44
0.18 0.15 0.12 0.09 0.07 0.05 0.04 0.03 0.03 0.03 0.03 0.05 0.05 0.05 0.05 0.06 0.06 0.08 0.09 0.06 0.04 0.01 0.01 0.01 0.01 0.01 0.02 0.04 0.10 0.09 0.11 0.10 0.08 0.07 0.07 0.11 0.14 0.18 0.19 0.22 0.24 0.29 0.35
0.10 0.08 0.06 0.04 0.04 0.03 0.03 0.03 0.04 0.04 0.05 0.06 0.06 0.07 0.07 0.06 0.07 0.10 0.14 0.16 0.14 0.07 0.05 0.03 0.03 0.05 0.10 0.15 0.19 0.13 0.21 0.14 0.11 0.12 0.13 0.19 0.23 0.31 0.30 0.25 0.21 0.24 0.25
0.05 0.04 0.03 0.03 0.04 0.04 0.05 0.06 0.06 0.07 0.08 0.08 0.08 0.08 0.09 0.09 0.10 0.12 0.16 0.24 0.29 0.22 0.13 0.07 0.08 0.11 0.20 0.23 0.25 0.30 0.37 0.26 0.24 0.29 0.29 0.32 0.36 0.46 0.47 0.39 0.31 0.25 0.22
0.04 0.03 0.04 0.05 0.05 0.05 0.07 0.09 0.09 0.09 0.10 0.10 0.10 0.10 0.10 0.10 0.10 0.11 0.13 0.17 0.26 0.32 0.27 0.12 0.09 0.14 0.20 0.21 0.25 0.33 0.35 0.32 0.37 0.60 0.71 0.63 0.57 0.69 0.76 0.62 0.47 0.36 0.30
0.05 0.05 0.06 0.06 0.07 0.08 0.10 0.12 0.11 0.10 0.10 0.09 0.09 0.10 0.10 0.11 0.13 0.13 0.15 0.19 0.23 0.33 0.38 0.21 0.14 0.18 0.24 0.27 0.31 0.37 0.38 0.41 0.53 0.94 1.21 1.40 1.14 1.01 1.04 0.90 0.71 0.52 0.42
0.07 0.07 0.08 0.10 0.10 0.10 0.11 0.12 0.11 0.10 0.10 0.10 0.11 0.13 0.13 0.13 0.14 0.15 0.19 0.22 0.26 0.35 0.48 0.40 0.29 0.32 0.36 0.38 0.48 0.50 0.47 0.42 0.50 0.93 1.32 1.66 1.62 1.40 1.40 1.22 1.00 0.73 0.55
0.10 0.11 0.13 0.14 0.12 0.11 0.11 0.11 0.11 0.11 0.11 0.12 0.14 0.15 0.15 0.18 0.19 0.22 0.29 0.33 0.35 0.40 0.51 0.53 0.42 0.45 0.50 0.57 0.68 0.63 0.53 0.48 0.43 0.72 1.19 1.53 1.71 1.78 1.88 1.73 1.41 1.03 0.73
0.15 0.16 0.15 0.14 0.13 0.11 0.10 0.09 0.09 0.08 0.10 0.12 0.16 0.19 0.22 0.27 0.30 0.34 0.36 0.35 0.39 0.45 0.49 0.56 0.53 0.56 0.62 0.68 0.69 0.69 0.58 0.50 0.47 0.56 0.99 1.49 1.82 1.90 2.10 2.23 1.95 1.43 1.00
0.17 0.17 0.15 0.13 0.12 0.10 0.06 0.04 0.04 0.06 0.09 0.12 0.15 0.17 0.22 0.30 0.36 0.35 0.33 0.33 0.41 0.50 0.53 0.60 0.63 0.61 0.59 0.65 0.65 0.57 0.50 0.43 0.39 0.44 0.63 1.10 1.76 2.06 2.11 2.21 2.17 1.71 1.24
0.19 0.15 0.12 0.09 0.08 0.05 0.04 0.05 0.05 0.07 0.11 0.15 0.18 0.17 0.16 0.19 0.19 0.20 0.27 0.33 0.41 0.56 0.74 0.83 0.73 0.61 0.48 0.46 0.48 0.47 0.48 0.44 0.38 0.29 0.34 0.69 1.29 1.92 2.16 2.23 2.24 1.74 1.25
0.14 0.11 0.08 0.05 0.05 0.04 0.03 0.04 0.05 0.07 0.12 0.18 0.20 0.18 0.13 0.09 0.12 0.15 0.21 0.27 0.36 0.52 0.73 0.95 0.90 0.62 0.53 0.46 0.49 0.52 0.51 0.52 0.47 0.30 0.32 0.56 0.99 1.62 1.97 2.13 2.07 1.52 1.12
0.08 0.07 0.05 0.03 0.04 0.03 0.02 0.02 0.03 0.05 0.10 0.14 0.16 0.15 0.14 0.10 0.14 0.22 0.23 0.24 0.31 0.43 0.59 0.68 0.86 0.70 0.55 0.53 0.53 0.52 0.52 0.51 0.41 0.26 0.29 0.52 0.89 1.38 1.56 1.62 1.69 1.37 1.06
0.07 0.05 0.03 0.02 0.03 0.03 0.02 0.01 0.02 0.03 0.06 0.09 0.10 0.10 0.09 0.10 0.18 0.32 0.38 0.43 0.50 0.63 0.76 0.93 1.08 1.03 0.91 0.81 0.66 0.56 0.53 0.44 0.36 0.28 0.31 0.48 0.74 0.99 1.15 1.22 1.26 1.23 1.04
0.06 0.04 0.02 0.02 0.03 0.04 0.01 0.00 0.01 0.03 0.04 0.05 0.05 0.06 0.10 0.14 0.24 0.40 0.53 0.61 0.69 0.83 0.81 0.88 1.05 1.10 0.93 0.91 0.94 0.76 0.57 0.42 0.34 0.35 0.33 0.42 0.56 0.65 0.92 1.06 1.01 0.93 0.89

GEFSMA_prec_meanprecacc_060.txt.gz
Total_Precipitation_Accumulation
0.03 0.03 0.03 0.04 0.04 0.04 0.04 0.03 0.02 0.01 0.00 0.00 0.00 0.00 0.00 0.00 0.00 0.00 0.00 0.01 0.01 0.02 0.03 0.04 0.04 0.04 0.05 0.05 0.06 0.07 0.08 0.07 0.07 0.07 0.08 0.07 0.07 0.07 0.10 0.12 0.14 0.17 0.18
0.05 0.05 0.07 0.07 0.06 0.06 0.04 0.04 0.03 0.02 0.02 0.01 0.01 0.01 0.01 0.01 0.00 0.01 0.01 0.02 0.03 0.03 0.03 0.05 0.06 0.07 0.07 0.08 0.08 0.08 0.08 0.08 0.09 0.10 0.10 0.10 0.11 0.11 0.11 0.13 0.14 0.15 0.15
0.08 0.09 0.11 0.10 0.09 0.07 0.06 0.04 0.04 0.03 0.03 0.03 0.02 0.02 0.02 0.03 0.03 0.03 0.03 0.04 0.05 0.06 0.06 0.07 0.08 0.09 0.09 0.09 0.11 0.12 0.12 0.12 0.12 0.14 0.14 0.15 0.14 0.14 0.14 0.15 0.15 0.15 0.15
0.10 0.13 0.13 0.15 0.14 0.11 0.10 0.10 0.08 0.07 0.07 0.07 0.06 0.07 0.07 0.08 0.08 0.08 0.07 0.07 0.08 0.08 0.08 0.08 0.08 0.09 0.09 0.09 0.09 0.12 0.14 0.16 0.17 0.16 0.17 0.19 0.19 0.17 0.16 0.15 0.16 0.16 0.17
0.16 0.19 0.23 0.23 0.20 0.18 0.19 0.18 0.17 0.15 0.13 0.12 0.12 0.11 0.09 0.08 0.07 0.07 0.07 0.07 0.06 0.06 0.06 0.07 0.07 0.09 0.09 0.10 0.10 0.11 0.13 0.17 0.21 0.20 0.19 0.21 0.22 0.21 0.19 0.18 0.17 0.18 0.18
0.31 0.35 0.38 0.40 0.36 0.34 0.35 0.32 0.26 0.20 0.15 0.14 0.10 0.08 0.07 0.06 0.05 0.04 0.04 0.04 0.03 0.03 0.03 0.02 0.03 0.04 0.10 0.13 0.13 0.14 0.17 0.22 0.25 0.25 0.24 0.26 0.28 0.28 0.23 0.21 0.20 0.20 0.19
0.58 0.64 0.67 0.64 0.54 0.46 0.41 0.34 0.29 0.24 0.18 0.14 0.12 0.10 0.08 0.06 0.05 0.03 0.03 0.02 0.01 0.01 0.01 0.01 0.01 0.02 0.06 0.12 0.15 0.16 0.19 0.20 0.24 0.27 0.27 0.29 0.32 0.34 0.31 0.27 0.25 0.23 0.22
0.96 0.94 0.91 0.81 0.68 0.54 0.41 0.33 0.29 0.24 0.17 0.13 0.11 0.09 0.07 0.05 0.03 0.02 0.01 0.01 0.01 0.01 0.01 0.01 0.01 0.01 0.02 0.03 0.06 0.10 0.14 0.13 0.14 0.19 0.23 0.25 0.28 0.31 0.32 0.30 0.29 0.28 0.27
1.04 0.94 0.83 0.73 0.62 0.48 0.38 0.31 0.25 0.20 0.16 0.12 0.10 0.11 0.10 0.06 0.03 0.02 0.01 0.01 0.01 0.00 0.00 0.00 0.00 0.00 0.00 0.00 0.01 0.03 0.07 0.10 0.07 0.09 0.15 0.20 0.23 0.26 0.27 0.28 0.27 0.28 0.30
0.81 0.70 0.60 0.51 0.44 0.38 0.33 0.28 0.24 0.20 0.17 0.15 0.13 0.10 0.09 0.08 0.07 0.05 0.03 0.02 0.01 0.01 0.01 0.00 0.00 0.00 0.00 0.00 0.01 0.01 0.03 0.06 0.07 0.08 0.10 0.14 0.17 0.19 0.22 0.24 0.26 0.30 0.32
0.63 0.55 0.46 0.36 0.29 0.25 0.21 0.16 0.14 0.14 0.14 0.11 0.08 0.06 0.05 0.04 0.05 0.08 0.04 0.02 0.01 0.00 0.00 0.00 0.00 0.00 0.00 0.00 0.01 0.02 0.03 0.06 0.08 0.10 0.10 0.11 0.12 0.15 0.17 0.21 0.26 0.32 0.37
0.49 0.39 0.29 0.23 0.19 0.15 0.12 0.11 0.11 0.09 0.08 0.07 0.06 0.05 0.06 0.06 0.06 0.08 0.06 0.02 0.01 0.00 0.00 0.00 0.00 0.00 0.00 0.01 0.02 0.04 0.07 0.09 0.09 0.09 0.09 0.09 0.11 0.14 0.16 0.20 0.27 0.36 0.45
0.30 0.23 0.17 0.14 0.11 0.09 0.07 0.06 0.06 0.06 0.06 0.06 0.06 0.06 0.06 0.06 0.07 0.09 0.09 0.06 0.04 0.01 0.01 0.01 0.01 0.01 0.02 0.04 0.10 0.09 0.11 0.10 0.08 0.07 0.07 0.11 0.14 0.18 0.19 0.22 0.24 0.30 0.36
0.15 0.12 0.08 0.07 0.05 0.05 0.05 0.06 0.06 0.06 0.07 0.08 0.07 0.09 0.08 0.07 0.08 0.11 0.14 0.17 0.14 0.07 0.05 0.03 0.03 0.05 0.10 0.15 0.19 0.13 0.21 0.14 0.11 0.12 0.13 0.19 0.24 0.31 0.31 0.26 0.22 0.25 0.26
0.06 0.05 0.04 0.04 0.05 0.05 0.06 0.07 0.08 0.08 0.10 0.10 0.09 0.10 0.11 0.10 0.11 0.13 0.17 0.24 0.30 0.22 0.13 0.07 0.08 0.11 0.20 0.23 0.25 0.30 0.37 0.27 0.24 0.29 0.29 0.32 0.36 0.46 0.48 0.40 0.32 0.26 0.23
0.05 0.04 0.05 0.06 0.06 0.06 0.08 0.10 0.10 0.10 0.11 0.10 0.11 0.11 0.11 0.10 0.11 0.11 0.14 0.18 0.26 0.33 0.27 0.12 0.09 0.14 0.21 0.21 0.25 0.33 0.35 0.32 0.37 0.60 0.72 0.63 0.57 0.70 0.76 0.63 0.48 0.38 0.32
0.05 0.06 0.06 0.06 0.07 0.09 0.10 0.12 0.12 0.11 0.10 0.10 0.09 0.10 0.11 0.12 0.13 0.13 0.16 0.19 0.24 0.33 0.38 0.22 0.14 0.18 0.24 0.27 0.32 0.37 0.38 0.42 0.54 0.94 1.21 1.40 1.14 1.02 1.05 0.91 0.72 0.54 0.44
0.07 0.07 0.08 0.10 0.11 0.11 0.12 0.13 0.12 0.11 0.11 0.11 0.12 0.14 0.13 0.14 0.15 0.16 0.20 0.23 0.27 0.36 0.49 0.41 0.29 0.33 0.36 0.40 0.49 0.52 0.47 0.43 0.50 0.94 1.32 1.66 1.62 1.40 1.41 1.23 1.01 0.74 0.56
0.11 0.12 0.14 0.15 0.14 0.13 0.12 0.12 0.12 0.12 0.11 0.13 0.14 0.16 0.16 0.19 0.20 0.23 0.30 0.34 0.36 0.41 0.53 0.55 0.44 0.45 0.51 0.58 0.70 0.64 0.54 0.50 0.44 0.72 1.19 1.53 1.72 1.79 1.89 1.74 1.42 1.04 0.74
0.17 0.18 0.17 0.16 0.14 0.12 0.11 0.10 0.09 0.09 0.10 0.12 0.16 0.19 0.22 0.27 0.31 0.35 0.37 0.37 0.41 0.47 0.52 0.59 0.55 0.58 0.64 0.69 0.72 0.72 0.60 0.52 0.49 0.57 1.00 1.50 1.83 1.91 2.10 2.24 1.95 1.43 1.00
0.19 0.19 0.16 0.14 0.13 0.10 0.07 0.05 0.04 0.06 0.10 0.13 0.15 0.18 0.22 0.30 0.36 0.36 0.34 0.36 0.44 0.55 0.57 0.64 0.66 0.63 0.61 0.67 0.68 0.60 0.53 0.46 0.41 0.46 0.66 1.11 1.78 2.08 2.13 2.23 2.18 1.71 1.25
0.20 0.16 0.13 0.10 0.08 0.05 0.05 0.05 0.05 0.07 0.11 0.16 0.18 0.17 0.16 0.19 0.20 0.21 0.27 0.34 0.43 0.60 0.79 0.88 0.77 0.65 0.51 0.50 0.52 0.51 0.52 0.48 0.41 0.32 0.38 0.70 1.31 1.95 2.19 2.27 2.26 1.75 1.26
0.14 0.11 0.08 0.05 0.05 0.04 0.03 0.04 0.05 0.07 0.13 0.18 0.21 0.19 0.13 0.10 0.13 0.16 0.22 0.28 0.37 0.54 0.75 0.98 0.95 0.67 0.58 0.51 0.55 0.57 0.56 0.57 0.50 0.33 0.36 0.59 1.01 1.66 2.00 2.16 2.07 1.53 1.12
0.09 0.07 0.05 0.03 0.04 0.04 0.02 0.02 0.03 0.05 0.11 0.15 0.17 0.16 0.15 0.13 0.16 0.23 0.24 0.26 0.33 0.46 0.62 0.71 0.91 0.74 0.59 0.57 0.58 0.57 0.57 0.54 0.43 0.29 0.34 0.56 0.92 1.41 1.58 1.66 1.72 1.37 1.07
0.08 0.06 0.04 0.03 0.04 0.04 0.02 0.01 0.02 0.04 0.06 0.10 0.12 0.12 0.11 0.12 0.19 0.32 0.39 0.45 0.53 0.67 0.78 0.94 1.09 1.05 0.92 0.82 0.68 0.60 0.58 0.48 0.39 0.31 0.35 0.52 0.77 1.01 1.17 1.27 1.30 1.24 1.05
0.06 0.04 0.02 0.03 0.04 0.05 0.01 0.00 0.01 0.03 0.05 0.05 0.06 0.08 0.11 0.15 0.24 0.41 0.54 0.64 0.73 0.86 0.83 0.90 1.08 1.12 0.96 0.94 0.97 0.79 0.62 0.47 0.38 0.38 0.36 0.45 0.58 0.67 0.94 1.08 1.03 0.97 0.93

GEFSMA_prec_meanprecacc_066.txt.gz
Total_Precipitation_Accumulation
0.07 0.08 0.09 0.11 0.11 0.15 0.13 0.09 0.05 0.05 0.04 0.01 0.01 0.01 0.00 0.00 0.00 0.01 0.02 0.03 0.03 0.03 0.04 0.05 0.05 0.05 0.05 0.06 0.06 0.07 0.08 0.08 0.07 0.07 0.08 0.07 0.07 0.07 0.10 0.12 0.15 0.17 0.18
0.12 0.13 0.15 0.16 0.16 0.18 0.17 0.12 0.08 0.07 0.05 0.03 0.03 0.02 0.01 0.01 0.01 0.02 0.03 0.04 0.05 0.04 0.05 0.05 0.06 0.07 0.07 0.08 0.09 0.09 0.09 0.09 0.10 0.11 0.12 0.12 0.12 0.12 0.11 0.13 0.15 0.16 0.15
0.16 0.20 0.23 0.23 0.20 0.18 0.17 0.15 0.12 0.09 0.08 0.06 0.04 0.03 0.03 0.03 0.03 0.05 0.05 0.06 0.09 0.09 0.08 0.08 0.09 0.10 0.10 0.10 0.12 0.14 0.15 0.14 0.14 0.16 0.16 0.17 0.16 0.16 0.15 0.16 0.16 0.16 0.15
0.18 0.23 0.25 0.28 0.27 0.23 0.24 0.24 0.20 0.17 0.16 0.15 0.11 0.11 0.09 0.08 0.08 0.09 0.08 0.09 0.10 0.11 0.11 0.10 0.10 0.10 0.10 0.10 0.11 0.14 0.17 0.19 0.20 0.19 0.20 0.22 0.22 0.20 0.18 0.17 0.17 0.17 0.18
0.22 0.28 0.35 0.37 0.35 0.33 0.34 0.33 0.31 0.27 0.24 0.22 0.18 0.17 0.13 0.10 0.09 0.09 0.08 0.08 0.08 0.08 0.09 0.11 0.11 0.11 0.10 0.10 0.11 0.11 0.14 0.19 0.22 0.22 0.22 0.24 0.25 0.24 0.22 0.21 0.20 0.20 0.20
0.37 0.44 0.50 0.54 0.52 0.52 0.57 0.52 0.43 0.37 0.29 0.24 0.18 0.14 0.10 0.08 0.07 0.06 0.06 0.05 0.05 0.04 0.04 0.05 0.05 0.06 0.11 0.14 0.14 0.14 0.18 0.23 0.27 0.27 0.26 0.28 0.31 0.31 0.26 0.23 0.23 0.23 0.22
0.67 0.74 0.78 0.78 0.72 0.67 0.61 0.57 0.54 0.44 0.34 0.25 0.20 0.15 0.11 0.09 0.07 0.06 0.04 0.03 0.03 0.02 0.02 0.02 0.02 0.03 0.07 0.12 0.15 0.17 0.19 0.21 0.25 0.27 0.28 0.30 0.34 0.35 0.33 0.29 0.27 0.26 0.25
1.03 1.02 1.00 0.92 0.82 0.71 0.61 0.51 0.46 0.38 0.30 0.23 0.19 0.16 0.12 0.08 0.06 0.04 0.03 0.02 0.02 0.01 0.01 0.01 0.01 0.01 0.02 0.04 0.06 0.11 0.14 0.13 0.14 0.20 0.24 0.26 0.29 0.33 0.34 0.33 0.32 0.31 0.30
1.11 1.02 0.91 0.81 0.72 0.60 0.50 0.42 0.35 0.29 0.23 0.18 0.15 0.16 0.15 0.10 0.05 0.03 0.02 0.02 0.02 0.01 0.01 0.01 0.01 0.01 0.01 0.01 0.01 0.03 0.08 0.10 0.08 0.09 0.15 0.20 0.24 0.26 0.28 0.29 0.29 0.30 0.32
0.90 0.77 0.66 0.57 0.51 0.45 0.40 0.35 0.29 0.24 0.21 0.19 0.16 0.14 0.12 0.10 0.09 0.06 0.03 0.02 0.02 0.02 0.01 0.01 0.01 0.01 0.01 0.01 0.01 0.02 0.03 0.06 0.07 0.08 0.10 0.14 0.17 0.20 0.22 0.24 0.27 0.31 0.33
0.67 0.59 0.50 0.39 0.33 0.28 0.25 0.20 0.17 0.16 0.16 0.14 0.10 0.08 0.07 0.07 0.07 0.09 0.05 0.02 0.01 0.01 0.01 0.01 0.01 0.01 0.01 0.01 0.02 0.02 0.03 0.06 0.09 0.10 0.10 0.11 0.12 0.15 0.17 0.21 0.26 0.32 0.38
0.52 0.42 0.31 0.24 0.20 0.17 0.15 0.14 0.14 0.12 0.10 0.09 0.08 0.07 0.08 0.09 0.09 0.10 0.08 0.03 0.02 0.01 0.00 0.00 0.00 0.00 0.01 0.01 0.02 0.04 0.07 0.09 0.09 0.09 0.09 0.09 0.11 0.14 0.16 0.20 0.28 0.37 0.47
0.32 0.24 0.18 0.14 0.12 0.11 0.09 0.08 0.08 0.08 0.09 0.09 0.09 0.09 0.09 0.09 0.09 0.10 0.11 0.07 0.04 0.02 0.01 0.01 0.01 0.01 0.02 0.05 0.10 0.09 0.11 0.10 0.08 0.07 0.07 0.11 0.14 0.18 0.20 0.23 0.25 0.31 0.37
0.16 0.13 0.09 0.07 0.06 0.05 0.05 0.06 0.07 0.07 0.08 0.09 0.09 0.10 0.10 0.08 0.09 0.12 0.16 0.18 0.16 0.08 0.06 0.04 0.04 0.06 0.11 0.15 0.19 0.13 0.21 0.14 0.11 0.12 0.14 0.19 0.24 0.32 0.31 0.26 0.23 0.26 0.27
0.08 0.06 0.05 0.05 0.05 0.05 0.06 0.08 0.08 0.09 0.10 0.10 0.10 0.10 0.11 0.10 0.12 0.14 0.17 0.25 0.31 0.24 0.14 0.08 0.08 0.12 0.20 0.24 0.26 0.30 0.37 0.27 0.24 0.29 0.29 0.32 0.36 0.46 0.48 0.40 0.33 0.27 0.24
0.08 0.06 0.06 0.07 0.07 0.07 0.08 0.10 0.10 0.10 0.11 0.11 0.11 0.11 0.11 0.11 0.11 0.12 0.14 0.18 0.27 0.33 0.28 0.13 0.10 0.15 0.21 0.21 0.25 0.34 0.35 0.33 0.37 0.60 0.72 0.64 0.58 0.70 0.77 0.64 0.49 0.38 0.32
0.07 0.07 0.07 0.07 0.08 0.09 0.11 0.13 0.12 0.11 0.11 0.11 0.10 0.11 0.11 0.12 0.14 0.14 0.16 0.20 0.25 0.35 0.39 0.22 0.15 0.18 0.25 0.28 0.32 0.38 0.39 0.42 0.54 0.95 1.22 1.40 1.14 1.02 1.05 0.91 0.72 0.54 0.44
0.08 0.08 0.08 0.10 0.11 0.11 0.13 0.13 0.12 0.11 0.11 0.11 0.12 0.14 0.14 0.14 0.16 0.17 0.21 0.24 0.28 0.38 0.50 0.42 0.30 0.33 0.37 0.40 0.50 0.53 0.48 0.43 0.51 0.94 1.32 1.66 1.62 1.41 1.41 1.23 1.01 0.75 0.56
0.11 0.13 0.14 0.16 0.14 0.13 0.12 0.13 0.13 0.12 0.12 0.13 0.15 0.16 0.17 0.19 0.21 0.24 0.31 0.35 0.38 0.42 0.54 0.57 0.45 0.47 0.52 0.59 0.71 0.66 0.56 0.52 0.44 0.72 1.19 1.53 1.72 1.80 1.90 1.74 1.42 1.04 0.74
0.17 0.18 0.18 0.16 0.14 0.13 0.11 0.10 0.09 0.09 0.11 0.13 0.16 0.20 0.23 0.28 0.32 0.36 0.38 0.38 0.43 0.49 0.54 0.61 0.57 0.60 0.65 0.71 0.75 0.75 0.62 0.53 0.50 0.58 1.01 1.51 1.84 1.91 2.11 2.24 1.95 1.44 1.01
0.19 0.19 0.17 0.14 0.13 0.10 0.07 0.05 0.04 0.06 0.10 0.13 0.16 0.18 0.23 0.31 0.37 0.36 0.35 0.36 0.46 0.57 0.59 0.67 0.68 0.65 0.63 0.71 0.72 0.64 0.56 0.48 0.42 0.48 0.68 1.13 1.80 2.11 2.16 2.26 2.21 1.73 1.26
0.20 0.17 0.13 0.10 0.09 0.05 0.05 0.05 0.05 0.07 0.12 0.16 0.19 0.19 0.18 0.21 0.21 0.21 0.28 0.34 0.44 0.61 0.81 0.91 0.80 0.68 0.55 0.54 0.58 0.55 0.56 0.52 0.43 0.34 0.41 0.72 1.33 1.98 2.23 2.31 2.29 1.76 1.26
0.15 0.12 0.09 0.06 0.06 0.05 0.03 0.04 0.05 0.07 0.13 0.20 0.23 0.21 0.15 0.12 0.15 0.19 0.24 0.29 0.39 0.56 0.78 1.02 1.00 0.72 0.64 0.58 0.61 0.61 0.60 0.62 0.53 0.36 0.40 0.62 1.05 1.70 2.03 2.18 2.09 1.53 1.13
0.11 0.09 0.07 0.05 0.07 0.04 0.02 0.02 0.03 0.06 0.12 0.17 0.20 0.20 0.19 0.17 0.18 0.23 0.24 0.27 0.36 0.52 0.67 0.76 0.97 0.80 0.64 0.61 0.62 0.60 0.61 0.58 0.45 0.33 0.39 0.60 0.94 1.44 1.60 1.70 1.74 1.38 1.07
0.10 0.07 0.04 0.04 0.06 0.06 0.02 0.01 0.02 0.04 0.08 0.12 0.14 0.15 0.14 0.16 0.20 0.32 0.39 0.47 0.57 0.73 0.81 0.95 1.10 1.06 0.93 0.83 0.69 0.62 0.61 0.52 0.42 0.35 0.40 0.55 0.79 1.03 1.18 1.30 1.33 1.26 1.06
0.08 0.05 0.03 0.04 0.06 0.07 0.02 0.00 0.01 0.03 0.06 0.06 0.08 0.12 0.14 0.16 0.24 0.41 0.55 0.66 0.77 0.90 0.86 0.93 1.12 1.17 1.01 0.98 0.99 0.83 0.67 0.52 0.43 0.42 0.39 0.46 0.60 0.70 0.96 1.10 1.06 1.00 0.96

GEFSMA_prec_meanprecacc_072.txt.gz
Total_Precipitation_Accumulation
0.07 0.10 0.10 0.12 0.15 0.24 0.20 0.12 0.08 0.10 0.15 0.17 0.15 0.16 0.14 0.11 0.09 0.08 0.07 0.09 0.09 0.10 0.11 0.09 0.08 0.07 0.07 0.07 0.07 0.08 0.09 0.09 0.09 0.09 0.09 0.08 0.08 0.08 0.11 0.13 0.15 0.18 0.19
0.12 0.14 0.17 0.18 0.20 0.28 0.25 0.20 0.13 0.13 0.15 0.19 0.17 0.17 0.13 0.13 0.12 0.09 0.08 0.09 0.09 0.09 0.09 0.09 0.10 0.10 0.10 0.11 0.11 0.11 0.12 0.11 0.12 0.13 0.14 0.13 0.13 0.13 0.13 0.14 0.16 0.17 0.16
0.18 0.22 0.25 0.25 0.22 0.21 0.19 0.20 0.17 0.16 0.19 0.19 0.17 0.17 0.13 0.09 0.08 0.09 0.10 0.11 0.13 0.13 0.11 0.11 0.12 0.12 0.12 0.13 0.15 0.17 0.17 0.16 0.16 0.18 0.19 0.19 0.18 0.18 0.17 0.18 0.18 0.18 0.17
0.20 0.26 0.27 0.30 0.28 0.24 0.26 0.27 0.25 0.23 0.24 0.27 0.24 0.21 0.19 0.17 0.13 0.12 0.11 0.11 0.12 0.13 0.13 0.12 0.12 0.11 0.12 0.13 0.14 0.17 0.20 0.22 0.22 0.22 0.23 0.25 0.24 0.22 0.20 0.19 0.20 0.19 0.20
0.24 0.30 0.37 0.39 0.36 0.34 0.36 0.37 0.37 0.34 0.31 0.29 0.24 0.23 0.20 0.17 0.12 0.10 0.09 0.09 0.09 0.09 0.10 0.12 0.12 0.13 0.13 0.13 0.13 0.14 0.17 0.22 0.25 0.24 0.24 0.27 0.27 0.26 0.24 0.22 0.22 0.22 0.23
0.42 0.50 0.55 0.58 0.55 0.55 0.60 0.55 0.46 0.40 0.32 0.28 0.22 0.17 0.14 0.10 0.09 0.07 0.06 0.06 0.06 0.05 0.05 0.06 0.06 0.08 0.12 0.15 0.15 0.16 0.20 0.25 0.29 0.30 0.28 0.31 0.33 0.33 0.27 0.24 0.24 0.24 0.24
0.85 0.92 0.92 0.86 0.78 0.71 0.64 0.59 0.55 0.46 0.35 0.27 0.23 0.18 0.13 0.10 0.08 0.07 0.05 0.04 0.03 0.03 0.03 0.03 0.03 0.04 0.07 0.13 0.16 0.18 0.21 0.22 0.26 0.29 0.29 0.31 0.35 0.37 0.34 0.30 0.28 0.27 0.26
1.32 1.26 1.17 1.04 0.89 0.77 0.64 0.53 0.46 0.39 0.30 0.23 0.20 0.17 0.12 0.09 0.06 0.04 0.03 0.02 0.02 0.01 0.01 0.01 0.01 0.02 0.03 0.04 0.07 0.11 0.15 0.14 0.15 0.20 0.25 0.27 0.29 0.33 0.35 0.34 0.33 0.32 0.31
1.37 1.25 1.10 0.96 0.83 0.68 0.55 0.45 0.37 0.30 0.24 0.19 0.16 0.17 0.16 0.10 0.05 0.03 0.02 0.02 0.02 0.02 0.01 0.01 0.01 0.01 0.01 0.01 0.02 0.03 0.08 0.10 0.08 0.10 0.15 0.20 0.24 0.27 0.29 0.30 0.30 0.31 0.33
1.10 0.96 0.86 0.76 0.65 0.54 0.46 0.39 0.32 0.26 0.22 0.20 0.17 0.14 0.13 0.11 0.10 0.07 0.03 0.02 0.02 0.02 0.02 0.01 0.01 0.01 0.01 0.01 0.02 0.02 0.04 0.07 0.08 0.08 0.11 0.15 0.18 0.20 0.22 0.25 0.28 0.32 0.34
0.90 0.78 0.68 0.55 0.45 0.37 0.30 0.23 0.19 0.19 0.18 0.15 0.11 0.09 0.08 0.07 0.08 0.10 0.06 0.02 0.01 0.01 0.01 0.01 0.01 0.01 0.01 0.01 0.02 0.02 0.04 0.07 0.09 0.11 0.11 0.11 0.13 0.16 0.18 0.22 0.27 0.33 0.39
0.78 0.63 0.48 0.37 0.30 0.24 0.19 0.17 0.15 0.13 0.11 0.10 0.09 0.08 0.09 0.10 0.10 0.12 0.10 0.05 0.03 0.01 0.01 0.01 0.01 0.01 0.01 0.01 0.02 0.04 0.07 0.09 0.10 0.09 0.09 0.10 0.12 0.15 0.17 0.21 0.29 0.38 0.48
0.50 0.38 0.29 0.22 0.18 0.15 0.12 0.09 0.09 0.09 0.09 0.10 0.10 0.10 0.09 0.09 0.10 0.12 0.12 0.08 0.06 0.03 0.02 0.01 0.01 0.02 0.03 0.05 0.11 0.10 0.11 0.10 0.09 0.07 0.08 0.11 0.15 0.19 0.20 0.23 0.25 0.31 0.39
0.32 0.26 0.20 0.16 0.13 0.10 0.09 0.09 0.08 0.08 0.09 0.10 0.10 0.11 0.11 0.09 0.10 0.12 0.16 0.19 0.16 0.09 0.06 0.05 0.04 0.06 0.12 0.16 0.20 0.14 0.22 0.15 0.11 0.12 0.14 0.20 0.24 0.32 0.32 0.27 0.23 0.26 0.28
0.23 0.21 0.19 0.16 0.14 0.12 0.12 0.12 0.12 0.12 0.13 0.12 0.11 0.11 0.12 0.11 0.12 0.14 0.18 0.25 0.31 0.24 0.15 0.08 0.08 0.12 0.21 0.24 0.26 0.30 0.37 0.27 0.24 0.30 0.29 0.32 0.36 0.46 0.49 0.41 0.33 0.27 0.24
0.18 0.16 0.15 0.14 0.12 0.10 0.11 0.13 0.12 0.12 0.12 0.12 0.12 0.12 0.12 0.11 0.11 0.12 0.14 0.18 0.27 0.34 0.28 0.13 0.10 0.15 0.21 0.21 0.26 0.34 0.36 0.33 0.37 0.60 0.72 0.64 0.58 0.70 0.77 0.64 0.49 0.39 0.33
0.14 0.13 0.12 0.11 0.11 0.11 0.12 0.13 0.13 0.11 0.11 0.11 0.10 0.11 0.11 0.12 0.14 0.14 0.16 0.20 0.25 0.35 0.39 0.22 0.15 0.18 0.25 0.28 0.32 0.38 0.39 0.42 0.54 0.95 1.22 1.40 1.14 1.02 1.06 0.92 0.73 0.55 0.45
0.11 0.11 0.11 0.12 0.12 0.12 0.13 0.13 0.12 0.11 0.11 0.11 0.12 0.14 0.14 0.14 0.16 0.17 0.21 0.24 0.28 0.38 0.50 0.42 0.30 0.33 0.37 0.40 0.50 0.53 0.48 0.43 0.51 0.94 1.32 1.66 1.62 1.41 1.41 1.24 1.02 0.75 0.57
0.12 0.14 0.15 0.17 0.15 0.13 0.13 0.13 0.13 0.12 0.12 0.13 0.15 0.16 0.17 0.20 0.21 0.24 0.31 0.35 0.38 0.42 0.54 0.57 0.45 0.47 0.52 0.59 0.71 0.66 0.56 0.52 0.44 0.72 1.19 1.53 1.73 1.80 1.90 1.75 1.43 1.04 0.74
0.17 0.19 0.18 0.16 0.15 0.13 0.11 0.10 0.09 0.09 0.11 0.13 0.16 0.20 0.23 0.28 0.32 0.37 0.38 0.38 0.43 0.49 0.54 0.61 0.57 0.60 0.65 0.71 0.75 0.75 0.62 0.53 0.50 0.58 1.01 1.51 1.84 1.92 2.12 2.25 1.96 1.45 1.01
0.20 0.19 0.17 0.14 0.13 0.10 0.07 0.05 0.04 0.06 0.10 0.13 0.16 0.19 0.23 0.32 0.38 0.37 0.35 0.36 0.46 0.57 0.59 0.67 0.68 0.66 0.64 0.71 0.73 0.65 0.56 0.48 0.42 0.48 0.68 1.13 1.80 2.11 2.16 2.26 2.22 1.74 1.27
0.20 0.17 0.13 0.10 0.09 0.05 0.05 0.05 0.05 0.07 0.12 0.16 0.19 0.19 0.19 0.21 0.21 0.22 0.29 0.34 0.44 0.61 0.82 0.92 0.81 0.69 0.56 0.55 0.58 0.56 0.56 0.52 0.44 0.34 0.41 0.72 1.33 1.98 2.23 2.31 2.29 1.76 1.27
0.16 0.12 0.09 0.06 0.06 0.05 0.03 0.04 0.05 0.07 0.13 0.20 0.24 0.22 0.16 0.13 0.15 0.19 0.24 0.29 0.39 0.56 0.79 1.04 1.01 0.73 0.65 0.59 0.62 0.62 0.60 0.62 0.54 0.36 0.41 0.62 1.05 1.70 2.03 2.18 2.09 1.54 1.13
0.11 0.09 0.07 0.05 0.07 0.04 0.02 0.02 0.03 0.06 0.12 0.17 0.20 0.20 0.20 0.18 0.19 0.23 0.24 0.27 0.36 0.52 0.68 0.77 0.98 0.81 0.65 0.62 0.62 0.61 0.61 0.58 0.46 0.33 0.40 0.60 0.94 1.44 1.60 1.70 1.74 1.39 1.07
0.10 0.07 0.04 0.04 0.06 0.06 0.02 0.01 0.02 0.04 0.08 0.12 0.14 0.15 0.15 0.16 0.20 0.32 0.39 0.47 0.57 0.73 0.81 0.95 1.10 1.06 0.94 0.84 0.70 0.63 0.62 0.53 0.43 0.35 0.40 0.55 0.79 1.03 1.18 1.30 1.33 1.26 1.06
0.08 0.05 0.03 0.05 0.07 0.08 0.02 0.00 0.01 0.03 0.06 0.06 0.08 0.13 0.14 0.16 0.24 0.41 0.55 0.66 0.77 0.90 0.86 0.93 1.13 1.18 1.02 0.99 1.00 0.83 0.68 0.54 0.45 0.43 0.40 0.47 0.61 0.71 0.97 1.10 1.06 1.00 0.97

GEFSMA_prec_meanprecacc_078.txt.gz
Total_Precipitation_Accumulation
0.07 0.10 0.11 0.13 0.16 0.26 0.21 0.13 0.10 0.11 0.16 0.19 0.17 0.19 0.16 0.13 0.11 0.11 0.10 0.12 0.11 0.14 0.17 0.17 0.16 0.15 0.13 0.12 0.11 0.12 0.13 0.12 0.12 0.12 0.12 0.11 0.10 0.11 0.13 0.15 0.18 0.20 0.21
0.13 0.15 0.18 0.19 0.21 0.30 0.28 0.23 0.15 0.16 0.18 0.22 0.20 0.20 0.17 0.18 0.16 0.12 0.13 0.14 0.13 0.14 0.14 0.16 0.18 0.17 0.16 0.17 0.16 0.16 0.17 0.16 0.17 0.17 0.16 0.15 0.15 0.15 0.15 0.17 0.18 0.19 0.18
0.20 0.23 0.27 0.27 0.26 0.26 0.24 0.25 0.21 0.20 0.23 0.22 0.20 0.22 0.19 0.15 0.13 0.15 0.16 0.17 0.17 0.17 0.16 0.16 0.18 0.18 0.18 0.18 0.20 0.22 0.24 0.22 0.21 0.22 0.22 0.21 0.20 0.20 0.19 0.19 0.19 0.20 0.19
0.22 0.27 0.30 0.34 0.36 0.34 0.33 0.33 0.30 0.28 0.28 0.30 0.28 0.25 0.22 0.20 0.17 0.16 0.15 0.16 0.16 0.16 0.16 0.16 0.16 0.16 0.17 0.18 0.20 0.22 0.25 0.27 0.27 0.26 0.27 0.27 0.26 0.23 0.21 0.21 0.21 0.21 0.22
0.27 0.35 0.43 0.48 0.47 0.46 0.46 0.44 0.43 0.39 0.35 0.32 0.28 0.27 0.24 0.20 0.17 0.14 0.12 0.12 0.12 0.11 0.12 0.15 0.16 0.17 0.17 0.17 0.17 0.18 0.21 0.25 0.28 0.27 0.27 0.29 0.29 0.27 0.25 0.23 0.23 0.24 0.25
0.53 0.63 0.69 0.74 0.70 0.67 0.71 0.65 0.54 0.46 0.37 0.32 0.26 0.21 0.16 0.13 0.11 0.10 0.10 0.09 0.08 0.07 0.07 0.07 0.09 0.10 0.15 0.18 0.19 0.19 0.23 0.28 0.31 0.32 0.30 0.33 0.36 0.35 0.29 0.26 0.25 0.25 0.25
1.06 1.16 1.16 1.09 0.98 0.88 0.79 0.70 0.64 0.53 0.41 0.32 0.27 0.20 0.15 0.12 0.09 0.08 0.07 0.05 0.04 0.04 0.03 0.03 0.04 0.05 0.09 0.15 0.18 0.20 0.22 0.24 0.29 0.32 0.32 0.34 0.38 0.39 0.37 0.33 0.30 0.28 0.27
1.68 1.59 1.48 1.34 1.16 1.00 0.85 0.70 0.60 0.50 0.39 0.30 0.25 0.21 0.14 0.10 0.07 0.05 0.04 0.03 0.02 0.02 0.02 0.02 0.02 0.02 0.03 0.05 0.07 0.13 0.17 0.16 0.17 0.23 0.28 0.30 0.31 0.35 0.36 0.35 0.34 0.33 0.32
1.79 1.64 1.46 1.29 1.14 0.97 0.83 0.69 0.56 0.44 0.34 0.27 0.22 0.21 0.19 0.12 0.06 0.04 0.03 0.03 0.02 0.02 0.02 0.01 0.01 0.01 0.01 0.01 0.02 0.04 0.10 0.12 0.10 0.12 0.18 0.24 0.27 0.29 0.30 0.31 0.30 0.32 0.35
1.49 1.33 1.20 1.08 0.96 0.84 0.72 0.62 0.53 0.44 0.36 0.30 0.24 0.18 0.16 0.13 0.12 0.08 0.04 0.03 0.02 0.02 0.02 0.02 0.01 0.01 0.01 0.01 0.02 0.02 0.05 0.08 0.09 0.09 0.13 0.17 0.20 0.23 0.25 0.26 0.29 0.33 0.35
1.26 1.12 1.00 0.85 0.71 0.59 0.49 0.39 0.33 0.31 0.29 0.24 0.17 0.13 0.10 0.09 0.09 0.11 0.07 0.03 0.02 0.01 0.01 0.01 0.01 0.01 0.01 0.01 0.02 0.03 0.05 0.08 0.10 0.12 0.12 0.13 0.15 0.18 0.20 0.24 0.29 0.36 0.41
1.13 0.93 0.73 0.60 0.51 0.42 0.35 0.31 0.27 0.23 0.20 0.18 0.15 0.13 0.12 0.13 0.13 0.14 0.12 0.06 0.04 0.02 0.02 0.01 0.01 0.01 0.01 0.02 0.03 0.05 0.08 0.10 0.11 0.11 0.11 0.12 0.14 0.17 0.20 0.24 0.32 0.41 0.51
0.79 0.65 0.52 0.43 0.37 0.32 0.27 0.25 0.23 0.20 0.18 0.18 0.17 0.16 0.15 0.14 0.13 0.14 0.15 0.10 0.08 0.04 0.03 0.02 0.02 0.02 0.03 0.05 0.11 0.11 0.12 0.11 0.10 0.08 0.09 0.12 0.15 0.19 0.21 0.24 0.26 0.33 0.40
0.53 0.42 0.33 0.28 0.25 0.22 0.22 0.23 0.23 0.22 0.20 0.19 0.17 0.18 0.16 0.14 0.13 0.15 0.18 0.20 0.17 0.10 0.07 0.06 0.05 0.07 0.12 0.16 0.20 0.14 0.22 0.15 0.12 0.12 0.14 0.20 0.24 0.32 0.32 0.27 0.24 0.27 0.29
0.37 0.30 0.26 0.24 0.22 0.20 0.20 0.20 0.20 0.20 0.21 0.20 0.18 0.17 0.16 0.14 0.13 0.15 0.19 0.27 0.33 0.25 0.16 0.09 0.09 0.13 0.21 0.24 0.26 0.30 0.37 0.27 0.24 0.30 0.30 0.32 0.37 0.46 0.49 0.41 0.33 0.28 0.25
0.27 0.24 0.23 0.22 0.20 0.18 0.19 0.21 0.21 0.21 0.20 0.19 0.17 0.15 0.14 0.12 0.12 0.12 0.14 0.18 0.27 0.34 0.29 0.13 0.10 0.15 0.21 0.21 0.26 0.34 0.36 0.33 0.38 0.61 0.72 0.64 0.58 0.71 0.77 0.64 0.50 0.39 0.34
0.20 0.20 0.20 0.19 0.19 0.19 0.20 0.21 0.20 0.17 0.15 0.14 0.13 0.13 0.13 0.13 0.14 0.14 0.16 0.20 0.25 0.35 0.40 0.23 0.15 0.18 0.25 0.28 0.33 0.38 0.39 0.42 0.54 0.95 1.22 1.41 1.15 1.02 1.06 0.92 0.74 0.56 0.46
0.15 0.15 0.15 0.16 0.16 0.16 0.16 0.15 0.14 0.12 0.13 0.12 0.13 0.15 0.14 0.15 0.16 0.17 0.21 0.24 0.28 0.38 0.50 0.43 0.30 0.33 0.37 0.40 0.50 0.53 0.48 0.43 0.51 0.94 1.32 1.66 1.62 1.41 1.42 1.24 1.02 0.76 0.57
0.13 0.15 0.16 0.18 0.16 0.14 0.13 0.13 0.13 0.12 0.12 0.13 0.15 0.17 0.17 0.20 0.21 0.24 0.31 0.36 0.38 0.42 0.54 0.57 0.45 0.47 0.52 0.59 0.71 0.66 0.56 0.52 0.44 0.72 1.19 1.53 1.73 1.80 1.90 1.75 1.43 1.04 0.74
0.18 0.20 0.19 0.17 0.15 0.13 0.11 0.10 0.09 0.09 0.11 0.13 0.16 0.20 0.23 0.28 0.32 0.37 0.39 0.38 0.43 0.49 0.54 0.61 0.57 0.60 0.65 0.71 0.75 0.75 0.62 0.53 0.50 0.58 1.01 1.51 1.84 1.92 2.12 2.25 1.96 1.45 1.02
0.20 0.20 0.17 0.15 0.13 0.11 0.07 0.05 0.04 0.06 0.10 0.13 0.16 0.19 0.24 0.32 0.39 0.37 0.36 0.37 0.46 0.57 0.59 0.67 0.69 0.66 0.64 0.71 0.73 0.65 0.56 0.48 0.42 0.48 0.68 1.13 1.80 2.11 2.16 2.26 2.22 1.74 1.27
0.21 0.17 0.13 0.10 0.09 0.05 0.05 0.05 0.05 0.07 0.12 0.16 0.19 0.19 0.19 0.21 0.22 0.22 0.29 0.35 0.44 0.61 0.82 0.92 0.81 0.69 0.56 0.55 0.59 0.56 0.57 0.52 0.44 0.34 0.41 0.72 1.33 1.98 2.23 2.31 2.29 1.77 1.27
0.16 0.13 0.09 0.06 0.06 0.05 0.03 0.04 0.05 0.07 0.13 0.20 0.24 0.22 0.16 0.13 0.15 0.19 0.24 0.29 0.39 0.57 0.80 1.04 1.02 0.74 0.65 0.59 0.63 0.62 0.61 0.63 0.55 0.37 0.41 0.62 1.05 1.70 2.03 2.18 2.09 1.54 1.13
0.11 0.09 0.07 0.05 0.07 0.04 0.02 0.02 0.03 0.06 0.12 0.17 0.20 0.20 0.20 0.18 0.19 0.23 0.24 0.27 0.36 0.53 0.68 0.77 0.98 0.81 0.65 0.62 0.63 0.62 0.63 0.60 0.47 0.34 0.40 0.61 0.94 1.44 1.60 1.70 1.75 1.39 1.07
0.10 0.07 0.04 0.04 0.06 0.06 0.02 0.01 0.02 0.04 0.08 0.12 0.14 0.15 0.15 0.16 0.20 0.32 0.40 0.47 0.57 0.73 0.82 0.96 1.10 1.07 0.94 0.85 0.71 0.64 0.63 0.55 0.45 0.36 0.41 0.55 0.79 1.03 1.18 1.30 1.33 1.26 1.06
0.08 0.05 0.03 0.05 0.07 0.08 0.02 0.00 0.01 0.03 0.06 0.06 0.08 0.13 0.15 0.16 0.25 0.41 0.56 0.67 0.78 0.91 0.87 0.94 1.13 1.18 1.03 1.01 1.02 0.85 0.69 0.56 0.47 0.45 0.41 0.48 0.62 0.71 0.98 1.10 1.06 1.00 0.97

GEFSMA_prec_meanprecacc_084.txt.gz
Total_Precipitation_Accumulation
0.08 0.10 0.11 0.14 0.18 0.29 0.25 0.17 0.13 0.13 0.18 0.20 0.18 0.20 0.18 0.14 0.12 0.11 0.13 0.15 0.14 0.17 0.23 0.25 0.25 0.22 0.19 0.17 0.16 0.17 0.18 0.17 0.16 0.16 0.15 0.14 0.13 0.13 0.15 0.17 0.19 0.21 0.22
0.14 0.16 0.19 0.21 0.24 0.35 0.34 0.29 0.20 0.19 0.21 0.25 0.23 0.22 0.19 0.19 0.17 0.13 0.15 0.17 0.16 0.16 0.19 0.23 0.26 0.25 0.22 0.22 0.22 0.22 0.22 0.20 0.21 0.21 0.18 0.17 0.17 0.16 0.16 0.18 0.19 0.20 0.19
0.21 0.25 0.29 0.29 0.29 0.31 0.31 0.33 0.28 0.25 0.26 0.25 0.23 0.25 0.21 0.16 0.14 0.16 0.19 0.20 0.20 0.21 0.20 0.21 0.24 0.26 0.25 0.25 0.27 0.28 0.29 0.28 0.27 0.26 0.24 0.24 0.22 0.21 0.20 0.21 0.21 0.21 0.20
0.26 0.32 0.35 0.39 0.41 0.40 0.42 0.45 0.40 0.34 0.34 0.35 0.33 0.29 0.25 0.23 0.19 0.18 0.18 0.19 0.22 0.22 0.22 0.21 0.22 0.23 0.24 0.25 0.27 0.29 0.31 0.33 0.33 0.31 0.30 0.30 0.28 0.25 0.23 0.22 0.23 0.23 0.24
0.33 0.44 0.52 0.58 0.57 0.55 0.57 0.58 0.56 0.50 0.44 0.40 0.34 0.31 0.27 0.23 0.19 0.17 0.16 0.17 0.17 0.16 0.17 0.20 0.21 0.22 0.22 0.22 0.22 0.24 0.27 0.32 0.34 0.32 0.30 0.32 0.31 0.29 0.26 0.25 0.25 0.25 0.26
0.63 0.76 0.83 0.89 0.85 0.80 0.83 0.77 0.67 0.60 0.49 0.42 0.33 0.26 0.21 0.16 0.14 0.15 0.14 0.13 0.12 0.11 0.09 0.10 0.12 0.14 0.18 0.21 0.21 0.22 0.28 0.33 0.35 0.35 0.34 0.36 0.39 0.37 0.31 0.28 0.26 0.27 0.26
1.25 1.36 1.37 1.29 1.16 1.04 0.94 0.85 0.77 0.65 0.54 0.45 0.38 0.30 0.22 0.16 0.14 0.12 0.10 0.09 0.08 0.07 0.06 0.06 0.07 0.08 0.12 0.17 0.20 0.22 0.25 0.28 0.33 0.36 0.37 0.39 0.43 0.43 0.39 0.34 0.32 0.29 0.28
1.94 1.85 1.75 1.62 1.44 1.24 1.05 0.87 0.74 0.63 0.52 0.43 0.38 0.34 0.26 0.18 0.12 0.08 0.07 0.06 0.05 0.04 0.04 0.04 0.04 0.05 0.05 0.07 0.09 0.15 0.19 0.19 0.21 0.27 0.33 0.35 0.36 0.39 0.40 0.38 0.37 0.35 0.34
2.03 1.90 1.76 1.63 1.44 1.24 1.06 0.90 0.74 0.59 0.48 0.38 0.33 0.34 0.32 0.23 0.14 0.07 0.05 0.05 0.04 0.04 0.04 0.03 0.03 0.03 0.03 0.03 0.04 0.06 0.12 0.15 0.14 0.16 0.23 0.28 0.32 0.34 0.35 0.36 0.35 0.36 0.37
1.79 1.63 1.56 1.47 1.35 1.15 0.95 0.80 0.67 0.56 0.50 0.44 0.37 0.29 0.24 0.19 0.18 0.13 0.07 0.05 0.04 0.04 0.04 0.04 0.03 0.03 0.03 0.03 0.03 0.04 0.07 0.10 0.11 0.13 0.17 0.21 0.24 0.27 0.29 0.31 0.34 0.38 0.40
1.58 1.46 1.38 1.23 1.05 0.88 0.72 0.57 0.47 0.44 0.41 0.35 0.27 0.22 0.18 0.14 0.13 0.15 0.11 0.05 0.04 0.03 0.03 0.03 0.03 0.03 0.02 0.02 0.03 0.05 0.08 0.09 0.12 0.14 0.15 0.16 0.18 0.21 0.24 0.28 0.34 0.40 0.46
1.47 1.26 1.04 0.87 0.74 0.61 0.50 0.44 0.39 0.34 0.29 0.26 0.22 0.19 0.17 0.17 0.16 0.17 0.16 0.10 0.07 0.05 0.04 0.04 0.03 0.03 0.03 0.03 0.05 0.08 0.10 0.12 0.13 0.13 0.13 0.14 0.16 0.19 0.22 0.26 0.34 0.45 0.56
1.09 0.90 0.74 0.63 0.55 0.48 0.41 0.36 0.32 0.28 0.25 0.24 0.22 0.20 0.18 0.18 0.17 0.18 0.19 0.15 0.12 0.08 0.06 0.05 0.04 0.04 0.05 0.08 0.13 0.14 0.14 0.13 0.11 0.10 0.10 0.14 0.18 0.21 0.22 0.25 0.28 0.34 0.42
0.72 0.58 0.48 0.42 0.36 0.31 0.30 0.31 0.31 0.29 0.26 0.24 0.22 0.21 0.20 0.18 0.18 0.20 0.23 0.26 0.23 0.15 0.11 0.08 0.06 0.08 0.13 0.17 0.21 0.15 0.23 0.16 0.13 0.13 0.15 0.21 0.26 0.33 0.33 0.28 0.24 0.28 0.30
0.53 0.44 0.38 0.35 0.31 0.28 0.25 0.24 0.24 0.24 0.25 0.24 0.23 0.22 0.21 0.19 0.19 0.21 0.25 0.33 0.38 0.30 0.19 0.11 0.11 0.13 0.22 0.25 0.27 0.31 0.39 0.28 0.25 0.30 0.31 0.33 0.38 0.47 0.50 0.42 0.34 0.28 0.26
0.43 0.39 0.37 0.34 0.30 0.26 0.25 0.25 0.24 0.24 0.23 0.22 0.21 0.19 0.17 0.15 0.15 0.15 0.17 0.21 0.30 0.37 0.31 0.15 0.11 0.16 0.22 0.22 0.26 0.35 0.37 0.34 0.38 0.62 0.74 0.66 0.60 0.72 0.78 0.65 0.50 0.40 0.35
0.34 0.33 0.31 0.29 0.27 0.26 0.25 0.25 0.22 0.19 0.17 0.15 0.14 0.14 0.14 0.15 0.16 0.16 0.18 0.22 0.26 0.37 0.42 0.25 0.17 0.20 0.26 0.29 0.34 0.39 0.40 0.43 0.55 0.96 1.22 1.41 1.15 1.03 1.07 0.93 0.74 0.56 0.46
0.27 0.26 0.23 0.23 0.21 0.19 0.18 0.17 0.15 0.13 0.13 0.13 0.14 0.15 0.15 0.15 0.17 0.18 0.22 0.25 0.29 0.39 0.52 0.44 0.31 0.34 0.38 0.41 0.51 0.54 0.49 0.44 0.52 0.94 1.32 1.66 1.62 1.41 1.42 1.24 1.03 0.76 0.57
0.20 0.20 0.19 0.20 0.17 0.15 0.14 0.14 0.14 0.12 0.12 0.13 0.15 0.17 0.17 0.20 0.22 0.25 0.33 0.37 0.40 0.44 0.56 0.59 0.47 0.48 0.53 0.60 0.73 0.68 0.57 0.54 0.45 0.73 1.19 1.53 1.73 1.80 1.90 1.75 1.43 1.05 0.74
0.20 0.21 0.19 0.18 0.16 0.13 0.11 0.10 0.09 0.09 0.11 0.13 0.16 0.20 0.24 0.29 0.34 0.39 0.40 0.41 0.46 0.52 0.57 0.64 0.60 0.62 0.67 0.73 0.78 0.78 0.65 0.56 0.52 0.59 1.02 1.52 1.85 1.92 2.12 2.25 1.96 1.45 1.02
0.21 0.20 0.18 0.15 0.13 0.11 0.07 0.05 0.04 0.06 0.10 0.13 0.16 0.19 0.24 0.33 0.39 0.38 0.37 0.39 0.49 0.60 0.63 0.70 0.71 0.68 0.67 0.75 0.77 0.68 0.59 0.50 0.44 0.50 0.71 1.16 1.83 2.14 2.19 2.29 2.23 1.74 1.27
0.22 0.18 0.14 0.11 0.09 0.05 0.05 0.05 0.05 0.07 0.12 0.17 0.20 0.20 0.19 0.22 0.22 0.22 0.29 0.35 0.45 0.63 0.84 0.94 0.84 0.73 0.60 0.60 0.63 0.60 0.60 0.55 0.46 0.37 0.43 0.74 1.36 2.02 2.27 2.34 2.30 1.77 1.27
0.17 0.13 0.10 0.07 0.07 0.05 0.03 0.04 0.05 0.07 0.14 0.21 0.24 0.22 0.17 0.13 0.16 0.20 0.25 0.30 0.41 0.58 0.80 1.06 1.05 0.78 0.69 0.64 0.67 0.66 0.65 0.67 0.59 0.40 0.45 0.65 1.07 1.73 2.06 2.19 2.09 1.54 1.13
0.12 0.10 0.07 0.05 0.07 0.04 0.02 0.02 0.03 0.06 0.12 0.18 0.21 0.21 0.21 0.20 0.20 0.24 0.25 0.29 0.39 0.56 0.70 0.79 1.02 0.84 0.67 0.65 0.66 0.65 0.67 0.63 0.50 0.38 0.45 0.64 0.97 1.48 1.62 1.73 1.76 1.39 1.07
0.11 0.08 0.05 0.05 0.07 0.06 0.02 0.01 0.02 0.04 0.08 0.12 0.15 0.16 0.15 0.18 0.21 0.32 0.40 0.50 0.60 0.77 0.83 0.96 1.12 1.08 0.96 0.86 0.72 0.67 0.67 0.59 0.49 0.40 0.44 0.59 0.83 1.06 1.21 1.34 1.36 1.27 1.07
0.08 0.06 0.04 0.05 0.07 0.08 0.02 0.00 0.01 0.03 0.06 0.07 0.10 0.15 0.16 0.16 0.25 0.41 0.57 0.70 0.81 0.94 0.89 0.97 1.17 1.22 1.07 1.04 1.04 0.88 0.74 0.60 0.52 0.50 0.45 0.52 0.65 0.75 1.00 1.12 1.08 1.03 1.00

GEFSMA_prec_meanprecacc_090.txt.gz
Total_Precipitation_Accumulation
0.11 0.14 0.14 0.18 0.21 0.32 0.30 0.22 0.18 0.18 0.21 0.23 0.20 0.20 0.18 0.14 0.12 0.13 0.16 0.18 0.15 0.19 0.25 0.29 0.29 0.27 0.24 0.22 0.22 0.23 0.24 0.22 0.21 0.20 0.19 0.17 0.16 0.16 0.18 0.20 0.22 0.23 0.24
0.18 0.20 0.23 0.26 0.27 0.38 0.39 0.33 0.24 0.24 0.24 0.27 0.25 0.23 0.20 0.20 0.18 0.16 0.20 0.24 0.21 0.19 0.21 0.27 0.30 0.30 0.28 0.28 0.28 0.28 0.28 0.26 0.27 0.26 0.23 0.21 0.20 0.20 0.19 0.21 0.22 0.22 0.21
0.26 0.31 0.35 0.36 0.34 0.36 0.36 0.36 0.32 0.29 0.30 0.28 0.25 0.26 0.23 0.19 0.18 0.21 0.25 0.29 0.29 0.25 0.23 0.25 0.29 0.31 0.32 0.32 0.34 0.33 0.35 0.35 0.34 0.32 0.30 0.28 0.25 0.24 0.23 0.23 0.23 0.23 0.23
0.31 0.40 0.43 0.48 0.50 0.48 0.49 0.52 0.46 0.41 0.41 0.42 0.38 0.34 0.29 0.27 0.23 0.22 0.21 0.24 0.29 0.31 0.30 0.27 0.27 0.29 0.31 0.32 0.35 0.37 0.39 0.40 0.40 0.37 0.36 0.34 0.31 0.28 0.25 0.24 0.24 0.24 0.25
0.42 0.55 0.65 0.70 0.68 0.65 0.66 0.64 0.67 0.61 0.57 0.50 0.42 0.39 0.33 0.29 0.25 0.22 0.21 0.23 0.25 0.27 0.31 0.31 0.30 0.29 0.29 0.30 0.30 0.32 0.36 0.41 0.42 0.38 0.36 0.37 0.36 0.33 0.29 0.27 0.26 0.27 0.27
0.72 0.87 0.95 1.00 0.95 0.90 0.93 0.87 0.80 0.72 0.62 0.56 0.43 0.35 0.28 0.22 0.22 0.24 0.23 0.19 0.17 0.17 0.18 0.20 0.22 0.25 0.28 0.29 0.28 0.29 0.36 0.42 0.44 0.43 0.41 0.43 0.45 0.42 0.34 0.30 0.28 0.28 0.28
1.35 1.48 1.51 1.43 1.30 1.17 1.06 0.96 0.89 0.77 0.67 0.60 0.54 0.43 0.32 0.25 0.22 0.21 0.18 0.15 0.13 0.12 0.12 0.15 0.17 0.19 0.22 0.26 0.26 0.27 0.31 0.36 0.42 0.46 0.46 0.47 0.49 0.48 0.44 0.39 0.36 0.33 0.31
2.07 2.00 1.92 1.79 1.58 1.38 1.17 0.99 0.87 0.77 0.66 0.58 0.52 0.47 0.39 0.29 0.20 0.15 0.14 0.13 0.12 0.11 0.09 0.09 0.11 0.12 0.12 0.14 0.15 0.19 0.23 0.23 0.26 0.33 0.39 0.42 0.45 0.47 0.48 0.46 0.44 0.42 0.40
2.18 2.04 1.89 1.75 1.56 1.36 1.18 1.03 0.87 0.73 0.61 0.51 0.46 0.47 0.46 0.37 0.26 0.16 0.13 0.12 0.11 0.10 0.09 0.07 0.07 0.07 0.08 0.09 0.11 0.12 0.18 0.20 0.19 0.22 0.30 0.35 0.39 0.41 0.42 0.44 0.44 0.45 0.47
1.91 1.76 1.69 1.60 1.47 1.29 1.09 0.93 0.79 0.68 0.62 0.56 0.48 0.40 0.35 0.30 0.30 0.24 0.18 0.14 0.12 0.10 0.09 0.08 0.07 0.08 0.09 0.09 0.12 0.14 0.16 0.18 0.19 0.19 0.24 0.29 0.32 0.34 0.37 0.39 0.42 0.47 0.49
1.71 1.58 1.50 1.36 1.19 1.03 0.88 0.73 0.62 0.57 0.53 0.47 0.39 0.33 0.30 0.26 0.25 0.27 0.22 0.14 0.10 0.08 0.07 0.08 0.08 0.08 0.08 0.08 0.09 0.11 0.14 0.15 0.17 0.19 0.19 0.21 0.25 0.30 0.34 0.39 0.43 0.50 0.56
1.63 1.43 1.22 1.06 0.92 0.77 0.65 0.55 0.49 0.44 0.41 0.38 0.34 0.32 0.30 0.29 0.27 0.28 0.26 0.17 0.13 0.10 0.08 0.08 0.08 0.08 0.08 0.08 0.09 0.13 0.15 0.17 0.18 0.17 0.17 0.19 0.21 0.27 0.32 0.37 0.45 0.55 0.66
1.25 1.06 0.89 0.76 0.68 0.61 0.52 0.44 0.38 0.34 0.31 0.31 0.30 0.29 0.27 0.25 0.24 0.26 0.28 0.22 0.18 0.13 0.10 0.08 0.07 0.08 0.08 0.11 0.17 0.17 0.18 0.17 0.15 0.14 0.14 0.18 0.22 0.27 0.29 0.32 0.35 0.41 0.50
0.86 0.69 0.58 0.50 0.43 0.38 0.36 0.36 0.36 0.34 0.32 0.31 0.29 0.29 0.28 0.25 0.24 0.26 0.29 0.31 0.28 0.18 0.14 0.11 0.09 0.11 0.16 0.20 0.25 0.19 0.25 0.19 0.15 0.16 0.17 0.23 0.28 0.36 0.36 0.32 0.29 0.32 0.35
0.65 0.53 0.47 0.43 0.38 0.34 0.31 0.30 0.30 0.32 0.32 0.32 0.31 0.30 0.29 0.26 0.24 0.25 0.28 0.36 0.41 0.33 0.23 0.15 0.13 0.15 0.24 0.27 0.29 0.33 0.40 0.30 0.27 0.32 0.32 0.35 0.39 0.50 0.52 0.45 0.37 0.31 0.28
0.53 0.48 0.45 0.42 0.37 0.34 0.33 0.33 0.33 0.33 0.32 0.30 0.28 0.25 0.22 0.19 0.18 0.18 0.20 0.24 0.32 0.40 0.34 0.18 0.14 0.18 0.24 0.23 0.28 0.36 0.38 0.35 0.40 0.63 0.75 0.67 0.61 0.74 0.81 0.69 0.55 0.45 0.40
0.39 0.39 0.37 0.35 0.34 0.34 0.33 0.33 0.30 0.26 0.23 0.21 0.18 0.17 0.17 0.17 0.18 0.17 0.19 0.23 0.28 0.39 0.44 0.27 0.19 0.22 0.28 0.31 0.35 0.41 0.41 0.45 0.57 0.97 1.23 1.42 1.16 1.04 1.08 0.94 0.77 0.59 0.50
0.31 0.30 0.28 0.28 0.26 0.25 0.24 0.22 0.20 0.18 0.17 0.16 0.16 0.17 0.16 0.16 0.18 0.19 0.23 0.26 0.31 0.41 0.54 0.46 0.33 0.36 0.40 0.43 0.54 0.57 0.50 0.45 0.53 0.95 1.33 1.67 1.63 1.42 1.42 1.24 1.03 0.76 0.58
0.23 0.23 0.22 0.22 0.20 0.18 0.17 0.16 0.16 0.15 0.14 0.15 0.16 0.18 0.18 0.21 0.23 0.27 0.35 0.39 0.42 0.45 0.59 0.61 0.49 0.50 0.55 0.62 0.75 0.70 0.59 0.57 0.46 0.73 1.20 1.54 1.74 1.81 1.91 1.75 1.43 1.05 0.74
0.21 0.21 0.20 0.18 0.16 0.14 0.12 0.11 0.10 0.10 0.11 0.14 0.17 0.21 0.24 0.30 0.35 0.40 0.41 0.43 0.47 0.53 0.59 0.66 0.63 0.65 0.70 0.76 0.81 0.81 0.67 0.59 0.55 0.60 1.04 1.53 1.86 1.93 2.13 2.26 1.97 1.46 1.02
0.22 0.21 0.19 0.16 0.14 0.11 0.08 0.05 0.05 0.07 0.11 0.14 0.17 0.20 0.25 0.33 0.39 0.38 0.37 0.39 0.50 0.62 0.64 0.72 0.74 0.71 0.69 0.78 0.80 0.71 0.62 0.52 0.47 0.53 0.73 1.18 1.86 2.18 2.24 2.32 2.25 1.75 1.28
0.23 0.18 0.15 0.11 0.09 0.06 0.05 0.05 0.05 0.07 0.13 0.18 0.21 0.21 0.20 0.23 0.22 0.23 0.29 0.35 0.46 0.64 0.85 0.95 0.86 0.76 0.63 0.64 0.67 0.62 0.62 0.58 0.49 0.39 0.45 0.75 1.38 2.05 2.31 2.38 2.32 1.77 1.27
0.19 0.15 0.12 0.08 0.08 0.05 0.03 0.04 0.05 0.07 0.15 0.22 0.26 0.24 0.19 0.15 0.17 0.22 0.26 0.31 0.43 0.59 0.81 1.07 1.08 0.81 0.73 0.67 0.70 0.68 0.68 0.70 0.62 0.43 0.47 0.67 1.10 1.77 2.09 2.20 2.10 1.54 1.13
0.14 0.12 0.09 0.07 0.09 0.05 0.02 0.02 0.03 0.06 0.14 0.19 0.22 0.22 0.24 0.23 0.21 0.24 0.25 0.31 0.45 0.61 0.73 0.80 1.04 0.87 0.69 0.66 0.68 0.67 0.69 0.66 0.54 0.43 0.48 0.67 1.01 1.51 1.65 1.77 1.77 1.39 1.07
0.13 0.09 0.06 0.07 0.09 0.07 0.02 0.02 0.02 0.05 0.10 0.14 0.17 0.18 0.16 0.20 0.21 0.32 0.41 0.53 0.66 0.83 0.85 0.97 1.12 1.08 0.96 0.86 0.72 0.67 0.70 0.64 0.54 0.45 0.49 0.62 0.86 1.09 1.24 1.39 1.39 1.27 1.07
0.10 0.07 0.05 0.06 0.09 0.09 0.02 0.00 0.01 0.04 0.07 0.10 0.15 0.20 0.17 0.17 0.25 0.41 0.57 0.73 0.85 0.97 0.91 1.00 1.22 1.28 1.13 1.09 1.05 0.89 0.77 0.65 0.58 0.55 0.50 0.55 0.70 0.78 1.02 1.14 1.12 1.07 1.04

GEFSMA_prec_meanprecacc_096.txt.gz
Total_Precipitation_Accumulation
0.22 0.22 0.21 0.22 0.24 0.35 0.33 0.24 0.20 0.19 0.22 0.25 0.23 0.24 0.22 0.18 0.17 0.17 0.22 0.27 0.22 0.26 0.34 0.37 0.37 0.36 0.32 0.29 0.27 0.28 0.29 0.26 0.26 0.24 0.21 0.19 0.18 0.19 0.21 0.22 0.24 0.25 0.25
0.23 0.25 0.28 0.30 0.30 0.43 0.46 0.37 0.28 0.27 0.27 0.30 0.28 0.28 0.24 0.25 0.26 0.26 0.30 0.33 0.30 0.28 0.31 0.36 0.38 0.38 0.36 0.35 0.35 0.34 0.34 0.32 0.33 0.32 0.27 0.24 0.23 0.23 0.22 0.24 0.26 0.25 0.24
0.32 0.36 0.40 0.40 0.37 0.40 0.43 0.40 0.35 0.35 0.36 0.31 0.29 0.31 0.29 0.25 0.25 0.31 0.38 0.41 0.41 0.37 0.34 0.34 0.38 0.40 0.42 0.42 0.43 0.41 0.41 0.42 0.40 0.38 0.35 0.32 0.30 0.28 0.26 0.26 0.27 0.27 0.26
0.37 0.46 0.48 0.52 0.54 0.51 0.53 0.55 0.50 0.45 0.46 0.46 0.41 0.37 0.34 0.33 0.30 0.32 0.34 0.36 0.42 0.42 0.40 0.37 0.39 0.40 0.42 0.43 0.47 0.51 0.51 0.50 0.48 0.45 0.44 0.42 0.37 0.33 0.29 0.28 0.27 0.27 0.28
0.52 0.64 0.71 0.75 0.73 0.70 0.71 0.69 0.71 0.65 0.60 0.53 0.45 0.43 0.37 0.34 0.33 0.33 0.36 0.41 0.42 0.42 0.46 0.46 0.43 0.40 0.40 0.41 0.41 0.43 0.47 0.52 0.53 0.50 0.48 0.48 0.45 0.40 0.35 0.32 0.31 0.31 0.31
0.83 0.97 1.03 1.07 1.03 0.96 0.98 0.92 0.84 0.76 0.65 0.58 0.46 0.39 0.33 0.29 0.30 0.34 0.38 0.35 0.30 0.29 0.29 0.30 0.31 0.32 0.35 0.37 0.38 0.39 0.46 0.52 0.54 0.53 0.53 0.55 0.55 0.50 0.41 0.37 0.34 0.33 0.32
1.47 1.59 1.60 1.52 1.38 1.25 1.13 1.03 0.95 0.82 0.70 0.64 0.58 0.47 0.35 0.29 0.28 0.27 0.26 0.24 0.21 0.20 0.20 0.22 0.24 0.26 0.29 0.34 0.35 0.37 0.43 0.48 0.54 0.58 0.59 0.60 0.61 0.59 0.53 0.47 0.42 0.39 0.36
2.22 2.16 2.07 1.91 1.68 1.46 1.24 1.06 0.93 0.82 0.71 0.65 0.58 0.53 0.43 0.32 0.23 0.18 0.18 0.18 0.18 0.17 0.17 0.17 0.18 0.18 0.19 0.23 0.26 0.31 0.36 0.37 0.39 0.46 0.52 0.54 0.56 0.58 0.58 0.56 0.55 0.52 0.49
2.34 2.20 2.03 1.88 1.68 1.46 1.26 1.11 0.95 0.81 0.68 0.58 0.54 0.55 0.52 0.41 0.28 0.19 0.16 0.15 0.15 0.15 0.15 0.13 0.12 0.12 0.14 0.16 0.18 0.22 0.28 0.31 0.31 0.36 0.44 0.49 0.51 0.53 0.55 0.58 0.58 0.59 0.60
2.06 1.91 1.84 1.76 1.62 1.42 1.22 1.04 0.90 0.78 0.70 0.63 0.55 0.45 0.40 0.34 0.33 0.27 0.20 0.17 0.16 0.15 0.15 0.14 0.13 0.14 0.16 0.16 0.19 0.21 0.24 0.26 0.27 0.30 0.36 0.42 0.46 0.48 0.51 0.54 0.59 0.64 0.66
1.86 1.74 1.67 1.51 1.34 1.18 1.01 0.85 0.74 0.68 0.64 0.57 0.47 0.39 0.35 0.30 0.29 0.31 0.25 0.17 0.14 0.13 0.12 0.12 0.12 0.12 0.13 0.14 0.15 0.18 0.22 0.22 0.25 0.28 0.29 0.33 0.38 0.44 0.50 0.57 0.64 0.72 0.79
1.78 1.57 1.36 1.21 1.08 0.95 0.81 0.69 0.59 0.52 0.48 0.45 0.40 0.37 0.35 0.33 0.31 0.33 0.30 0.22 0.17 0.14 0.12 0.12 0.12 0.12 0.12 0.13 0.16 0.20 0.22 0.24 0.25 0.25 0.25 0.27 0.30 0.36 0.42 0.50 0.62 0.75 0.89
1.39 1.21 1.02 0.89 0.82 0.76 0.69 0.59 0.51 0.43 0.39 0.39 0.37 0.37 0.35 0.33 0.30 0.31 0.33 0.28 0.23 0.18 0.15 0.13 0.11 0.10 0.11 0.14 0.21 0.22 0.21 0.20 0.19 0.18 0.19 0.23 0.27 0.33 0.35 0.39 0.44 0.53 0.63
0.96 0.79 0.68 0.60 0.52 0.46 0.43 0.43 0.43 0.42 0.39 0.39 0.37 0.38 0.37 0.33 0.31 0.32 0.35 0.38 0.34 0.25 0.20 0.16 0.12 0.13 0.18 0.22 0.27 0.20 0.27 0.21 0.18 0.18 0.20 0.26 0.32 0.40 0.41 0.37 0.34 0.38 0.41
0.72 0.59 0.52 0.48 0.44 0.39 0.36 0.36 0.36 0.38 0.39 0.39 0.38 0.39 0.37 0.33 0.30 0.30 0.32 0.40 0.45 0.38 0.28 0.19 0.16 0.18 0.25 0.28 0.30 0.33 0.41 0.31 0.29 0.34 0.34 0.38 0.43 0.54 0.57 0.49 0.42 0.35 0.32
0.57 0.51 0.48 0.45 0.41 0.37 0.36 0.37 0.38 0.39 0.39 0.37 0.34 0.30 0.26 0.23 0.21 0.20 0.22 0.26 0.35 0.42 0.38 0.22 0.17 0.20 0.25 0.24 0.29 0.37 0.38 0.36 0.41 0.64 0.76 0.68 0.62 0.75 0.83 0.71 0.57 0.48 0.42
0.42 0.42 0.40 0.37 0.36 0.36 0.36 0.36 0.33 0.29 0.26 0.24 0.21 0.19 0.19 0.18 0.19 0.18 0.21 0.25 0.30 0.40 0.47 0.29 0.21 0.23 0.29 0.32 0.36 0.41 0.42 0.45 0.57 0.97 1.23 1.42 1.16 1.04 1.08 0.95 0.77 0.60 0.51
0.33 0.33 0.30 0.29 0.27 0.26 0.25 0.23 0.21 0.19 0.18 0.17 0.17 0.18 0.17 0.18 0.19 0.20 0.24 0.28 0.32 0.42 0.55 0.48 0.34 0.37 0.41 0.44 0.54 0.57 0.50 0.45 0.53 0.95 1.33 1.67 1.63 1.42 1.43 1.25 1.03 0.77 0.58
0.24 0.24 0.23 0.23 0.21 0.19 0.18 0.17 0.17 0.15 0.15 0.16 0.17 0.18 0.18 0.22 0.24 0.28 0.36 0.40 0.42 0.46 0.59 0.62 0.49 0.51 0.55 0.62 0.75 0.70 0.59 0.57 0.46 0.73 1.20 1.54 1.74 1.81 1.91 1.76 1.44 1.05 0.74
0.21 0.22 0.20 0.18 0.16 0.14 0.12 0.11 0.11 0.10 0.12 0.14 0.17 0.21 0.25 0.30 0.35 0.40 0.42 0.43 0.48 0.54 0.60 0.67 0.63 0.65 0.71 0.76 0.81 0.82 0.67 0.59 0.55 0.60 1.04 1.53 1.86 1.93 2.13 2.26 1.97 1.46 1.02
0.23 0.22 0.19 0.16 0.14 0.11 0.08 0.06 0.05 0.07 0.11 0.14 0.17 0.20 0.25 0.33 0.40 0.39 0.37 0.39 0.50 0.62 0.65 0.73 0.74 0.71 0.69 0.78 0.81 0.71 0.62 0.52 0.47 0.53 0.73 1.18 1.86 2.18 2.24 2.33 2.25 1.76 1.28
0.23 0.19 0.15 0.12 0.10 0.06 0.05 0.05 0.05 0.07 0.13 0.18 0.21 0.22 0.20 0.23 0.22 0.23 0.29 0.35 0.46 0.64 0.85 0.96 0.87 0.76 0.63 0.64 0.67 0.63 0.63 0.58 0.49 0.39 0.45 0.75 1.38 2.05 2.31 2.38 2.33 1.77 1.27
0.19 0.15 0.12 0.08 0.08 0.05 0.03 0.04 0.05 0.07 0.15 0.22 0.26 0.24 0.19 0.15 0.18 0.22 0.26 0.31 0.43 0.59 0.81 1.07 1.08 0.81 0.73 0.67 0.70 0.68 0.68 0.71 0.62 0.43 0.47 0.67 1.10 1.77 2.09 2.20 2.10 1.54 1.13
0.15 0.13 0.10 0.07 0.09 0.05 0.02 0.02 0.03 0.06 0.14 0.19 0.22 0.23 0.24 0.24 0.21 0.24 0.25 0.31 0.45 0.61 0.73 0.80 1.04 0.87 0.69 0.66 0.68 0.67 0.69 0.66 0.54 0.43 0.49 0.67 1.01 1.51 1.65 1.77 1.77 1.39 1.07
0.14 0.09 0.06 0.07 0.09 0.07 0.02 0.02 0.02 0.05 0.10 0.14 0.17 0.18 0.16 0.20 0.21 0.32 0.41 0.53 0.66 0.83 0.85 0.97 1.12 1.08 0.96 0.87 0.73 0.67 0.70 0.64 0.54 0.45 0.49 0.62 0.86 1.09 1.24 1.39 1.39 1.27 1.07
0.11 0.07 0.05 0.06 0.09 0.09 0.02 0.00 0.01 0.04 0.07 0.10 0.15 0.20 0.17 0.17 0.25 0.41 0.57 0.73 0.85 0.97 0.91 1.00 1.22 1.28 1.13 1.09 1.06 0.89 0.77 0.66 0.58 0.56 0.50 0.55 0.70 0.78 1.03 1.14 1.12 1.07 1.04

GEFSMA_prec_meanprecacc_102.txt.gz
Total_Precipitation_Accumulation
0.23 0.23 0.23 0.24 0.26 0.37 0.34 0.26 0.20 0.20 0.23 0.26 0.24 0.25 0.23 0.19 0.18 0.19 0.24 0.30 0.27 0.32 0.42 0.48 0.49 0.48 0.42 0.38 0.36 0.37 0.36 0.35 0.34 0.32 0.28 0.25 0.23 0.23 0.25 0.26 0.28 0.28 0.28
0.26 0.27 0.31 0.32 0.31 0.44 0.48 0.39 0.29 0.29 0.29 0.31 0.30 0.30 0.27 0.28 0.29 0.30 0.33 0.38 0.36 0.35 0.40 0.49 0.52 0.50 0.48 0.47 0.46 0.44 0.44 0.42 0.42 0.40 0.34 0.31 0.30 0.29 0.28 0.29 0.30 0.29 0.28
0.37 0.41 0.45 0.44 0.41 0.44 0.48 0.45 0.40 0.41 0.41 0.34 0.32 0.33 0.31 0.30 0.29 0.36 0.43 0.46 0.45 0.44 0.45 0.47 0.51 0.53 0.57 0.56 0.56 0.54 0.54 0.54 0.51 0.48 0.44 0.41 0.39 0.37 0.34 0.32 0.32 0.32 0.31
0.45 0.53 0.55 0.58 0.60 0.58 0.62 0.64 0.57 0.52 0.51 0.51 0.45 0.40 0.38 0.37 0.33 0.36 0.37 0.39 0.46 0.47 0.47 0.46 0.49 0.54 0.55 0.57 0.61 0.64 0.64 0.61 0.60 0.56 0.55 0.54 0.50 0.45 0.40 0.37 0.35 0.34 0.34
0.63 0.74 0.81 0.84 0.82 0.79 0.80 0.78 0.79 0.71 0.65 0.58 0.50 0.47 0.41 0.38 0.36 0.37 0.40 0.45 0.46 0.47 0.52 0.54 0.55 0.54 0.53 0.54 0.56 0.56 0.60 0.66 0.68 0.64 0.61 0.61 0.57 0.51 0.45 0.42 0.40 0.40 0.39
1.00 1.14 1.17 1.20 1.17 1.10 1.10 1.03 0.92 0.82 0.70 0.65 0.54 0.44 0.37 0.34 0.34 0.38 0.43 0.40 0.35 0.34 0.34 0.35 0.38 0.41 0.45 0.48 0.49 0.53 0.63 0.71 0.73 0.69 0.68 0.70 0.68 0.61 0.51 0.46 0.44 0.44 0.42
1.71 1.81 1.80 1.71 1.57 1.42 1.28 1.16 1.05 0.90 0.79 0.75 0.68 0.54 0.41 0.35 0.33 0.32 0.30 0.28 0.25 0.24 0.24 0.27 0.30 0.31 0.36 0.44 0.46 0.51 0.58 0.66 0.73 0.77 0.79 0.78 0.77 0.71 0.63 0.56 0.52 0.50 0.49
2.50 2.43 2.33 2.15 1.91 1.66 1.40 1.21 1.07 0.96 0.85 0.78 0.71 0.64 0.52 0.39 0.28 0.22 0.21 0.21 0.21 0.21 0.21 0.21 0.22 0.22 0.24 0.28 0.34 0.42 0.48 0.49 0.53 0.61 0.67 0.70 0.70 0.71 0.71 0.69 0.65 0.63 0.60
2.56 2.44 2.30 2.13 1.92 1.68 1.45 1.28 1.10 0.97 0.84 0.74 0.70 0.70 0.63 0.49 0.34 0.23 0.20 0.18 0.18 0.18 0.18 0.17 0.15 0.16 0.18 0.20 0.24 0.30 0.37 0.40 0.41 0.47 0.56 0.62 0.65 0.67 0.70 0.73 0.73 0.73 0.73
2.26 2.09 2.04 1.96 1.82 1.62 1.41 1.22 1.06 0.93 0.85 0.76 0.68 0.58 0.51 0.44 0.42 0.34 0.25 0.21 0.19 0.18 0.18 0.17 0.16 0.17 0.19 0.20 0.25 0.28 0.32 0.33 0.34 0.38 0.44 0.50 0.55 0.58 0.62 0.66 0.72 0.79 0.82
2.01 1.88 1.81 1.67 1.49 1.34 1.17 1.00 0.87 0.79 0.75 0.69 0.60 0.53 0.49 0.43 0.39 0.39 0.32 0.22 0.19 0.16 0.15 0.15 0.15 0.15 0.16 0.17 0.19 0.23 0.28 0.28 0.30 0.33 0.34 0.38 0.43 0.50 0.56 0.64 0.72 0.82 0.91
1.88 1.67 1.45 1.30 1.17 1.05 0.91 0.79 0.68 0.60 0.55 0.54 0.50 0.47 0.44 0.42 0.41 0.41 0.38 0.28 0.23 0.19 0.17 0.16 0.15 0.15 0.15 0.16 0.19 0.24 0.26 0.27 0.28 0.28 0.28 0.29 0.33 0.38 0.45 0.53 0.66 0.82 0.97
1.48 1.30 1.11 0.98 0.90 0.84 0.75 0.66 0.59 0.50 0.45 0.44 0.42 0.42 0.41 0.39 0.37 0.39 0.40 0.34 0.29 0.23 0.20 0.18 0.15 0.14 0.14 0.17 0.25 0.26 0.24 0.23 0.22 0.21 0.21 0.25 0.30 0.35 0.38 0.43 0.48 0.58 0.69
1.04 0.87 0.76 0.68 0.59 0.51 0.48 0.47 0.47 0.46 0.44 0.43 0.43 0.45 0.46 0.43 0.40 0.40 0.42 0.44 0.40 0.30 0.24 0.20 0.15 0.16 0.21 0.26 0.30 0.23 0.28 0.23 0.20 0.20 0.22 0.28 0.34 0.42 0.43 0.40 0.38 0.43 0.46
0.79 0.66 0.58 0.53 0.49 0.43 0.40 0.39 0.39 0.40 0.41 0.41 0.41 0.42 0.43 0.39 0.35 0.34 0.35 0.42 0.48 0.41 0.31 0.22 0.19 0.20 0.28 0.31 0.33 0.35 0.42 0.33 0.30 0.35 0.35 0.39 0.44 0.55 0.58 0.51 0.44 0.38 0.36
0.61 0.56 0.53 0.49 0.45 0.41 0.40 0.40 0.39 0.40 0.39 0.37 0.35 0.31 0.28 0.24 0.22 0.21 0.23 0.27 0.36 0.44 0.41 0.25 0.20 0.23 0.28 0.27 0.32 0.38 0.40 0.37 0.42 0.65 0.77 0.69 0.63 0.76 0.84 0.72 0.58 0.49 0.45
0.44 0.45 0.42 0.40 0.39 0.39 0.37 0.37 0.34 0.30 0.27 0.25 0.21 0.20 0.19 0.18 0.19 0.19 0.21 0.25 0.30 0.41 0.48 0.32 0.23 0.26 0.32 0.35 0.38 0.43 0.42 0.46 0.58 0.98 1.24 1.43 1.17 1.05 1.09 0.96 0.78 0.61 0.52
0.36 0.36 0.33 0.31 0.29 0.26 0.25 0.24 0.22 0.19 0.19 0.18 0.18 0.19 0.18 0.18 0.20 0.21 0.25 0.28 0.32 0.43 0.56 0.49 0.36 0.39 0.43 0.46 0.56 0.58 0.51 0.46 0.53 0.95 1.33 1.67 1.63 1.43 1.43 1.25 1.04 0.77 0.59
0.26 0.25 0.24 0.24 0.22 0.20 0.18 0.18 0.17 0.16 0.15 0.16 0.18 0.19 0.19 0.22 0.24 0.28 0.36 0.40 0.43 0.46 0.60 0.63 0.51 0.53 0.58 0.64 0.76 0.71 0.60 0.57 0.46 0.73 1.20 1.54 1.74 1.81 1.91 1.76 1.44 1.05 0.75
0.22 0.22 0.20 0.19 0.17 0.14 0.13 0.12 0.11 0.10 0.12 0.14 0.17 0.21 0.25 0.31 0.35 0.41 0.43 0.44 0.49 0.55 0.60 0.67 0.64 0.67 0.72 0.77 0.82 0.82 0.68 0.60 0.55 0.60 1.04 1.53 1.86 1.93 2.13 2.26 1.97 1.46 1.02
0.23 0.22 0.19 0.16 0.14 0.12 0.08 0.06 0.05 0.07 0.11 0.15 0.17 0.20 0.25 0.33 0.40 0.39 0.37 0.40 0.50 0.63 0.66 0.74 0.75 0.71 0.70 0.79 0.81 0.72 0.62 0.53 0.47 0.53 0.73 1.18 1.86 2.18 2.24 2.33 2.25 1.76 1.28
0.24 0.19 0.15 0.12 0.10 0.06 0.05 0.06 0.05 0.08 0.13 0.18 0.22 0.22 0.20 0.23 0.22 0.23 0.29 0.35 0.46 0.64 0.85 0.96 0.87 0.77 0.64 0.65 0.68 0.63 0.63 0.58 0.49 0.39 0.45 0.75 1.38 2.05 2.31 2.38 2.33 1.77 1.27
0.19 0.15 0.12 0.08 0.08 0.05 0.04 0.04 0.05 0.07 0.15 0.22 0.26 0.24 0.19 0.15 0.18 0.22 0.26 0.31 0.43 0.59 0.81 1.07 1.08 0.82 0.73 0.67 0.70 0.68 0.68 0.71 0.62 0.43 0.47 0.67 1.10 1.77 2.09 2.20 2.10 1.54 1.13
0.15 0.13 0.10 0.07 0.09 0.05 0.02 0.02 0.03 0.06 0.14 0.19 0.22 0.23 0.24 0.24 0.21 0.24 0.25 0.31 0.45 0.61 0.73 0.80 1.04 0.87 0.69 0.66 0.68 0.67 0.69 0.66 0.54 0.43 0.49 0.67 1.01 1.51 1.65 1.77 1.77 1.39 1.07
0.14 0.09 0.06 0.07 0.09 0.07 0.02 0.02 0.02 0.05 0.10 0.14 0.17 0.18 0.16 0.20 0.21 0.32 0.41 0.54 0.67 0.84 0.85 0.97 1.12 1.08 0.96 0.87 0.73 0.67 0.70 0.64 0.54 0.45 0.49 0.62 0.86 1.09 1.24 1.39 1.39 1.28 1.07
0.11 0.07 0.05 0.06 0.09 0.09 0.02 0.00 0.01 0.04 0.07 0.10 0.15 0.20 0.17 0.17 0.25 0.41 0.57 0.73 0.85 0.97 0.91 1.00 1.22 1.28 1.13 1.09 1.06 0.89 0.77 0.66 0.58 0.56 0.50 0.56 0.70 0.78 1.03 1.14 1.12 1.08 1.04

GEFSMA_prec_meanprecacc_108.txt.gz
Total_Precipitation_Accumulation
0.28 0.28 0.27 0.29 0.31 0.43 0.40 0.32 0.25 0.24 0.26 0.29 0.27 0.26 0.25 0.22 0.21 0.22 0.27 0.33 0.30 0.37 0.49 0.58 0.60 0.59 0.54 0.49 0.46 0.46 0.45 0.43 0.43 0.41 0.37 0.33 0.32 0.31 0.32 0.34 0.35 0.36 0.35
0.31 0.34 0.38 0.39 0.38 0.51 0.55 0.46 0.36 0.36 0.36 0.38 0.34 0.34 0.32 0.32 0.33 0.34 0.37 0.41 0.39 0.38 0.45 0.56 0.62 0.62 0.61 0.61 0.57 0.54 0.53 0.52 0.52 0.50 0.45 0.41 0.40 0.39 0.37 0.39 0.39 0.37 0.35
0.44 0.50 0.54 0.53 0.49 0.52 0.59 0.55 0.48 0.48 0.48 0.41 0.37 0.39 0.37 0.35 0.35 0.41 0.48 0.51 0.50 0.48 0.49 0.52 0.57 0.61 0.67 0.69 0.70 0.68 0.66 0.65 0.60 0.58 0.54 0.51 0.48 0.47 0.44 0.42 0.42 0.42 0.39
0.57 0.62 0.64 0.66 0.68 0.67 0.73 0.75 0.66 0.59 0.59 0.59 0.51 0.45 0.43 0.42 0.38 0.40 0.42 0.44 0.52 0.53 0.53 0.50 0.54 0.59 0.61 0.66 0.74 0.78 0.77 0.73 0.71 0.67 0.65 0.63 0.59 0.54 0.49 0.46 0.44 0.44 0.44
0.76 0.85 0.91 0.94 0.91 0.88 0.90 0.89 0.91 0.81 0.75 0.67 0.56 0.53 0.46 0.42 0.41 0.41 0.44 0.50 0.51 0.52 0.57 0.60 0.60 0.60 0.59 0.62 0.65 0.69 0.74 0.79 0.80 0.75 0.72 0.70 0.66 0.60 0.54 0.50 0.48 0.48 0.48
1.19 1.29 1.30 1.32 1.26 1.20 1.21 1.14 1.03 0.93 0.80 0.74 0.62 0.51 0.43 0.38 0.39 0.42 0.47 0.45 0.40 0.38 0.39 0.40 0.44 0.46 0.52 0.55 0.57 0.63 0.76 0.85 0.86 0.82 0.82 0.82 0.77 0.69 0.59 0.54 0.52 0.52 0.51
1.89 1.97 1.96 1.85 1.69 1.54 1.41 1.29 1.17 1.03 0.90 0.86 0.79 0.63 0.48 0.40 0.37 0.35 0.33 0.31 0.28 0.26 0.26 0.29 0.32 0.34 0.40 0.47 0.50 0.56 0.68 0.77 0.82 0.87 0.90 0.89 0.86 0.80 0.73 0.67 0.62 0.60 0.59
2.68 2.61 2.50 2.30 2.05 1.79 1.53 1.33 1.18 1.07 0.96 0.92 0.87 0.80 0.66 0.49 0.34 0.25 0.24 0.23 0.24 0.24 0.23 0.23 0.24 0.24 0.26 0.31 0.37 0.46 0.52 0.54 0.57 0.66 0.73 0.76 0.77 0.79 0.79 0.77 0.74 0.73 0.72
2.72 2.60 2.46 2.29 2.06 1.82 1.58 1.42 1.25 1.11 0.98 0.89 0.85 0.85 0.78 0.61 0.42 0.29 0.24 0.21 0.21 0.20 0.20 0.19 0.18 0.17 0.19 0.22 0.26 0.33 0.40 0.43 0.44 0.50 0.59 0.66 0.70 0.73 0.76 0.80 0.81 0.83 0.84
2.43 2.25 2.18 2.10 1.94 1.74 1.54 1.35 1.20 1.06 0.97 0.86 0.77 0.66 0.60 0.53 0.51 0.42 0.31 0.25 0.21 0.20 0.19 0.18 0.18 0.18 0.21 0.22 0.27 0.32 0.35 0.36 0.38 0.41 0.47 0.54 0.59 0.63 0.67 0.72 0.79 0.86 0.90
2.18 2.03 1.94 1.79 1.60 1.44 1.27 1.10 0.99 0.90 0.84 0.77 0.66 0.58 0.55 0.50 0.47 0.49 0.40 0.28 0.23 0.20 0.18 0.17 0.17 0.17 0.17 0.19 0.21 0.27 0.32 0.31 0.34 0.37 0.38 0.42 0.47 0.53 0.60 0.69 0.78 0.88 0.97
2.03 1.80 1.57 1.40 1.26 1.13 0.98 0.87 0.77 0.68 0.62 0.60 0.54 0.51 0.48 0.47 0.46 0.49 0.46 0.35 0.29 0.24 0.21 0.19 0.18 0.18 0.18 0.19 0.21 0.28 0.29 0.31 0.33 0.33 0.32 0.32 0.35 0.40 0.46 0.55 0.69 0.85 1.00
1.64 1.44 1.24 1.10 1.00 0.92 0.83 0.73 0.66 0.57 0.51 0.49 0.45 0.44 0.43 0.41 0.40 0.43 0.45 0.41 0.36 0.28 0.24 0.21 0.18 0.17 0.17 0.20 0.27 0.29 0.27 0.26 0.24 0.23 0.23 0.28 0.32 0.37 0.39 0.44 0.50 0.60 0.72
1.15 0.97 0.86 0.78 0.67 0.59 0.56 0.55 0.55 0.53 0.50 0.49 0.47 0.48 0.48 0.45 0.42 0.42 0.45 0.48 0.44 0.34 0.28 0.23 0.18 0.18 0.22 0.27 0.32 0.25 0.30 0.25 0.22 0.23 0.25 0.31 0.36 0.44 0.46 0.42 0.40 0.45 0.49
0.84 0.71 0.63 0.59 0.53 0.47 0.43 0.42 0.44 0.45 0.46 0.45 0.44 0.45 0.45 0.42 0.37 0.36 0.37 0.44 0.50 0.43 0.34 0.24 0.21 0.22 0.29 0.32 0.35 0.37 0.44 0.35 0.31 0.37 0.37 0.41 0.46 0.57 0.61 0.54 0.46 0.41 0.39
0.66 0.60 0.56 0.52 0.47 0.42 0.41 0.42 0.41 0.42 0.42 0.40 0.36 0.33 0.29 0.26 0.24 0.23 0.25 0.28 0.37 0.46 0.42 0.26 0.22 0.25 0.30 0.28 0.34 0.40 0.41 0.39 0.43 0.66 0.78 0.70 0.64 0.78 0.85 0.74 0.60 0.51 0.47
0.50 0.48 0.45 0.42 0.41 0.40 0.38 0.37 0.35 0.31 0.29 0.27 0.23 0.22 0.21 0.20 0.21 0.21 0.23 0.27 0.32 0.43 0.50 0.33 0.25 0.28 0.34 0.36 0.39 0.44 0.44 0.47 0.59 0.99 1.25 1.43 1.18 1.06 1.10 0.97 0.80 0.63 0.54
0.42 0.40 0.36 0.34 0.31 0.28 0.26 0.24 0.22 0.20 0.20 0.19 0.19 0.21 0.20 0.20 0.21 0.22 0.26 0.29 0.34 0.44 0.57 0.50 0.38 0.41 0.44 0.47 0.57 0.59 0.52 0.47 0.54 0.96 1.34 1.68 1.64 1.43 1.43 1.26 1.05 0.78 0.61
0.30 0.29 0.27 0.27 0.25 0.23 0.21 0.20 0.19 0.16 0.16 0.17 0.18 0.20 0.20 0.23 0.26 0.29 0.37 0.41 0.44 0.48 0.62 0.65 0.53 0.55 0.59 0.65 0.78 0.72 0.61 0.58 0.47 0.73 1.20 1.54 1.74 1.81 1.91 1.76 1.44 1.05 0.75
0.24 0.24 0.22 0.20 0.18 0.16 0.14 0.14 0.12 0.12 0.13 0.16 0.19 0.23 0.26 0.32 0.37 0.42 0.44 0.46 0.50 0.56 0.62 0.69 0.66 0.69 0.74 0.78 0.84 0.84 0.69 0.60 0.55 0.60 1.04 1.53 1.86 1.93 2.13 2.26 1.97 1.46 1.02
0.24 0.23 0.20 0.17 0.15 0.12 0.08 0.06 0.06 0.08 0.13 0.16 0.18 0.21 0.26 0.34 0.41 0.40 0.38 0.41 0.52 0.64 0.67 0.75 0.76 0.73 0.71 0.81 0.83 0.72 0.62 0.53 0.48 0.54 0.74 1.18 1.87 2.19 2.26 2.33 2.25 1.76 1.28
0.25 0.20 0.16 0.13 0.11 0.06 0.05 0.06 0.05 0.08 0.14 0.19 0.22 0.23 0.21 0.24 0.23 0.24 0.30 0.36 0.47 0.65 0.87 0.98 0.89 0.79 0.67 0.67 0.69 0.64 0.64 0.59 0.50 0.40 0.46 0.76 1.39 2.08 2.34 2.40 2.33 1.77 1.27
0.20 0.17 0.13 0.09 0.09 0.06 0.04 0.04 0.05 0.08 0.15 0.23 0.27 0.25 0.20 0.16 0.18 0.23 0.27 0.31 0.43 0.59 0.82 1.08 1.10 0.84 0.75 0.69 0.71 0.70 0.70 0.72 0.64 0.44 0.48 0.69 1.13 1.81 2.11 2.21 2.10 1.54 1.13
0.16 0.14 0.11 0.08 0.10 0.05 0.02 0.02 0.03 0.07 0.15 0.20 0.23 0.23 0.25 0.25 0.22 0.24 0.26 0.32 0.45 0.62 0.73 0.81 1.05 0.88 0.70 0.67 0.69 0.68 0.70 0.67 0.57 0.46 0.50 0.71 1.06 1.55 1.68 1.80 1.77 1.39 1.07
0.15 0.10 0.07 0.07 0.10 0.08 0.02 0.02 0.02 0.06 0.11 0.15 0.18 0.18 0.17 0.21 0.22 0.32 0.42 0.55 0.68 0.85 0.85 0.97 1.12 1.08 0.96 0.87 0.73 0.68 0.73 0.67 0.59 0.50 0.51 0.65 0.91 1.13 1.28 1.43 1.40 1.28 1.07
0.12 0.07 0.05 0.07 0.10 0.10 0.02 0.00 0.01 0.04 0.08 0.11 0.16 0.21 0.18 0.17 0.25 0.42 0.58 0.75 0.88 1.00 0.93 1.02 1.24 1.29 1.14 1.11 1.06 0.90 0.81 0.70 0.63 0.62 0.54 0.59 0.76 0.83 1.07 1.18 1.15 1.10 1.05

GEFSMA_prec_meanprecacc_114.txt.gz
Total_Precipitation_Accumulation
0.45 0.43 0.43 0.46 0.43 0.58 0.63 0.48 0.33 0.31 0.35 0.36 0.31 0.30 0.28 0.26 0.26 0.33 0.38 0.36 0.30 0.38 0.53 0.63 0.65 0.66 0.61 0.58 0.55 0.54 0.52 0.51 0.52 0.50 0.44 0.38 0.37 0.37 0.38 0.40 0.40 0.41 0.41
0.56 0.55 0.55 0.56 0.50 0.62 0.68 0.58 0.44 0.49 0.48 0.50 0.41 0.39 0.37 0.37 0.37 0.39 0.43 0.46 0.42 0.39 0.47 0.60 0.67 0.68 0.68 0.68 0.63 0.60 0.58 0.58 0.60 0.56 0.51 0.46 0.45 0.44 0.43 0.45 0.45 0.45 0.41
0.79 0.81 0.80 0.75 0.66 0.65 0.71 0.66 0.60 0.63 0.64 0.54 0.48 0.48 0.46 0.42 0.40 0.46 0.54 0.59 0.59 0.53 0.53 0.55 0.60 0.65 0.72 0.75 0.77 0.74 0.72 0.71 0.66 0.63 0.59 0.56 0.52 0.51 0.48 0.47 0.48 0.47 0.45
0.91 1.04 0.98 0.90 0.88 0.82 0.87 0.90 0.81 0.77 0.78 0.77 0.68 0.59 0.56 0.56 0.45 0.46 0.49 0.52 0.61 0.61 0.58 0.53 0.56 0.61 0.63 0.70 0.81 0.85 0.84 0.79 0.76 0.73 0.71 0.68 0.64 0.58 0.53 0.50 0.48 0.48 0.49
1.06 1.18 1.22 1.19 1.12 1.06 1.09 1.05 1.11 1.01 0.97 0.86 0.72 0.63 0.54 0.50 0.49 0.48 0.53 0.56 0.57 0.57 0.62 0.64 0.62 0.62 0.62 0.65 0.69 0.73 0.79 0.83 0.84 0.80 0.77 0.75 0.71 0.65 0.57 0.54 0.52 0.53 0.55
1.46 1.59 1.59 1.57 1.47 1.40 1.41 1.35 1.25 1.13 1.00 0.92 0.74 0.60 0.49 0.44 0.44 0.48 0.52 0.49 0.43 0.41 0.42 0.45 0.48 0.50 0.54 0.59 0.60 0.67 0.82 0.91 0.93 0.89 0.88 0.87 0.82 0.73 0.63 0.59 0.57 0.57 0.57
2.17 2.26 2.21 2.10 1.91 1.74 1.61 1.49 1.37 1.22 1.08 1.03 0.95 0.76 0.56 0.45 0.42 0.40 0.38 0.35 0.32 0.30 0.29 0.32 0.37 0.39 0.44 0.50 0.53 0.58 0.70 0.81 0.86 0.91 0.94 0.93 0.90 0.84 0.77 0.71 0.67 0.65 0.64
2.93 2.89 2.77 2.52 2.24 1.98 1.72 1.52 1.36 1.24 1.10 1.05 1.03 0.96 0.79 0.60 0.42 0.31 0.29 0.28 0.29 0.29 0.28 0.27 0.28 0.27 0.29 0.34 0.40 0.47 0.53 0.55 0.59 0.69 0.75 0.79 0.80 0.83 0.84 0.82 0.80 0.79 0.77
2.93 2.81 2.67 2.49 2.25 1.99 1.76 1.60 1.43 1.28 1.11 1.02 0.99 1.01 0.93 0.73 0.51 0.35 0.30 0.27 0.26 0.26 0.25 0.23 0.22 0.21 0.22 0.24 0.28 0.35 0.41 0.44 0.45 0.52 0.62 0.68 0.72 0.76 0.79 0.83 0.84 0.86 0.87
2.59 2.43 2.37 2.28 2.10 1.89 1.69 1.50 1.36 1.21 1.12 0.99 0.88 0.78 0.73 0.63 0.61 0.49 0.37 0.31 0.27 0.26 0.24 0.22 0.21 0.21 0.24 0.25 0.30 0.33 0.36 0.37 0.38 0.42 0.49 0.56 0.61 0.65 0.69 0.73 0.81 0.88 0.93
2.30 2.15 2.08 1.92 1.71 1.55 1.39 1.23 1.12 1.05 1.00 0.92 0.80 0.71 0.66 0.61 0.58 0.59 0.48 0.33 0.27 0.24 0.21 0.19 0.19 0.19 0.21 0.23 0.24 0.29 0.34 0.33 0.35 0.38 0.39 0.43 0.49 0.56 0.63 0.71 0.80 0.89 0.98
2.14 1.92 1.69 1.53 1.37 1.23 1.09 0.97 0.87 0.78 0.73 0.70 0.65 0.61 0.58 0.57 0.55 0.58 0.54 0.41 0.33 0.28 0.24 0.22 0.21 0.21 0.22 0.22 0.24 0.30 0.32 0.34 0.35 0.34 0.34 0.35 0.37 0.43 0.49 0.58 0.71 0.87 1.02
1.73 1.53 1.34 1.20 1.10 1.02 0.93 0.83 0.74 0.64 0.57 0.55 0.52 0.51 0.50 0.48 0.46 0.49 0.53 0.48 0.42 0.33 0.28 0.25 0.21 0.20 0.20 0.24 0.30 0.32 0.30 0.29 0.27 0.25 0.26 0.30 0.34 0.40 0.43 0.48 0.54 0.64 0.75
1.26 1.06 0.94 0.87 0.78 0.69 0.66 0.66 0.65 0.63 0.58 0.56 0.54 0.55 0.55 0.51 0.47 0.48 0.52 0.56 0.52 0.41 0.34 0.28 0.21 0.21 0.25 0.30 0.34 0.28 0.32 0.27 0.24 0.25 0.27 0.32 0.38 0.47 0.49 0.46 0.44 0.48 0.51
0.92 0.78 0.69 0.65 0.61 0.56 0.52 0.50 0.51 0.53 0.54 0.52 0.51 0.52 0.52 0.48 0.43 0.42 0.44 0.52 0.58 0.51 0.41 0.30 0.26 0.26 0.33 0.34 0.37 0.39 0.45 0.36 0.32 0.37 0.38 0.42 0.47 0.58 0.62 0.55 0.48 0.42 0.41
0.71 0.65 0.60 0.55 0.51 0.47 0.46 0.47 0.47 0.47 0.46 0.44 0.40 0.36 0.32 0.29 0.27 0.27 0.30 0.35 0.44 0.52 0.49 0.33 0.27 0.30 0.34 0.31 0.37 0.42 0.43 0.40 0.44 0.66 0.78 0.70 0.65 0.78 0.86 0.75 0.61 0.53 0.49
0.55 0.53 0.49 0.47 0.45 0.44 0.42 0.41 0.38 0.34 0.32 0.30 0.27 0.24 0.23 0.23 0.24 0.23 0.25 0.30 0.35 0.47 0.55 0.38 0.29 0.32 0.37 0.39 0.41 0.45 0.44 0.48 0.59 0.99 1.25 1.44 1.18 1.06 1.11 0.98 0.81 0.64 0.55
0.50 0.46 0.41 0.38 0.36 0.32 0.29 0.27 0.24 0.22 0.22 0.22 0.22 0.23 0.22 0.22 0.24 0.24 0.28 0.31 0.36 0.47 0.61 0.55 0.43 0.45 0.47 0.49 0.59 0.61 0.54 0.47 0.55 0.97 1.34 1.68 1.64 1.43 1.44 1.26 1.05 0.79 0.61
0.39 0.36 0.32 0.32 0.29 0.27 0.25 0.22 0.21 0.19 0.18 0.19 0.21 0.22 0.22 0.25 0.27 0.31 0.39 0.43 0.46 0.49 0.64 0.68 0.56 0.58 0.63 0.69 0.81 0.75 0.63 0.60 0.47 0.74 1.20 1.54 1.74 1.81 1.91 1.76 1.44 1.05 0.75
0.32 0.33 0.31 0.27 0.23 0.20 0.18 0.17 0.16 0.15 0.16 0.17 0.20 0.24 0.27 0.33 0.38 0.43 0.46 0.48 0.52 0.58 0.64 0.71 0.68 0.71 0.77 0.82 0.88 0.87 0.72 0.63 0.56 0.61 1.05 1.53 1.87 1.94 2.13 2.26 1.97 1.46 1.02
0.32 0.31 0.29 0.25 0.21 0.17 0.13 0.10 0.08 0.10 0.15 0.18 0.20 0.22 0.27 0.35 0.41 0.41 0.39 0.42 0.53 0.66 0.69 0.77 0.78 0.75 0.75 0.85 0.87 0.76 0.66 0.56 0.50 0.55 0.76 1.19 1.88 2.21 2.28 2.34 2.25 1.76 1.28
0.32 0.27 0.23 0.19 0.16 0.09 0.08 0.08 0.07 0.10 0.15 0.21 0.24 0.24 0.22 0.24 0.23 0.24 0.31 0.37 0.48 0.66 0.89 1.01 0.92 0.83 0.71 0.71 0.73 0.68 0.68 0.63 0.55 0.42 0.49 0.79 1.41 2.13 2.40 2.43 2.33 1.77 1.27
0.26 0.23 0.18 0.14 0.13 0.08 0.05 0.05 0.06 0.10 0.18 0.25 0.29 0.28 0.21 0.16 0.19 0.24 0.27 0.32 0.44 0.60 0.82 1.09 1.12 0.88 0.79 0.74 0.75 0.74 0.76 0.77 0.70 0.49 0.52 0.75 1.19 1.87 2.15 2.21 2.10 1.54 1.13
0.22 0.20 0.16 0.13 0.13 0.07 0.03 0.03 0.04 0.09 0.18 0.23 0.25 0.26 0.28 0.27 0.23 0.25 0.27 0.33 0.47 0.63 0.74 0.81 1.07 0.91 0.73 0.69 0.71 0.70 0.74 0.72 0.65 0.52 0.54 0.77 1.13 1.63 1.72 1.82 1.78 1.39 1.07
0.21 0.16 0.12 0.12 0.14 0.10 0.02 0.02 0.03 0.08 0.14 0.18 0.20 0.19 0.18 0.23 0.23 0.33 0.43 0.59 0.73 0.88 0.86 0.97 1.12 1.09 0.96 0.87 0.73 0.69 0.76 0.73 0.67 0.58 0.56 0.71 0.99 1.20 1.34 1.48 1.41 1.28 1.07
0.17 0.12 0.10 0.12 0.14 0.11 0.02 0.00 0.02 0.06 0.12 0.15 0.20 0.23 0.18 0.17 0.25 0.42 0.60 0.80 0.93 1.05 0.97 1.05 1.27 1.31 1.16 1.12 1.07 0.92 0.87 0.77 0.71 0.70 0.60 0.64 0.83 0.89 1.14 1.24 1.18 1.11 1.07

GEFSMA_prec_meanprecacc_120.txt.gz
Total_Precipitation_Accumulation
0.58 0.60 0.62 0.67 0.66 0.76 0.76 0.60 0.47 0.49 0.50 0.48 0.44 0.46 0.45 0.44 0.45 0.48 0.50 0.45 0.38 0.45 0.61 0.68 0.69 0.69 0.64 0.61 0.58 0.58 0.56 0.55 0.55 0.52 0.46 0.40 0.39 0.39 0.41 0.42 0.42 0.43 0.43
0.73 0.76 0.78 0.80 0.79 0.91 0.94 0.79 0.67 0.74 0.70 0.70 0.61 0.58 0.58 0.60 0.59 0.54 0.56 0.56 0.50 0.45 0.53 0.65 0.72 0.72 0.72 0.71 0.65 0.62 0.61 0.62 0.62 0.58 0.52 0.48 0.46 0.45 0.44 0.47 0.47 0.47 0.44
1.03 1.03 1.07 1.02 0.96 0.97 1.00 0.94 0.86 0.85 0.86 0.75 0.66 0.65 0.64 0.58 0.54 0.58 0.65 0.68 0.67 0.61 0.60 0.60 0.64 0.69 0.77 0.80 0.82 0.78 0.75 0.73 0.68 0.64 0.61 0.57 0.54 0.52 0.49 0.49 0.50 0.49 0.46
1.28 1.37 1.38 1.20 1.12 1.09 1.15 1.16 1.05 1.00 1.03 1.02 0.86 0.72 0.71 0.71 0.59 0.59 0.60 0.62 0.69 0.67 0.64 0.58 0.60 0.65 0.69 0.75 0.85 0.89 0.87 0.82 0.78 0.75 0.73 0.70 0.65 0.59 0.54 0.51 0.50 0.49 0.50
1.40 1.49 1.53 1.46 1.32 1.27 1.32 1.27 1.33 1.22 1.21 1.11 0.91 0.78 0.67 0.61 0.59 0.59 0.64 0.66 0.65 0.64 0.68 0.70 0.68 0.68 0.67 0.70 0.73 0.77 0.84 0.88 0.88 0.83 0.80 0.78 0.73 0.66 0.59 0.55 0.54 0.54 0.56
1.71 1.83 1.77 1.74 1.65 1.62 1.64 1.56 1.49 1.36 1.21 1.11 0.93 0.79 0.66 0.54 0.54 0.57 0.59 0.56 0.50 0.48 0.49 0.51 0.54 0.56 0.60 0.64 0.66 0.72 0.87 0.97 0.98 0.93 0.91 0.90 0.84 0.75 0.65 0.61 0.59 0.59 0.59
2.34 2.45 2.37 2.24 2.06 1.93 1.84 1.71 1.60 1.44 1.27 1.21 1.15 0.96 0.75 0.57 0.51 0.48 0.46 0.44 0.39 0.36 0.34 0.37 0.42 0.45 0.49 0.57 0.60 0.64 0.75 0.85 0.90 0.94 0.96 0.95 0.91 0.86 0.79 0.72 0.68 0.67 0.66
3.07 3.04 2.92 2.65 2.37 2.12 1.91 1.74 1.59 1.45 1.28 1.21 1.19 1.12 0.93 0.72 0.52 0.39 0.38 0.36 0.36 0.37 0.36 0.34 0.33 0.31 0.33 0.38 0.44 0.51 0.56 0.58 0.62 0.71 0.77 0.80 0.82 0.85 0.86 0.84 0.81 0.80 0.79
3.05 2.95 2.82 2.64 2.39 2.14 1.92 1.78 1.64 1.48 1.30 1.20 1.15 1.16 1.05 0.81 0.58 0.41 0.35 0.33 0.34 0.34 0.33 0.30 0.27 0.25 0.26 0.27 0.31 0.38 0.45 0.47 0.48 0.55 0.63 0.69 0.73 0.77 0.80 0.84 0.85 0.87 0.88
2.73 2.58 2.55 2.46 2.28 2.05 1.84 1.66 1.53 1.41 1.33 1.20 1.07 0.93 0.83 0.71 0.67 0.56 0.43 0.36 0.33 0.32 0.31 0.28 0.26 0.26 0.28 0.30 0.34 0.37 0.41 0.41 0.42 0.44 0.50 0.57 0.62 0.66 0.70 0.74 0.81 0.89 0.94
2.42 2.26 2.19 2.06 1.86 1.70 1.52 1.35 1.26 1.22 1.20 1.13 1.01 0.88 0.80 0.71 0.66 0.65 0.54 0.39 0.34 0.30 0.27 0.26 0.25 0.25 0.26 0.27 0.30 0.36 0.41 0.40 0.41 0.42 0.41 0.44 0.50 0.57 0.63 0.72 0.81 0.91 1.01
2.22 2.00 1.77 1.63 1.52 1.39 1.21 1.07 0.98 0.89 0.86 0.86 0.84 0.78 0.72 0.70 0.66 0.67 0.61 0.49 0.42 0.35 0.28 0.26 0.24 0.24 0.26 0.26 0.28 0.36 0.39 0.41 0.42 0.39 0.36 0.37 0.39 0.44 0.50 0.59 0.72 0.88 1.05
1.80 1.61 1.41 1.27 1.20 1.14 1.04 0.92 0.82 0.72 0.66 0.65 0.63 0.65 0.62 0.60 0.56 0.58 0.61 0.56 0.49 0.39 0.31 0.27 0.23 0.22 0.23 0.27 0.33 0.36 0.34 0.33 0.32 0.30 0.30 0.33 0.37 0.42 0.44 0.49 0.56 0.67 0.79
1.36 1.15 1.02 0.93 0.83 0.75 0.72 0.71 0.70 0.67 0.63 0.62 0.60 0.63 0.63 0.59 0.55 0.55 0.57 0.61 0.57 0.46 0.38 0.32 0.25 0.25 0.29 0.33 0.38 0.32 0.35 0.30 0.27 0.28 0.31 0.37 0.41 0.50 0.51 0.48 0.46 0.51 0.54
1.00 0.85 0.75 0.70 0.65 0.60 0.56 0.55 0.56 0.58 0.59 0.58 0.57 0.58 0.57 0.52 0.48 0.47 0.49 0.56 0.62 0.55 0.45 0.35 0.31 0.31 0.38 0.39 0.42 0.43 0.48 0.39 0.35 0.40 0.40 0.45 0.52 0.63 0.65 0.57 0.50 0.45 0.43
0.77 0.70 0.64 0.59 0.54 0.51 0.51 0.52 0.52 0.52 0.51 0.49 0.45 0.39 0.35 0.31 0.29 0.28 0.31 0.37 0.46 0.55 0.53 0.37 0.31 0.35 0.39 0.37 0.42 0.45 0.45 0.42 0.46 0.68 0.80 0.72 0.67 0.83 0.92 0.80 0.66 0.56 0.51
0.58 0.56 0.52 0.49 0.47 0.46 0.45 0.44 0.42 0.38 0.34 0.32 0.29 0.26 0.25 0.25 0.25 0.24 0.26 0.31 0.36 0.48 0.57 0.41 0.32 0.35 0.40 0.41 0.44 0.47 0.46 0.49 0.61 1.00 1.26 1.44 1.19 1.08 1.13 1.02 0.85 0.68 0.59
0.53 0.49 0.44 0.41 0.39 0.35 0.32 0.29 0.27 0.24 0.23 0.23 0.24 0.24 0.24 0.24 0.25 0.25 0.29 0.32 0.36 0.47 0.62 0.56 0.44 0.47 0.49 0.51 0.60 0.63 0.55 0.48 0.55 0.98 1.35 1.69 1.64 1.44 1.44 1.27 1.06 0.80 0.63
0.44 0.40 0.35 0.34 0.32 0.30 0.27 0.24 0.23 0.20 0.19 0.21 0.22 0.24 0.24 0.26 0.29 0.32 0.40 0.44 0.46 0.50 0.64 0.69 0.57 0.59 0.65 0.71 0.82 0.76 0.65 0.61 0.49 0.76 1.22 1.55 1.75 1.82 1.91 1.76 1.44 1.05 0.75
0.37 0.37 0.35 0.29 0.25 0.22 0.21 0.19 0.17 0.17 0.18 0.19 0.22 0.26 0.28 0.34 0.39 0.44 0.47 0.50 0.53 0.59 0.65 0.72 0.69 0.73 0.79 0.84 0.90 0.89 0.74 0.65 0.58 0.63 1.06 1.54 1.87 1.94 2.13 2.27 1.97 1.46 1.02
0.37 0.36 0.33 0.29 0.25 0.20 0.16 0.13 0.11 0.13 0.17 0.21 0.23 0.25 0.28 0.36 0.43 0.42 0.40 0.44 0.55 0.68 0.70 0.78 0.79 0.77 0.76 0.86 0.89 0.77 0.67 0.58 0.52 0.56 0.76 1.19 1.88 2.21 2.28 2.34 2.25 1.76 1.28
0.38 0.33 0.30 0.25 0.21 0.14 0.12 0.11 0.10 0.13 0.19 0.24 0.27 0.26 0.24 0.25 0.24 0.25 0.32 0.38 0.49 0.68 0.90 1.02 0.94 0.84 0.73 0.73 0.76 0.70 0.69 0.65 0.57 0.44 0.50 0.80 1.41 2.13 2.40 2.43 2.33 1.77 1.27
0.31 0.28 0.23 0.19 0.17 0.12 0.08 0.08 0.09 0.13 0.21 0.28 0.31 0.29 0.22 0.17 0.19 0.24 0.28 0.32 0.45 0.61 0.83 1.10 1.14 0.89 0.80 0.76 0.78 0.76 0.78 0.80 0.72 0.51 0.54 0.76 1.19 1.87 2.15 2.22 2.10 1.54 1.13
0.26 0.24 0.20 0.17 0.17 0.11 0.06 0.05 0.06 0.11 0.20 0.25 0.27 0.27 0.28 0.28 0.24 0.25 0.27 0.34 0.47 0.63 0.74 0.82 1.08 0.92 0.74 0.71 0.72 0.72 0.77 0.77 0.69 0.55 0.56 0.78 1.14 1.63 1.72 1.82 1.78 1.39 1.07
0.24 0.19 0.15 0.15 0.17 0.13 0.06 0.04 0.04 0.09 0.15 0.19 0.20 0.20 0.18 0.23 0.23 0.33 0.43 0.59 0.73 0.89 0.87 0.98 1.13 1.09 0.97 0.88 0.74 0.70 0.78 0.77 0.71 0.62 0.59 0.73 1.01 1.20 1.35 1.48 1.41 1.28 1.07
0.20 0.15 0.12 0.14 0.16 0.13 0.04 0.02 0.03 0.07 0.13 0.15 0.20 0.23 0.18 0.17 0.25 0.42 0.60 0.80 0.93 1.05 0.97 1.05 1.27 1.32 1.17 1.13 1.08 0.93 0.88 0.80 0.74 0.73 0.63 0.66 0.84 0.90 1.14 1.24 1.18 1.11 1.07

GEFSMA_prec_meanprecacc_126.txt.gz
Total_Precipitation_Accumulation
0.61 0.64 0.65 0.70 0.69 0.80 0.82 0.67 0.53 0.54 0.55 0.54 0.50 0.51 0.50 0.50 0.50 0.55 0.58 0.52 0.46 0.55 0.72 0.79 0.77 0.76 0.70 0.67 0.64 0.64 0.62 0.61 0.58 0.55 0.48 0.42 0.41 0.41 0.44 0.45 0.45 0.46 0.46
0.78 0.81 0.85 0.88 0.86 0.99 1.02 0.87 0.75 0.81 0.80 0.80 0.69 0.65 0.66 0.69 0.66 0.60 0.61 0.61 0.57 0.53 0.63 0.76 0.82 0.81 0.78 0.76 0.70 0.68 0.68 0.68 0.67 0.61 0.54 0.49 0.48 0.47 0.46 0.49 0.50 0.49 0.47
1.11 1.15 1.22 1.16 1.09 1.09 1.11 1.05 0.96 0.96 0.97 0.85 0.75 0.74 0.76 0.69 0.62 0.65 0.70 0.72 0.72 0.70 0.70 0.70 0.73 0.78 0.85 0.87 0.88 0.84 0.81 0.78 0.71 0.67 0.64 0.59 0.55 0.53 0.51 0.51 0.52 0.51 0.49
1.40 1.52 1.56 1.37 1.28 1.26 1.32 1.32 1.19 1.14 1.16 1.15 0.96 0.82 0.83 0.81 0.68 0.67 0.68 0.71 0.79 0.77 0.74 0.68 0.69 0.72 0.75 0.81 0.90 0.94 0.92 0.86 0.82 0.78 0.76 0.72 0.67 0.61 0.55 0.53 0.52 0.51 0.52
1.55 1.66 1.71 1.65 1.51 1.50 1.55 1.47 1.55 1.45 1.43 1.30 1.06 0.90 0.79 0.74 0.72 0.69 0.73 0.76 0.75 0.75 0.80 0.79 0.76 0.75 0.76 0.80 0.82 0.84 0.89 0.92 0.92 0.87 0.83 0.81 0.76 0.69 0.61 0.57 0.56 0.56 0.58
1.86 2.02 1.97 1.95 1.87 1.86 1.91 1.82 1.77 1.62 1.45 1.34 1.13 0.94 0.78 0.65 0.67 0.71 0.69 0.65 0.61 0.59 0.59 0.59 0.60 0.61 0.66 0.72 0.74 0.80 0.95 1.03 1.02 0.97 0.95 0.94 0.88 0.78 0.67 0.63 0.61 0.60 0.60
2.51 2.66 2.58 2.47 2.28 2.17 2.12 1.99 1.84 1.68 1.51 1.45 1.39 1.15 0.88 0.69 0.63 0.59 0.57 0.54 0.49 0.46 0.43 0.45 0.49 0.50 0.54 0.61 0.66 0.72 0.85 0.94 0.96 0.99 1.00 0.99 0.95 0.89 0.82 0.75 0.71 0.69 0.67
3.21 3.19 3.07 2.81 2.53 2.28 2.07 1.92 1.76 1.62 1.46 1.40 1.40 1.32 1.10 0.87 0.65 0.50 0.49 0.46 0.45 0.45 0.43 0.41 0.40 0.38 0.39 0.43 0.49 0.56 0.62 0.65 0.69 0.77 0.82 0.84 0.85 0.87 0.88 0.86 0.83 0.82 0.80
3.15 3.03 2.92 2.76 2.52 2.28 2.06 1.92 1.79 1.65 1.47 1.39 1.36 1.35 1.23 0.96 0.70 0.53 0.44 0.40 0.40 0.40 0.40 0.39 0.37 0.34 0.34 0.34 0.38 0.46 0.53 0.54 0.54 0.61 0.69 0.74 0.77 0.81 0.84 0.87 0.88 0.89 0.90
2.82 2.65 2.64 2.58 2.42 2.20 2.00 1.82 1.69 1.57 1.51 1.40 1.27 1.14 1.03 0.86 0.80 0.69 0.54 0.44 0.39 0.38 0.38 0.37 0.37 0.37 0.38 0.37 0.41 0.45 0.49 0.50 0.50 0.52 0.57 0.62 0.67 0.70 0.74 0.77 0.84 0.91 0.95
2.53 2.37 2.31 2.19 1.99 1.83 1.69 1.53 1.41 1.37 1.36 1.33 1.24 1.13 1.06 0.93 0.80 0.77 0.67 0.50 0.43 0.38 0.35 0.34 0.34 0.36 0.36 0.36 0.38 0.42 0.48 0.48 0.49 0.50 0.51 0.53 0.58 0.62 0.68 0.76 0.84 0.93 1.02
2.34 2.11 1.88 1.74 1.64 1.50 1.33 1.20 1.10 1.02 1.00 1.02 1.03 0.99 0.92 0.90 0.84 0.81 0.74 0.62 0.55 0.48 0.41 0.39 0.38 0.38 0.38 0.36 0.37 0.44 0.47 0.50 0.50 0.47 0.46 0.46 0.47 0.50 0.55 0.63 0.76 0.90 1.06
1.89 1.69 1.51 1.38 1.30 1.24 1.13 1.02 0.94 0.85 0.78 0.77 0.77 0.81 0.80 0.76 0.72 0.74 0.77 0.71 0.64 0.53 0.43 0.38 0.33 0.30 0.32 0.35 0.41 0.43 0.41 0.42 0.42 0.41 0.41 0.43 0.45 0.49 0.50 0.54 0.59 0.69 0.81
1.44 1.23 1.11 1.04 0.94 0.85 0.82 0.80 0.79 0.75 0.69 0.69 0.69 0.72 0.75 0.73 0.68 0.67 0.70 0.74 0.71 0.58 0.49 0.41 0.32 0.29 0.33 0.37 0.44 0.37 0.41 0.38 0.36 0.37 0.39 0.44 0.48 0.57 0.57 0.52 0.49 0.53 0.57
1.07 0.94 0.85 0.79 0.74 0.69 0.65 0.63 0.62 0.63 0.63 0.61 0.61 0.62 0.63 0.60 0.57 0.55 0.57 0.65 0.72 0.65 0.55 0.43 0.37 0.36 0.41 0.43 0.47 0.46 0.51 0.44 0.41 0.46 0.47 0.51 0.58 0.67 0.68 0.59 0.52 0.46 0.45
0.81 0.74 0.69 0.65 0.61 0.57 0.57 0.58 0.58 0.57 0.55 0.52 0.47 0.42 0.38 0.35 0.35 0.34 0.38 0.44 0.53 0.62 0.60 0.43 0.36 0.39 0.43 0.41 0.47 0.50 0.51 0.49 0.52 0.74 0.85 0.76 0.71 0.85 0.94 0.82 0.67 0.58 0.53
0.60 0.59 0.55 0.53 0.51 0.49 0.49 0.48 0.45 0.41 0.37 0.34 0.30 0.28 0.28 0.28 0.29 0.28 0.31 0.37 0.44 0.55 0.63 0.46 0.36 0.38 0.44 0.44 0.47 0.50 0.50 0.53 0.65 1.04 1.30 1.47 1.21 1.09 1.15 1.03 0.87 0.71 0.61
0.55 0.52 0.46 0.44 0.42 0.38 0.34 0.32 0.30 0.26 0.26 0.25 0.25 0.26 0.25 0.26 0.27 0.28 0.32 0.37 0.42 0.53 0.69 0.64 0.50 0.51 0.53 0.53 0.62 0.65 0.57 0.50 0.57 1.00 1.37 1.71 1.66 1.45 1.46 1.28 1.08 0.82 0.66
0.45 0.41 0.37 0.36 0.34 0.32 0.29 0.27 0.25 0.23 0.22 0.23 0.24 0.25 0.25 0.27 0.30 0.34 0.42 0.47 0.49 0.54 0.69 0.75 0.64 0.64 0.69 0.74 0.85 0.78 0.67 0.64 0.52 0.78 1.24 1.58 1.77 1.84 1.93 1.78 1.46 1.07 0.77
0.40 0.41 0.38 0.32 0.27 0.24 0.22 0.21 0.19 0.18 0.20 0.21 0.23 0.27 0.30 0.35 0.40 0.46 0.49 0.53 0.57 0.63 0.68 0.76 0.73 0.76 0.81 0.86 0.92 0.91 0.77 0.68 0.61 0.65 1.08 1.57 1.90 1.97 2.16 2.29 1.99 1.48 1.04
0.40 0.39 0.37 0.33 0.28 0.23 0.19 0.15 0.13 0.15 0.19 0.22 0.25 0.27 0.30 0.38 0.45 0.44 0.42 0.46 0.57 0.70 0.73 0.81 0.82 0.79 0.78 0.88 0.91 0.79 0.70 0.61 0.55 0.59 0.78 1.22 1.90 2.23 2.30 2.37 2.27 1.77 1.29
0.41 0.36 0.33 0.29 0.26 0.19 0.17 0.15 0.13 0.15 0.21 0.26 0.29 0.28 0.25 0.26 0.25 0.27 0.34 0.40 0.50 0.69 0.92 1.04 0.96 0.86 0.74 0.75 0.78 0.73 0.72 0.67 0.60 0.47 0.51 0.82 1.43 2.14 2.42 2.44 2.34 1.78 1.28
0.33 0.30 0.26 0.22 0.21 0.17 0.14 0.12 0.12 0.15 0.23 0.31 0.33 0.30 0.23 0.18 0.21 0.25 0.29 0.34 0.45 0.61 0.84 1.11 1.15 0.91 0.82 0.78 0.81 0.81 0.82 0.83 0.75 0.53 0.55 0.79 1.20 1.89 2.16 2.22 2.10 1.54 1.14
0.28 0.27 0.23 0.20 0.20 0.14 0.10 0.10 0.10 0.13 0.21 0.26 0.29 0.28 0.30 0.29 0.25 0.26 0.28 0.35 0.48 0.64 0.75 0.82 1.08 0.94 0.76 0.73 0.76 0.76 0.81 0.81 0.72 0.58 0.59 0.81 1.16 1.64 1.72 1.83 1.78 1.39 1.07
0.27 0.23 0.18 0.18 0.20 0.16 0.08 0.07 0.07 0.11 0.17 0.20 0.22 0.21 0.20 0.24 0.24 0.34 0.44 0.60 0.74 0.90 0.88 0.98 1.14 1.10 0.98 0.89 0.76 0.72 0.81 0.80 0.75 0.65 0.62 0.76 1.03 1.21 1.35 1.49 1.41 1.28 1.07
0.23 0.18 0.14 0.16 0.18 0.16 0.07 0.05 0.05 0.09 0.14 0.17 0.21 0.25 0.19 0.18 0.26 0.43 0.61 0.81 0.94 1.05 0.97 1.06 1.27 1.33 1.17 1.14 1.09 0.94 0.91 0.83 0.78 0.76 0.66 0.68 0.86 0.90 1.15 1.24 1.19 1.11 1.07

GEFSMA_prec_meanprecacc_132.txt.gz
Total_Precipitation_Accumulation
0.68 0.70 0.70 0.76 0.75 0.85 0.87 0.73 0.60 0.62 0.62 0.61 0.56 0.57 0.56 0.55 0.55 0.60 0.65 0.57 0.50 0.61 0.81 0.91 0.91 0.87 0.80 0.76 0.73 0.72 0.70 0.69 0.65 0.60 0.52 0.46 0.44 0.45 0.47 0.48 0.48 0.49 0.50
0.86 0.89 0.93 0.95 0.93 1.05 1.08 0.93 0.82 0.90 0.88 0.89 0.77 0.72 0.73 0.76 0.73 0.69 0.71 0.70 0.62 0.58 0.69 0.85 0.94 0.95 0.91 0.86 0.81 0.76 0.74 0.74 0.72 0.66 0.58 0.52 0.50 0.49 0.49 0.52 0.53 0.53 0.49
1.20 1.25 1.31 1.26 1.19 1.19 1.20 1.13 1.05 1.05 1.07 0.94 0.84 0.83 0.85 0.77 0.70 0.75 0.82 0.86 0.82 0.76 0.76 0.78 0.84 0.91 0.98 1.00 0.99 0.92 0.85 0.82 0.75 0.71 0.67 0.62 0.58 0.55 0.53 0.53 0.54 0.54 0.51
1.50 1.63 1.67 1.49 1.40 1.37 1.42 1.42 1.28 1.23 1.25 1.23 1.05 0.91 0.93 0.91 0.80 0.78 0.80 0.83 0.92 0.90 0.85 0.76 0.78 0.82 0.86 0.94 1.01 1.02 0.97 0.90 0.86 0.82 0.79 0.75 0.70 0.63 0.57 0.54 0.53 0.53 0.54
1.66 1.80 1.86 1.78 1.62 1.63 1.68 1.60 1.67 1.57 1.55 1.40 1.15 1.00 0.89 0.82 0.82 0.79 0.83 0.87 0.86 0.88 0.95 0.91 0.87 0.86 0.89 0.95 0.95 0.94 0.96 0.98 0.96 0.91 0.87 0.85 0.78 0.71 0.63 0.59 0.57 0.58 0.60
1.97 2.14 2.11 2.08 1.97 1.97 2.04 1.95 1.91 1.77 1.61 1.47 1.27 1.09 0.90 0.75 0.75 0.79 0.78 0.76 0.73 0.71 0.74 0.76 0.79 0.76 0.79 0.84 0.86 0.93 1.06 1.11 1.08 1.02 0.99 0.97 0.92 0.81 0.69 0.65 0.62 0.62 0.63
2.66 2.78 2.69 2.57 2.38 2.28 2.26 2.14 2.00 1.85 1.71 1.65 1.57 1.34 1.03 0.80 0.72 0.68 0.66 0.63 0.59 0.58 0.55 0.58 0.63 0.63 0.63 0.69 0.74 0.81 0.95 1.04 1.04 1.05 1.06 1.04 1.00 0.93 0.85 0.77 0.72 0.71 0.69
3.34 3.30 3.18 2.90 2.62 2.41 2.23 2.06 1.91 1.77 1.62 1.56 1.55 1.49 1.27 1.02 0.77 0.60 0.60 0.58 0.56 0.56 0.54 0.51 0.52 0.50 0.48 0.51 0.55 0.62 0.70 0.73 0.78 0.84 0.88 0.89 0.91 0.93 0.94 0.91 0.87 0.85 0.82
3.23 3.12 3.01 2.84 2.60 2.39 2.19 2.07 1.94 1.82 1.66 1.59 1.55 1.55 1.41 1.13 0.84 0.67 0.59 0.56 0.54 0.52 0.49 0.48 0.48 0.46 0.44 0.44 0.46 0.54 0.61 0.61 0.61 0.68 0.76 0.80 0.83 0.87 0.90 0.93 0.93 0.94 0.93
2.92 2.75 2.74 2.68 2.52 2.32 2.12 1.96 1.83 1.75 1.72 1.61 1.49 1.33 1.21 1.03 0.96 0.84 0.71 0.62 0.55 0.51 0.47 0.43 0.43 0.45 0.48 0.49 0.53 0.56 0.61 0.60 0.58 0.60 0.64 0.68 0.73 0.76 0.80 0.84 0.90 0.97 1.01
2.63 2.48 2.44 2.35 2.15 1.99 1.85 1.70 1.58 1.53 1.54 1.50 1.41 1.32 1.25 1.10 0.97 0.93 0.84 0.69 0.61 0.54 0.46 0.42 0.41 0.43 0.46 0.48 0.50 0.56 0.62 0.59 0.59 0.60 0.62 0.65 0.70 0.76 0.82 0.88 0.97 1.07 1.15
2.40 2.18 1.96 1.84 1.78 1.64 1.46 1.34 1.25 1.17 1.16 1.18 1.19 1.15 1.07 1.06 1.01 0.98 0.91 0.79 0.72 0.65 0.55 0.51 0.48 0.46 0.46 0.43 0.44 0.54 0.57 0.59 0.58 0.56 0.55 0.57 0.61 0.67 0.74 0.82 0.95 1.08 1.21
1.94 1.74 1.56 1.43 1.37 1.33 1.24 1.13 1.06 0.97 0.92 0.92 0.91 0.95 0.96 0.93 0.88 0.91 0.96 0.93 0.84 0.72 0.60 0.52 0.44 0.40 0.40 0.44 0.51 0.54 0.53 0.54 0.52 0.49 0.50 0.54 0.57 0.61 0.62 0.66 0.72 0.83 0.93
1.48 1.26 1.14 1.07 0.98 0.91 0.88 0.86 0.87 0.85 0.82 0.84 0.84 0.87 0.91 0.88 0.85 0.85 0.89 0.95 0.93 0.80 0.66 0.54 0.43 0.40 0.42 0.46 0.53 0.46 0.49 0.46 0.44 0.47 0.48 0.52 0.56 0.64 0.65 0.61 0.58 0.61 0.65
1.10 0.97 0.88 0.82 0.77 0.73 0.69 0.67 0.67 0.69 0.71 0.72 0.73 0.74 0.77 0.75 0.74 0.75 0.78 0.85 0.91 0.86 0.75 0.59 0.51 0.49 0.53 0.52 0.55 0.53 0.57 0.50 0.46 0.52 0.53 0.58 0.65 0.75 0.76 0.66 0.57 0.51 0.50
0.84 0.77 0.73 0.69 0.64 0.60 0.60 0.62 0.62 0.62 0.62 0.60 0.55 0.50 0.47 0.44 0.45 0.48 0.55 0.63 0.71 0.78 0.77 0.60 0.51 0.53 0.56 0.51 0.56 0.57 0.57 0.54 0.56 0.78 0.89 0.80 0.75 0.90 0.99 0.87 0.72 0.62 0.58
0.63 0.62 0.58 0.56 0.54 0.53 0.52 0.51 0.49 0.45 0.42 0.39 0.37 0.36 0.36 0.34 0.34 0.36 0.40 0.50 0.61 0.72 0.80 0.62 0.51 0.53 0.58 0.55 0.54 0.56 0.55 0.58 0.69 1.09 1.33 1.50 1.24 1.13 1.18 1.08 0.92 0.75 0.65
0.58 0.55 0.50 0.47 0.45 0.41 0.38 0.35 0.32 0.30 0.30 0.30 0.30 0.32 0.32 0.33 0.32 0.33 0.38 0.46 0.56 0.69 0.84 0.77 0.63 0.64 0.64 0.62 0.68 0.69 0.60 0.53 0.60 1.03 1.40 1.73 1.69 1.48 1.49 1.32 1.12 0.86 0.70
0.49 0.46 0.42 0.40 0.37 0.36 0.33 0.29 0.28 0.26 0.25 0.26 0.28 0.29 0.30 0.34 0.37 0.39 0.46 0.52 0.57 0.64 0.80 0.85 0.75 0.75 0.79 0.82 0.92 0.84 0.71 0.67 0.54 0.80 1.25 1.59 1.79 1.85 1.95 1.80 1.48 1.10 0.80
0.43 0.45 0.43 0.36 0.30 0.26 0.25 0.24 0.21 0.21 0.22 0.24 0.26 0.30 0.32 0.38 0.44 0.50 0.52 0.56 0.62 0.69 0.75 0.84 0.83 0.86 0.90 0.95 1.00 0.98 0.82 0.72 0.64 0.67 1.10 1.58 1.92 1.98 2.18 2.31 2.01 1.50 1.06
0.41 0.41 0.39 0.36 0.30 0.24 0.20 0.16 0.14 0.16 0.21 0.25 0.28 0.29 0.32 0.40 0.47 0.47 0.44 0.48 0.61 0.75 0.79 0.88 0.90 0.88 0.86 0.95 0.97 0.84 0.74 0.65 0.59 0.62 0.81 1.24 1.92 2.26 2.33 2.39 2.29 1.79 1.30
0.43 0.38 0.36 0.32 0.28 0.20 0.18 0.16 0.14 0.17 0.22 0.28 0.31 0.30 0.27 0.28 0.27 0.29 0.36 0.43 0.54 0.73 0.97 1.10 1.02 0.93 0.80 0.81 0.83 0.77 0.75 0.70 0.64 0.50 0.54 0.85 1.45 2.17 2.45 2.47 2.36 1.79 1.29
0.38 0.34 0.30 0.27 0.26 0.20 0.15 0.13 0.13 0.17 0.25 0.33 0.35 0.33 0.25 0.19 0.23 0.27 0.31 0.36 0.47 0.63 0.87 1.16 1.21 0.97 0.88 0.83 0.85 0.85 0.86 0.87 0.80 0.57 0.58 0.82 1.23 1.91 2.17 2.23 2.11 1.55 1.14
0.33 0.33 0.30 0.26 0.25 0.17 0.12 0.11 0.12 0.16 0.25 0.29 0.31 0.31 0.32 0.30 0.26 0.27 0.30 0.37 0.50 0.66 0.76 0.84 1.11 0.97 0.78 0.76 0.79 0.80 0.85 0.86 0.78 0.63 0.61 0.85 1.19 1.66 1.74 1.84 1.80 1.40 1.08
0.32 0.28 0.23 0.23 0.24 0.20 0.11 0.09 0.10 0.16 0.21 0.23 0.25 0.24 0.22 0.26 0.25 0.35 0.46 0.63 0.76 0.91 0.89 1.00 1.15 1.12 1.00 0.91 0.78 0.75 0.86 0.86 0.82 0.71 0.66 0.81 1.06 1.23 1.37 1.51 1.43 1.30 1.09
0.27 0.22 0.19 0.21 0.21 0.18 0.09 0.06 0.07 0.13 0.20 0.22 0.25 0.28 0.23 0.21 0.28 0.44 0.64 0.85 0.97 1.08 0.99 1.07 1.29 1.34 1.19 1.15 1.10 0.97 0.95 0.88 0.83 0.82 0.69 0.72 0.90 0.93 1.18 1.27 1.20 1.13 1.09

GEFSMA_prec_meanprecacc_138.txt.gz
Total_Precipitation_Accumulation
0.82 0.84 0.87 0.98 0.93 1.02 1.04 0.87 0.71 0.73 0.72 0.71 0.63 0.63 0.62 0.61 0.64 0.71 0.77 0.70 0.65 0.73 0.90 0.99 0.99 0.94 0.88 0.84 0.79 0.79 0.77 0.75 0.71 0.65 0.56 0.49 0.47 0.47 0.49 0.50 0.50 0.51 0.52
1.03 1.06 1.10 1.13 1.10 1.25 1.29 1.08 0.95 1.03 1.01 1.01 0.85 0.79 0.78 0.82 0.81 0.78 0.82 0.83 0.71 0.67 0.77 0.93 1.01 1.02 0.99 0.94 0.87 0.83 0.81 0.81 0.78 0.71 0.62 0.55 0.52 0.51 0.50 0.53 0.55 0.54 0.51
1.39 1.44 1.52 1.46 1.37 1.36 1.38 1.29 1.20 1.19 1.21 1.07 0.95 0.92 0.94 0.85 0.80 0.86 0.94 1.00 0.94 0.84 0.82 0.85 0.91 0.99 1.08 1.11 1.09 1.01 0.94 0.89 0.83 0.77 0.72 0.66 0.60 0.57 0.54 0.54 0.55 0.55 0.53
1.67 1.83 1.87 1.67 1.57 1.53 1.60 1.60 1.46 1.40 1.40 1.38 1.19 1.01 1.04 1.02 0.90 0.89 0.92 0.97 1.07 1.02 0.95 0.85 0.88 0.93 0.97 1.05 1.12 1.13 1.06 0.98 0.93 0.88 0.84 0.79 0.73 0.65 0.59 0.56 0.55 0.55 0.55
1.83 2.00 2.05 1.97 1.80 1.82 1.86 1.78 1.87 1.75 1.70 1.54 1.28 1.12 1.00 0.93 0.94 0.90 0.94 0.99 0.99 1.00 1.06 1.04 1.01 0.99 1.00 1.07 1.10 1.09 1.09 1.07 1.03 0.98 0.93 0.90 0.82 0.74 0.65 0.61 0.59 0.60 0.61
2.07 2.27 2.27 2.28 2.18 2.18 2.23 2.16 2.14 1.98 1.78 1.61 1.39 1.21 1.02 0.85 0.86 0.91 0.90 0.88 0.84 0.81 0.84 0.89 0.97 0.95 0.95 0.99 1.04 1.14 1.28 1.27 1.18 1.09 1.05 1.03 0.96 0.85 0.73 0.68 0.65 0.64 0.64
2.73 2.87 2.80 2.70 2.52 2.44 2.42 2.32 2.20 2.04 1.88 1.82 1.71 1.46 1.14 0.91 0.82 0.79 0.78 0.75 0.69 0.68 0.66 0.70 0.78 0.82 0.83 0.84 0.87 0.95 1.11 1.20 1.18 1.16 1.14 1.10 1.05 0.98 0.90 0.82 0.76 0.74 0.72
3.38 3.34 3.24 2.98 2.73 2.52 2.36 2.22 2.07 1.94 1.79 1.73 1.71 1.65 1.42 1.14 0.87 0.70 0.71 0.70 0.69 0.71 0.69 0.64 0.65 0.67 0.66 0.66 0.66 0.72 0.79 0.82 0.87 0.95 0.99 0.98 0.97 0.99 1.00 0.97 0.93 0.90 0.87
3.24 3.14 3.04 2.89 2.67 2.48 2.30 2.22 2.11 2.00 1.85 1.79 1.76 1.76 1.60 1.28 0.96 0.77 0.69 0.68 0.70 0.68 0.65 0.63 0.62 0.62 0.60 0.58 0.58 0.65 0.70 0.69 0.68 0.75 0.85 0.88 0.90 0.93 0.95 0.98 0.99 0.99 0.99
2.93 2.77 2.77 2.73 2.59 2.40 2.21 2.06 1.97 1.93 1.91 1.80 1.66 1.49 1.35 1.15 1.08 0.96 0.81 0.74 0.70 0.67 0.63 0.59 0.58 0.59 0.61 0.61 0.64 0.67 0.70 0.69 0.68 0.69 0.73 0.77 0.80 0.82 0.86 0.90 0.96 1.03 1.07
2.66 2.50 2.48 2.41 2.23 2.09 1.95 1.81 1.71 1.67 1.69 1.65 1.55 1.45 1.36 1.21 1.07 1.02 0.94 0.82 0.77 0.70 0.61 0.57 0.56 0.58 0.60 0.60 0.62 0.67 0.73 0.70 0.71 0.72 0.72 0.73 0.77 0.83 0.88 0.95 1.05 1.16 1.26
2.44 2.21 2.00 1.89 1.86 1.74 1.55 1.42 1.34 1.28 1.28 1.33 1.36 1.29 1.19 1.17 1.13 1.10 1.05 0.94 0.89 0.82 0.71 0.66 0.63 0.59 0.60 0.56 0.55 0.67 0.68 0.68 0.68 0.65 0.65 0.65 0.67 0.73 0.81 0.89 1.02 1.18 1.35
1.96 1.77 1.59 1.46 1.43 1.40 1.31 1.18 1.11 1.04 1.02 1.05 1.07 1.11 1.10 1.06 1.01 1.05 1.13 1.10 1.01 0.88 0.73 0.63 0.55 0.49 0.50 0.54 0.60 0.64 0.62 0.63 0.60 0.57 0.59 0.62 0.64 0.66 0.66 0.71 0.78 0.91 1.04
1.50 1.28 1.17 1.10 1.02 0.95 0.91 0.90 0.91 0.90 0.88 0.92 0.94 0.99 1.03 0.99 0.98 0.98 1.01 1.08 1.08 0.94 0.79 0.66 0.54 0.51 0.53 0.56 0.61 0.54 0.56 0.54 0.52 0.53 0.54 0.57 0.61 0.69 0.68 0.64 0.63 0.68 0.73
1.12 1.00 0.90 0.84 0.80 0.76 0.71 0.69 0.71 0.73 0.75 0.76 0.78 0.81 0.84 0.82 0.83 0.86 0.89 0.95 1.02 0.98 0.87 0.70 0.64 0.63 0.65 0.63 0.67 0.61 0.64 0.57 0.53 0.56 0.57 0.61 0.69 0.81 0.81 0.71 0.62 0.56 0.54
0.86 0.80 0.76 0.72 0.68 0.64 0.63 0.65 0.65 0.66 0.66 0.64 0.60 0.56 0.54 0.53 0.54 0.56 0.63 0.71 0.79 0.87 0.88 0.71 0.64 0.66 0.69 0.63 0.69 0.66 0.65 0.63 0.62 0.83 0.93 0.83 0.77 0.93 1.04 0.94 0.79 0.67 0.62
0.65 0.63 0.60 0.58 0.57 0.56 0.55 0.55 0.52 0.49 0.46 0.45 0.43 0.43 0.44 0.42 0.42 0.42 0.46 0.57 0.68 0.80 0.90 0.74 0.64 0.65 0.71 0.69 0.69 0.68 0.65 0.66 0.76 1.14 1.38 1.54 1.27 1.15 1.21 1.12 0.96 0.79 0.68
0.59 0.57 0.51 0.49 0.46 0.43 0.40 0.37 0.35 0.33 0.35 0.37 0.38 0.40 0.41 0.40 0.39 0.39 0.44 0.52 0.62 0.77 0.93 0.89 0.75 0.75 0.76 0.73 0.80 0.80 0.70 0.60 0.67 1.09 1.44 1.77 1.72 1.51 1.52 1.34 1.14 0.88 0.72
0.51 0.48 0.45 0.43 0.40 0.39 0.35 0.31 0.30 0.29 0.31 0.34 0.36 0.39 0.40 0.46 0.46 0.46 0.52 0.58 0.63 0.71 0.88 0.93 0.85 0.86 0.90 0.93 1.04 0.95 0.81 0.76 0.60 0.85 1.29 1.62 1.81 1.87 1.97 1.82 1.50 1.12 0.83
0.45 0.48 0.48 0.40 0.33 0.30 0.30 0.28 0.25 0.26 0.28 0.30 0.33 0.38 0.41 0.49 0.54 0.56 0.57 0.61 0.67 0.76 0.83 0.93 0.93 0.97 1.01 1.06 1.12 1.09 0.92 0.79 0.69 0.70 1.13 1.60 1.93 2.00 2.19 2.32 2.02 1.51 1.07
0.43 0.43 0.44 0.41 0.36 0.30 0.26 0.23 0.20 0.23 0.28 0.32 0.33 0.34 0.38 0.46 0.54 0.51 0.48 0.51 0.64 0.81 0.86 0.95 0.98 0.96 0.94 1.04 1.06 0.92 0.82 0.72 0.64 0.65 0.84 1.27 1.95 2.28 2.34 2.40 2.29 1.79 1.31
0.46 0.42 0.41 0.39 0.36 0.27 0.25 0.21 0.18 0.23 0.29 0.34 0.36 0.35 0.31 0.33 0.32 0.34 0.39 0.45 0.56 0.77 1.03 1.16 1.08 1.00 0.88 0.88 0.90 0.85 0.83 0.78 0.72 0.55 0.58 0.90 1.49 2.22 2.48 2.48 2.37 1.80 1.29
0.44 0.40 0.36 0.34 0.32 0.26 0.21 0.18 0.17 0.21 0.30 0.38 0.40 0.37 0.28 0.21 0.26 0.32 0.35 0.38 0.50 0.66 0.90 1.20 1.27 1.02 0.93 0.88 0.90 0.91 0.92 0.94 0.87 0.62 0.63 0.88 1.28 1.95 2.20 2.25 2.13 1.56 1.14
0.40 0.40 0.37 0.34 0.31 0.21 0.16 0.14 0.15 0.21 0.30 0.34 0.35 0.36 0.36 0.33 0.27 0.29 0.33 0.41 0.55 0.69 0.78 0.87 1.15 1.00 0.81 0.79 0.83 0.84 0.89 0.91 0.84 0.68 0.66 0.92 1.25 1.71 1.76 1.86 1.81 1.41 1.08
0.39 0.35 0.30 0.30 0.30 0.24 0.15 0.12 0.13 0.21 0.26 0.27 0.28 0.27 0.25 0.27 0.26 0.35 0.50 0.68 0.82 0.95 0.90 1.01 1.17 1.13 1.02 0.93 0.80 0.79 0.91 0.92 0.89 0.78 0.71 0.86 1.12 1.28 1.41 1.54 1.45 1.30 1.09
0.35 0.28 0.24 0.26 0.27 0.24 0.13 0.10 0.11 0.18 0.25 0.27 0.30 0.31 0.24 0.22 0.30 0.45 0.68 0.91 1.03 1.12 1.03 1.10 1.31 1.36 1.20 1.16 1.12 1.00 1.00 0.95 0.90 0.89 0.73 0.76 0.95 0.97 1.23 1.31 1.23 1.15 1.10

GEFSMA_prec_meanprecacc_144.txt.gz
Total_Precipitation_Accumulation
1.00 0.98 1.01 1.15 1.13 1.18 1.19 0.98 0.80 0.81 0.80 0.82 0.74 0.72 0.74 0.73 0.75 0.81 0.85 0.83 0.80 0.93 1.07 1.11 1.08 1.03 0.95 0.91 0.87 0.86 0.83 0.81 0.75 0.69 0.58 0.50 0.49 0.48 0.50 0.52 0.52 0.53 0.53
1.18 1.20 1.25 1.31 1.30 1.43 1.48 1.22 1.07 1.15 1.09 1.10 0.98 0.92 0.90 0.93 0.93 0.90 0.94 0.94 0.83 0.81 0.90 1.03 1.10 1.10 1.07 1.02 0.94 0.90 0.87 0.87 0.83 0.75 0.66 0.58 0.54 0.53 0.52 0.55 0.56 0.56 0.52
1.54 1.62 1.69 1.61 1.53 1.50 1.52 1.45 1.35 1.33 1.32 1.17 1.08 1.08 1.12 1.02 0.96 1.03 1.12 1.12 1.03 0.94 0.94 0.94 0.99 1.07 1.16 1.19 1.18 1.09 1.01 0.95 0.88 0.82 0.77 0.70 0.63 0.59 0.56 0.55 0.56 0.56 0.54
1.79 1.98 2.04 1.83 1.69 1.65 1.72 1.76 1.62 1.56 1.56 1.52 1.30 1.14 1.21 1.20 1.09 1.09 1.10 1.10 1.16 1.11 1.04 0.93 0.95 1.01 1.07 1.15 1.23 1.23 1.15 1.04 0.98 0.93 0.88 0.83 0.77 0.69 0.61 0.57 0.56 0.55 0.56
1.95 2.13 2.19 2.12 1.93 1.92 1.99 1.93 2.04 1.92 1.88 1.69 1.41 1.25 1.14 1.06 1.08 1.07 1.09 1.11 1.08 1.07 1.12 1.10 1.08 1.08 1.10 1.17 1.21 1.21 1.19 1.15 1.10 1.03 0.98 0.95 0.87 0.78 0.69 0.64 0.61 0.61 0.62
2.13 2.33 2.36 2.38 2.26 2.27 2.35 2.31 2.31 2.16 1.94 1.75 1.52 1.34 1.14 0.96 0.96 1.01 1.02 0.99 0.93 0.89 0.91 0.95 1.04 1.03 1.05 1.09 1.16 1.27 1.41 1.40 1.28 1.15 1.11 1.08 1.01 0.89 0.77 0.72 0.68 0.66 0.65
2.79 2.93 2.85 2.75 2.58 2.50 2.48 2.40 2.28 2.18 2.03 1.94 1.82 1.57 1.25 0.99 0.88 0.86 0.89 0.87 0.80 0.79 0.76 0.80 0.86 0.89 0.91 0.94 1.00 1.09 1.27 1.37 1.35 1.27 1.21 1.16 1.10 1.02 0.94 0.85 0.79 0.76 0.74
3.42 3.37 3.26 3.00 2.75 2.56 2.40 2.28 2.13 2.00 1.88 1.83 1.81 1.74 1.51 1.22 0.93 0.76 0.81 0.82 0.80 0.81 0.79 0.75 0.76 0.77 0.76 0.80 0.84 0.86 0.92 0.97 1.05 1.15 1.12 1.06 1.04 1.04 1.04 1.01 0.96 0.93 0.89
3.25 3.14 3.04 2.90 2.69 2.49 2.32 2.26 2.17 2.06 1.91 1.87 1.84 1.85 1.67 1.35 1.03 0.85 0.77 0.78 0.81 0.80 0.77 0.75 0.73 0.74 0.75 0.73 0.73 0.80 0.85 0.82 0.81 0.88 0.96 0.97 0.98 1.00 1.02 1.04 1.03 1.03 1.02
2.94 2.78 2.78 2.74 2.60 2.42 2.25 2.10 2.03 2.01 2.01 1.90 1.78 1.60 1.43 1.23 1.17 1.04 0.89 0.82 0.78 0.75 0.72 0.70 0.68 0.70 0.72 0.73 0.78 0.83 0.85 0.80 0.77 0.77 0.81 0.85 0.87 0.89 0.92 0.96 1.02 1.08 1.12
2.67 2.52 2.50 2.42 2.25 2.11 1.99 1.84 1.75 1.73 1.76 1.74 1.65 1.56 1.47 1.32 1.17 1.10 1.01 0.88 0.84 0.77 0.69 0.66 0.66 0.68 0.70 0.72 0.75 0.80 0.84 0.78 0.79 0.80 0.80 0.82 0.85 0.90 0.95 1.01 1.11 1.22 1.32
2.47 2.24 2.03 1.91 1.89 1.77 1.57 1.45 1.37 1.32 1.33 1.38 1.43 1.38 1.30 1.28 1.22 1.17 1.10 1.00 0.94 0.88 0.77 0.74 0.71 0.68 0.69 0.66 0.66 0.78 0.77 0.75 0.74 0.73 0.74 0.75 0.76 0.81 0.88 0.95 1.08 1.24 1.40
1.99 1.80 1.62 1.51 1.46 1.43 1.34 1.22 1.15 1.07 1.04 1.08 1.11 1.17 1.18 1.16 1.11 1.14 1.19 1.16 1.06 0.93 0.79 0.70 0.61 0.55 0.57 0.62 0.70 0.74 0.70 0.69 0.64 0.62 0.65 0.72 0.75 0.74 0.73 0.77 0.86 0.98 1.10
1.53 1.32 1.21 1.13 1.05 0.97 0.94 0.94 0.98 0.95 0.91 0.94 0.97 1.05 1.10 1.09 1.07 1.07 1.09 1.15 1.15 1.00 0.85 0.71 0.60 0.55 0.57 0.61 0.69 0.62 0.63 0.62 0.58 0.58 0.59 0.64 0.70 0.79 0.75 0.69 0.68 0.73 0.79
1.15 1.03 0.92 0.86 0.82 0.78 0.74 0.73 0.77 0.81 0.79 0.80 0.83 0.87 0.92 0.90 0.90 0.94 0.97 1.03 1.09 1.04 0.92 0.74 0.69 0.68 0.69 0.68 0.75 0.67 0.69 0.63 0.59 0.65 0.64 0.68 0.76 0.90 0.90 0.77 0.66 0.60 0.59
0.88 0.81 0.77 0.73 0.70 0.66 0.66 0.67 0.68 0.69 0.70 0.68 0.64 0.60 0.59 0.59 0.62 0.64 0.70 0.78 0.86 0.94 0.93 0.75 0.68 0.71 0.74 0.68 0.76 0.70 0.68 0.67 0.67 0.89 1.00 0.90 0.84 1.00 1.12 1.01 0.85 0.73 0.67
0.67 0.66 0.62 0.60 0.58 0.58 0.58 0.58 0.55 0.52 0.50 0.48 0.46 0.46 0.49 0.48 0.49 0.49 0.53 0.63 0.73 0.84 0.94 0.78 0.68 0.70 0.76 0.74 0.75 0.73 0.70 0.71 0.82 1.21 1.44 1.61 1.33 1.21 1.27 1.17 1.02 0.84 0.73
0.60 0.58 0.52 0.49 0.47 0.44 0.42 0.39 0.37 0.36 0.38 0.40 0.42 0.43 0.45 0.46 0.45 0.44 0.48 0.56 0.66 0.80 0.96 0.92 0.78 0.79 0.80 0.77 0.84 0.85 0.75 0.66 0.73 1.17 1.50 1.83 1.77 1.56 1.56 1.37 1.17 0.91 0.75
0.53 0.50 0.46 0.44 0.40 0.39 0.36 0.33 0.31 0.31 0.33 0.36 0.40 0.43 0.45 0.51 0.51 0.51 0.56 0.61 0.66 0.75 0.91 0.96 0.89 0.90 0.95 0.97 1.09 1.01 0.87 0.82 0.67 0.92 1.35 1.67 1.85 1.91 2.01 1.85 1.53 1.15 0.85
0.47 0.51 0.50 0.40 0.33 0.30 0.31 0.29 0.26 0.27 0.30 0.33 0.37 0.42 0.46 0.55 0.59 0.62 0.62 0.65 0.70 0.79 0.86 0.96 0.96 1.00 1.06 1.12 1.17 1.14 0.98 0.85 0.75 0.76 1.18 1.65 1.98 2.03 2.23 2.35 2.04 1.53 1.09
0.44 0.44 0.45 0.42 0.36 0.30 0.27 0.25 0.22 0.24 0.30 0.36 0.39 0.40 0.44 0.53 0.61 0.58 0.54 0.55 0.67 0.83 0.89 0.98 1.01 0.99 0.98 1.08 1.10 0.96 0.86 0.77 0.69 0.70 0.88 1.30 1.98 2.31 2.37 2.42 2.32 1.81 1.33
0.47 0.42 0.42 0.40 0.37 0.29 0.28 0.25 0.22 0.25 0.32 0.39 0.43 0.42 0.39 0.42 0.41 0.41 0.46 0.50 0.60 0.80 1.06 1.20 1.11 1.03 0.91 0.91 0.94 0.89 0.87 0.83 0.78 0.59 0.62 0.92 1.51 2.24 2.50 2.50 2.39 1.82 1.31
0.44 0.40 0.37 0.36 0.34 0.30 0.27 0.24 0.23 0.26 0.36 0.44 0.46 0.44 0.36 0.30 0.34 0.38 0.40 0.43 0.54 0.69 0.93 1.24 1.30 1.06 0.97 0.91 0.93 0.94 0.95 0.98 0.91 0.65 0.66 0.91 1.30 1.97 2.21 2.26 2.15 1.58 1.16
0.41 0.42 0.39 0.37 0.35 0.27 0.23 0.22 0.23 0.28 0.37 0.41 0.42 0.42 0.42 0.38 0.33 0.34 0.37 0.45 0.57 0.72 0.82 0.90 1.18 1.02 0.83 0.81 0.85 0.86 0.91 0.93 0.86 0.70 0.68 0.93 1.26 1.73 1.78 1.87 1.83 1.42 1.09
0.41 0.36 0.32 0.33 0.34 0.30 0.22 0.19 0.20 0.28 0.34 0.35 0.33 0.32 0.29 0.31 0.31 0.40 0.53 0.71 0.84 0.97 0.93 1.04 1.19 1.15 1.03 0.94 0.81 0.80 0.92 0.94 0.90 0.80 0.72 0.88 1.13 1.29 1.42 1.55 1.46 1.31 1.09
0.37 0.30 0.26 0.28 0.30 0.27 0.16 0.13 0.15 0.22 0.28 0.31 0.32 0.34 0.27 0.25 0.34 0.49 0.70 0.93 1.04 1.14 1.04 1.11 1.32 1.37 1.22 1.18 1.14 1.01 1.02 0.97 0.92 0.90 0.74 0.78 0.96 0.99 1.24 1.32 1.24 1.15 1.10

GEFSMA_prec_meanprecacc_150.txt.gz
Total_Precipitation_Accumulation
1.01 1.00 1.03 1.18 1.19 1.25 1.25 1.03 0.85 0.84 0.85 0.87 0.78 0.75 0.77 0.76 0.78 0.85 0.91 0.89 0.87 1.02 1.18 1.22 1.21 1.14 1.07 1.03 0.99 0.98 0.92 0.87 0.82 0.75 0.63 0.55 0.53 0.52 0.54 0.56 0.55 0.55 0.55
1.20 1.22 1.27 1.36 1.36 1.50 1.54 1.29 1.13 1.20 1.15 1.15 1.03 0.97 0.94 0.98 0.96 0.96 1.00 1.01 0.92 0.91 1.02 1.18 1.25 1.24 1.23 1.17 1.09 1.03 0.99 0.96 0.91 0.81 0.71 0.63 0.59 0.57 0.56 0.58 0.58 0.58 0.54
1.58 1.65 1.72 1.66 1.58 1.56 1.59 1.52 1.40 1.39 1.39 1.24 1.15 1.15 1.18 1.07 1.00 1.10 1.20 1.21 1.12 1.06 1.07 1.07 1.14 1.25 1.38 1.40 1.36 1.27 1.17 1.08 0.98 0.91 0.84 0.76 0.69 0.65 0.61 0.59 0.60 0.60 0.56
1.84 2.02 2.08 1.87 1.73 1.69 1.77 1.81 1.69 1.65 1.65 1.61 1.39 1.21 1.28 1.27 1.16 1.16 1.20 1.25 1.30 1.23 1.16 1.06 1.07 1.12 1.19 1.31 1.40 1.41 1.32 1.18 1.09 1.03 0.98 0.91 0.83 0.74 0.67 0.63 0.61 0.60 0.60
2.00 2.18 2.24 2.18 1.99 1.96 2.03 1.98 2.09 1.98 1.95 1.78 1.49 1.33 1.22 1.13 1.15 1.14 1.16 1.20 1.20 1.18 1.19 1.18 1.17 1.16 1.19 1.28 1.34 1.37 1.36 1.31 1.22 1.14 1.09 1.04 0.95 0.84 0.74 0.69 0.66 0.65 0.66
2.17 2.37 2.41 2.44 2.31 2.31 2.39 2.34 2.34 2.19 1.98 1.81 1.59 1.43 1.22 1.03 1.01 1.07 1.08 1.05 0.99 0.96 0.97 1.00 1.10 1.09 1.14 1.20 1.28 1.44 1.61 1.59 1.43 1.29 1.23 1.18 1.08 0.95 0.82 0.77 0.73 0.71 0.70
2.82 2.96 2.89 2.79 2.62 2.54 2.51 2.42 2.31 2.21 2.06 1.97 1.86 1.63 1.32 1.04 0.93 0.90 0.93 0.91 0.85 0.83 0.81 0.85 0.92 0.94 0.99 1.06 1.14 1.28 1.52 1.63 1.56 1.45 1.34 1.25 1.17 1.08 0.99 0.90 0.84 0.81 0.79
3.45 3.40 3.29 3.03 2.78 2.58 2.43 2.30 2.16 2.03 1.91 1.87 1.86 1.81 1.57 1.29 1.00 0.81 0.85 0.86 0.84 0.85 0.84 0.81 0.82 0.83 0.83 0.88 0.98 1.09 1.20 1.26 1.31 1.36 1.28 1.17 1.13 1.11 1.10 1.07 1.03 0.99 0.95
3.29 3.18 3.07 2.93 2.71 2.52 2.35 2.29 2.21 2.10 1.96 1.92 1.90 1.94 1.76 1.41 1.09 0.89 0.81 0.82 0.84 0.85 0.84 0.82 0.80 0.81 0.82 0.81 0.86 1.00 1.08 1.07 1.07 1.10 1.17 1.15 1.11 1.10 1.11 1.12 1.10 1.09 1.07
2.96 2.81 2.81 2.77 2.64 2.46 2.28 2.14 2.07 2.05 2.06 1.95 1.83 1.66 1.51 1.29 1.23 1.09 0.95 0.87 0.83 0.82 0.80 0.77 0.76 0.77 0.80 0.82 0.90 0.98 1.02 0.97 0.96 0.96 0.98 1.04 1.07 1.07 1.07 1.07 1.11 1.16 1.19
2.70 2.56 2.54 2.46 2.29 2.16 2.03 1.88 1.78 1.77 1.81 1.78 1.69 1.61 1.54 1.40 1.25 1.17 1.09 0.97 0.91 0.85 0.77 0.75 0.75 0.76 0.77 0.78 0.81 0.90 0.96 0.91 0.93 0.95 0.96 0.97 1.01 1.07 1.12 1.17 1.23 1.32 1.40
2.51 2.27 2.06 1.94 1.92 1.79 1.59 1.46 1.40 1.36 1.37 1.42 1.47 1.43 1.36 1.35 1.30 1.26 1.18 1.08 1.03 0.98 0.88 0.84 0.80 0.77 0.78 0.74 0.73 0.87 0.86 0.85 0.86 0.85 0.86 0.89 0.88 0.92 0.98 1.05 1.17 1.32 1.47
2.02 1.83 1.65 1.53 1.48 1.45 1.36 1.24 1.17 1.09 1.07 1.11 1.14 1.21 1.22 1.21 1.16 1.20 1.27 1.25 1.15 1.03 0.89 0.79 0.69 0.62 0.64 0.69 0.78 0.82 0.78 0.77 0.73 0.71 0.74 0.82 0.86 0.85 0.81 0.86 0.94 1.07 1.18
1.54 1.34 1.22 1.14 1.06 0.98 0.96 0.96 1.00 0.97 0.93 0.97 1.00 1.08 1.14 1.12 1.10 1.11 1.15 1.23 1.23 1.09 0.94 0.79 0.66 0.61 0.62 0.66 0.75 0.68 0.68 0.67 0.64 0.64 0.65 0.70 0.78 0.88 0.85 0.78 0.76 0.80 0.84
1.16 1.04 0.93 0.86 0.82 0.78 0.75 0.75 0.78 0.82 0.82 0.84 0.87 0.91 0.96 0.94 0.95 0.98 1.01 1.09 1.15 1.11 1.00 0.80 0.73 0.72 0.73 0.71 0.78 0.71 0.72 0.67 0.64 0.69 0.69 0.73 0.82 0.97 1.01 0.87 0.74 0.66 0.63
0.90 0.83 0.78 0.74 0.70 0.66 0.66 0.68 0.69 0.70 0.73 0.72 0.69 0.65 0.64 0.64 0.66 0.68 0.75 0.84 0.93 1.01 0.99 0.81 0.71 0.75 0.77 0.72 0.81 0.75 0.73 0.73 0.72 0.92 1.04 0.95 0.90 1.07 1.22 1.14 0.96 0.80 0.73
0.70 0.68 0.64 0.61 0.59 0.59 0.58 0.58 0.55 0.53 0.51 0.51 0.50 0.51 0.53 0.52 0.54 0.55 0.58 0.68 0.81 0.93 1.03 0.86 0.73 0.76 0.82 0.79 0.82 0.79 0.76 0.76 0.87 1.26 1.49 1.67 1.39 1.27 1.35 1.28 1.13 0.94 0.80
0.62 0.61 0.55 0.50 0.47 0.45 0.42 0.39 0.38 0.36 0.39 0.41 0.43 0.46 0.48 0.49 0.48 0.49 0.53 0.61 0.73 0.87 1.03 0.99 0.83 0.84 0.86 0.84 0.91 0.92 0.82 0.72 0.79 1.23 1.56 1.89 1.85 1.63 1.62 1.44 1.25 1.01 0.83
0.55 0.52 0.48 0.44 0.40 0.39 0.37 0.33 0.32 0.32 0.35 0.37 0.40 0.45 0.48 0.54 0.54 0.53 0.59 0.65 0.71 0.79 0.95 1.02 0.94 0.95 0.99 1.02 1.14 1.08 0.95 0.89 0.73 0.98 1.41 1.74 1.92 1.98 2.07 1.91 1.59 1.21 0.91
0.51 0.53 0.52 0.42 0.34 0.30 0.31 0.29 0.26 0.28 0.31 0.33 0.38 0.44 0.49 0.57 0.62 0.65 0.66 0.69 0.74 0.83 0.91 1.01 1.02 1.05 1.10 1.16 1.21 1.19 1.04 0.91 0.81 0.82 1.25 1.73 2.05 2.10 2.29 2.41 2.10 1.59 1.15
0.47 0.46 0.46 0.43 0.37 0.30 0.27 0.25 0.23 0.25 0.31 0.36 0.40 0.42 0.46 0.56 0.65 0.62 0.58 0.61 0.72 0.88 0.94 1.03 1.06 1.04 1.01 1.12 1.14 1.00 0.90 0.82 0.75 0.76 0.94 1.36 2.04 2.37 2.43 2.49 2.38 1.87 1.37
0.48 0.44 0.43 0.41 0.38 0.29 0.28 0.26 0.23 0.26 0.33 0.40 0.44 0.45 0.44 0.47 0.46 0.47 0.53 0.58 0.67 0.85 1.11 1.24 1.16 1.06 0.93 0.93 0.97 0.92 0.90 0.86 0.82 0.65 0.67 0.98 1.56 2.28 2.54 2.54 2.43 1.86 1.34
0.45 0.42 0.39 0.37 0.36 0.32 0.28 0.25 0.24 0.28 0.37 0.45 0.48 0.48 0.41 0.37 0.43 0.47 0.50 0.54 0.64 0.77 0.99 1.30 1.35 1.09 0.99 0.93 0.95 0.98 1.00 1.02 0.94 0.69 0.69 0.95 1.34 2.00 2.24 2.29 2.17 1.59 1.18
0.42 0.43 0.41 0.39 0.37 0.31 0.27 0.25 0.25 0.30 0.39 0.44 0.46 0.47 0.48 0.48 0.45 0.45 0.47 0.56 0.69 0.80 0.89 0.96 1.22 1.04 0.85 0.83 0.87 0.89 0.95 0.96 0.89 0.73 0.71 0.96 1.29 1.75 1.80 1.89 1.84 1.43 1.11
0.41 0.37 0.34 0.35 0.37 0.35 0.28 0.26 0.26 0.32 0.38 0.40 0.40 0.39 0.37 0.41 0.43 0.52 0.63 0.81 0.93 1.05 1.01 1.11 1.23 1.18 1.05 0.96 0.83 0.82 0.95 0.96 0.93 0.81 0.74 0.89 1.14 1.31 1.44 1.56 1.47 1.32 1.10
0.38 0.31 0.28 0.30 0.32 0.30 0.21 0.19 0.21 0.29 0.35 0.38 0.40 0.42 0.36 0.33 0.42 0.57 0.80 1.03 1.12 1.19 1.08 1.15 1.35 1.39 1.23 1.19 1.15 1.02 1.03 0.98 0.94 0.92 0.76 0.79 0.98 1.00 1.25 1.33 1.25 1.16 1.11

GEFSMA_prec_meanprecacc_156.txt.gz
Total_Precipitation_Accumulation
1.08 1.05 1.09 1.25 1.28 1.35 1.35 1.12 0.92 0.91 0.91 0.92 0.82 0.78 0.80 0.80 0.81 0.90 0.98 0.95 0.94 1.09 1.28 1.35 1.35 1.27 1.21 1.19 1.16 1.16 1.11 1.05 0.96 0.88 0.72 0.62 0.59 0.59 0.60 0.62 0.61 0.59 0.59
1.26 1.29 1.34 1.43 1.44 1.58 1.61 1.36 1.19 1.26 1.21 1.20 1.07 1.00 0.97 1.02 1.02 1.03 1.07 1.09 0.99 0.98 1.11 1.31 1.39 1.38 1.39 1.35 1.26 1.21 1.18 1.14 1.08 0.95 0.81 0.71 0.66 0.64 0.63 0.65 0.64 0.62 0.58
1.64 1.73 1.80 1.74 1.67 1.63 1.67 1.59 1.47 1.44 1.43 1.29 1.20 1.19 1.20 1.10 1.05 1.16 1.26 1.27 1.21 1.14 1.16 1.17 1.25 1.37 1.53 1.59 1.54 1.45 1.36 1.28 1.17 1.08 0.97 0.87 0.78 0.74 0.70 0.67 0.66 0.65 0.62
1.88 2.09 2.15 1.96 1.82 1.77 1.85 1.89 1.75 1.72 1.71 1.66 1.43 1.26 1.31 1.30 1.20 1.21 1.25 1.30 1.37 1.30 1.24 1.14 1.15 1.21 1.30 1.43 1.56 1.59 1.52 1.39 1.30 1.21 1.14 1.05 0.95 0.83 0.74 0.70 0.68 0.65 0.64
2.02 2.21 2.31 2.27 2.06 2.03 2.10 2.04 2.15 2.04 2.01 1.84 1.54 1.37 1.25 1.16 1.18 1.18 1.21 1.26 1.26 1.25 1.27 1.26 1.23 1.21 1.26 1.36 1.46 1.52 1.52 1.50 1.42 1.34 1.29 1.23 1.11 0.96 0.84 0.78 0.73 0.72 0.72
2.19 2.39 2.44 2.48 2.36 2.37 2.45 2.40 2.39 2.24 2.03 1.87 1.63 1.46 1.24 1.05 1.04 1.11 1.13 1.11 1.05 1.01 1.03 1.08 1.17 1.14 1.18 1.26 1.38 1.56 1.76 1.76 1.64 1.51 1.44 1.37 1.26 1.09 0.92 0.85 0.80 0.78 0.76
2.85 2.99 2.92 2.81 2.64 2.57 2.56 2.47 2.35 2.25 2.10 2.01 1.90 1.66 1.34 1.07 0.96 0.94 0.99 0.98 0.91 0.88 0.86 0.92 0.98 1.00 1.03 1.10 1.21 1.37 1.63 1.80 1.77 1.66 1.57 1.49 1.37 1.24 1.12 1.00 0.93 0.89 0.86
3.47 3.42 3.31 3.06 2.80 2.61 2.45 2.33 2.19 2.07 1.96 1.92 1.91 1.86 1.61 1.33 1.04 0.85 0.92 0.93 0.89 0.90 0.89 0.86 0.88 0.89 0.88 0.96 1.07 1.18 1.31 1.43 1.56 1.65 1.58 1.46 1.37 1.31 1.28 1.22 1.16 1.09 1.02
3.30 3.20 3.09 2.96 2.74 2.54 2.37 2.32 2.23 2.13 2.00 1.96 1.96 2.01 1.85 1.49 1.14 0.94 0.86 0.88 0.90 0.92 0.91 0.90 0.86 0.86 0.89 0.91 0.96 1.11 1.22 1.24 1.26 1.32 1.42 1.39 1.33 1.33 1.31 1.31 1.28 1.23 1.17
2.97 2.82 2.83 2.81 2.67 2.49 2.31 2.16 2.09 2.07 2.09 1.98 1.87 1.71 1.57 1.37 1.29 1.16 1.00 0.93 0.89 0.88 0.87 0.85 0.83 0.85 0.89 0.92 1.03 1.12 1.18 1.14 1.11 1.11 1.14 1.19 1.23 1.25 1.26 1.24 1.25 1.28 1.29
2.71 2.56 2.55 2.47 2.31 2.18 2.05 1.90 1.80 1.79 1.83 1.81 1.74 1.66 1.59 1.46 1.31 1.25 1.18 1.07 1.00 0.93 0.85 0.83 0.82 0.84 0.86 0.88 0.93 1.04 1.12 1.05 1.04 1.05 1.08 1.12 1.15 1.23 1.29 1.33 1.39 1.44 1.51
2.52 2.28 2.06 1.95 1.93 1.80 1.60 1.48 1.42 1.38 1.39 1.45 1.50 1.47 1.41 1.41 1.37 1.33 1.27 1.17 1.12 1.07 0.97 0.93 0.88 0.84 0.87 0.85 0.85 1.01 1.00 0.97 0.96 0.94 0.96 1.02 1.03 1.05 1.12 1.21 1.36 1.49 1.61
2.03 1.83 1.66 1.54 1.49 1.45 1.36 1.25 1.19 1.11 1.09 1.13 1.17 1.25 1.28 1.27 1.22 1.28 1.36 1.34 1.25 1.13 0.99 0.88 0.78 0.70 0.72 0.80 0.90 0.94 0.88 0.87 0.83 0.80 0.83 0.92 0.98 0.97 0.92 0.96 1.07 1.22 1.33
1.55 1.34 1.23 1.15 1.06 0.99 0.97 0.98 1.01 0.99 0.95 0.99 1.02 1.10 1.17 1.18 1.18 1.20 1.24 1.33 1.34 1.19 1.01 0.86 0.74 0.68 0.70 0.76 0.85 0.76 0.75 0.73 0.70 0.71 0.72 0.77 0.84 0.96 0.94 0.88 0.85 0.88 0.94
1.17 1.04 0.94 0.87 0.83 0.79 0.76 0.76 0.80 0.84 0.84 0.86 0.89 0.94 0.99 0.98 1.00 1.04 1.08 1.16 1.24 1.21 1.07 0.86 0.81 0.79 0.79 0.78 0.85 0.76 0.76 0.71 0.67 0.73 0.73 0.77 0.85 1.01 1.06 0.94 0.83 0.74 0.70
0.91 0.83 0.78 0.74 0.70 0.67 0.67 0.70 0.70 0.71 0.74 0.74 0.72 0.69 0.69 0.69 0.71 0.72 0.79 0.87 0.97 1.06 1.06 0.86 0.78 0.82 0.83 0.77 0.86 0.79 0.77 0.76 0.74 0.96 1.07 0.98 0.93 1.11 1.27 1.21 1.03 0.88 0.80
0.70 0.69 0.64 0.61 0.60 0.59 0.59 0.60 0.57 0.54 0.52 0.52 0.51 0.53 0.56 0.56 0.57 0.58 0.61 0.71 0.85 0.97 1.08 0.92 0.81 0.84 0.89 0.85 0.87 0.84 0.80 0.80 0.90 1.30 1.53 1.71 1.44 1.32 1.39 1.34 1.22 1.02 0.89
0.63 0.61 0.56 0.51 0.48 0.46 0.43 0.41 0.39 0.37 0.40 0.42 0.44 0.48 0.50 0.51 0.51 0.52 0.56 0.64 0.76 0.91 1.08 1.05 0.90 0.91 0.93 0.91 0.97 0.98 0.87 0.76 0.82 1.27 1.60 1.93 1.90 1.68 1.68 1.50 1.31 1.09 0.94
0.56 0.53 0.49 0.47 0.42 0.41 0.38 0.34 0.33 0.34 0.36 0.38 0.41 0.46 0.50 0.57 0.58 0.57 0.63 0.68 0.73 0.82 0.98 1.06 1.00 1.00 1.05 1.08 1.20 1.13 0.99 0.95 0.79 1.03 1.45 1.78 1.97 2.04 2.12 1.96 1.64 1.27 1.00
0.52 0.54 0.53 0.44 0.35 0.32 0.31 0.30 0.28 0.30 0.32 0.34 0.39 0.45 0.51 0.60 0.66 0.68 0.68 0.71 0.77 0.85 0.93 1.05 1.07 1.10 1.15 1.22 1.27 1.25 1.09 0.97 0.86 0.87 1.31 1.78 2.11 2.16 2.35 2.46 2.15 1.64 1.21
0.49 0.48 0.48 0.46 0.39 0.31 0.28 0.26 0.25 0.27 0.32 0.38 0.41 0.43 0.47 0.58 0.66 0.63 0.60 0.62 0.74 0.91 0.96 1.07 1.11 1.10 1.07 1.18 1.20 1.05 0.95 0.87 0.79 0.79 0.98 1.40 2.08 2.43 2.50 2.56 2.45 1.93 1.44
0.52 0.46 0.44 0.43 0.40 0.30 0.30 0.28 0.25 0.28 0.34 0.41 0.45 0.46 0.44 0.48 0.47 0.48 0.54 0.59 0.69 0.88 1.14 1.28 1.20 1.12 1.00 0.99 1.02 0.97 0.95 0.91 0.87 0.69 0.70 1.02 1.60 2.32 2.58 2.59 2.50 1.93 1.40
0.49 0.44 0.41 0.40 0.38 0.33 0.30 0.27 0.27 0.29 0.38 0.46 0.50 0.50 0.41 0.37 0.44 0.49 0.52 0.57 0.68 0.81 1.04 1.34 1.40 1.15 1.05 0.99 1.01 1.02 1.04 1.06 0.98 0.72 0.72 0.99 1.38 2.04 2.28 2.33 2.22 1.65 1.22
0.45 0.45 0.44 0.42 0.40 0.33 0.29 0.26 0.27 0.31 0.41 0.45 0.47 0.48 0.50 0.49 0.46 0.48 0.52 0.62 0.76 0.87 0.96 1.03 1.29 1.11 0.90 0.88 0.92 0.93 0.98 1.00 0.92 0.76 0.73 1.00 1.33 1.79 1.83 1.93 1.88 1.46 1.13
0.44 0.39 0.36 0.38 0.40 0.37 0.30 0.28 0.27 0.34 0.40 0.42 0.42 0.41 0.39 0.42 0.46 0.55 0.68 0.87 1.00 1.13 1.09 1.18 1.31 1.26 1.11 1.01 0.88 0.86 0.99 1.00 0.96 0.85 0.77 0.92 1.18 1.34 1.48 1.59 1.49 1.34 1.11
0.39 0.33 0.30 0.32 0.33 0.32 0.23 0.21 0.24 0.31 0.38 0.40 0.43 0.45 0.39 0.36 0.45 0.61 0.84 1.09 1.20 1.28 1.16 1.24 1.45 1.49 1.31 1.25 1.19 1.05 1.06 1.02 0.98 0.97 0.79 0.82 1.01 1.03 1.29 1.36 1.27 1.18 1.12

GEFSMA_prec_meanprecacc_162.txt.gz
Total_Precipitation_Accumulation
1.21 1.18 1.22 1.41 1.42 1.49 1.47 1.22 1.01 1.01 1.01 1.02 0.90 0.87 0.89 0.84 0.87 0.98 1.07 1.01 0.97 1.12 1.32 1.40 1.41 1.35 1.31 1.30 1.27 1.28 1.23 1.17 1.06 0.97 0.83 0.72 0.68 0.66 0.68 0.68 0.66 0.64 0.65
1.39 1.40 1.45 1.54 1.55 1.70 1.73 1.48 1.31 1.38 1.32 1.29 1.13 1.05 1.04 1.09 1.08 1.09 1.14 1.15 1.03 1.00 1.15 1.36 1.46 1.48 1.49 1.45 1.36 1.31 1.27 1.25 1.19 1.05 0.91 0.81 0.75 0.72 0.70 0.72 0.70 0.68 0.63
1.74 1.83 1.91 1.85 1.78 1.75 1.78 1.69 1.56 1.55 1.53 1.39 1.30 1.29 1.29 1.18 1.11 1.22 1.31 1.33 1.25 1.17 1.19 1.23 1.31 1.46 1.63 1.68 1.63 1.54 1.44 1.38 1.28 1.19 1.08 0.97 0.88 0.84 0.78 0.75 0.74 0.71 0.67
1.97 2.20 2.26 2.07 1.93 1.85 1.94 1.98 1.85 1.82 1.81 1.77 1.53 1.35 1.39 1.37 1.27 1.28 1.31 1.36 1.45 1.37 1.31 1.22 1.23 1.30 1.40 1.52 1.64 1.67 1.62 1.50 1.41 1.34 1.27 1.18 1.09 0.97 0.86 0.79 0.75 0.71 0.71
2.06 2.27 2.38 2.35 2.13 2.10 2.18 2.11 2.24 2.13 2.10 1.94 1.63 1.45 1.31 1.22 1.24 1.23 1.25 1.31 1.32 1.32 1.34 1.32 1.30 1.29 1.34 1.44 1.53 1.60 1.63 1.61 1.54 1.46 1.42 1.37 1.26 1.10 0.97 0.89 0.83 0.81 0.81
2.22 2.44 2.50 2.54 2.42 2.44 2.52 2.47 2.45 2.31 2.11 1.95 1.71 1.54 1.31 1.10 1.09 1.16 1.17 1.16 1.11 1.09 1.12 1.17 1.27 1.25 1.27 1.32 1.44 1.65 1.87 1.89 1.77 1.62 1.55 1.48 1.38 1.21 1.06 0.98 0.93 0.90 0.86
2.88 3.02 2.95 2.86 2.69 2.64 2.63 2.53 2.41 2.31 2.17 2.11 2.00 1.76 1.43 1.13 1.01 0.98 1.03 1.04 0.98 0.96 0.98 1.06 1.11 1.11 1.14 1.18 1.27 1.44 1.73 1.93 1.91 1.79 1.68 1.60 1.50 1.40 1.30 1.19 1.10 1.02 0.95
3.49 3.44 3.34 3.09 2.84 2.66 2.52 2.39 2.25 2.14 2.03 1.99 2.00 1.95 1.69 1.41 1.10 0.89 0.97 0.99 0.96 0.97 0.97 0.95 0.97 0.97 0.95 1.04 1.16 1.26 1.41 1.53 1.67 1.78 1.73 1.61 1.53 1.47 1.43 1.39 1.34 1.24 1.14
3.33 3.22 3.12 2.99 2.78 2.59 2.43 2.37 2.28 2.20 2.06 2.02 2.03 2.10 1.95 1.59 1.22 1.00 0.91 0.92 0.95 0.97 0.99 0.98 0.93 0.93 0.95 0.98 1.04 1.20 1.31 1.32 1.36 1.47 1.61 1.60 1.52 1.50 1.48 1.47 1.44 1.40 1.34
3.03 2.87 2.87 2.84 2.71 2.53 2.35 2.20 2.14 2.13 2.15 2.04 1.94 1.78 1.66 1.46 1.37 1.22 1.06 0.98 0.93 0.93 0.94 0.92 0.89 0.91 0.95 0.99 1.11 1.20 1.24 1.21 1.22 1.25 1.30 1.35 1.38 1.41 1.42 1.40 1.41 1.44 1.46
2.77 2.61 2.57 2.49 2.34 2.22 2.09 1.94 1.85 1.84 1.88 1.86 1.79 1.71 1.64 1.52 1.38 1.31 1.24 1.13 1.07 0.98 0.91 0.89 0.88 0.89 0.93 0.95 1.02 1.10 1.18 1.12 1.14 1.16 1.20 1.24 1.28 1.33 1.39 1.45 1.52 1.59 1.65
2.58 2.34 2.09 1.97 1.95 1.82 1.63 1.51 1.45 1.43 1.44 1.49 1.55 1.52 1.46 1.46 1.42 1.39 1.31 1.22 1.18 1.14 1.04 1.00 0.94 0.89 0.94 0.91 0.91 1.07 1.07 1.05 1.03 1.02 1.06 1.12 1.13 1.15 1.22 1.32 1.48 1.64 1.76
2.09 1.88 1.68 1.56 1.51 1.48 1.39 1.28 1.22 1.14 1.12 1.18 1.22 1.31 1.34 1.32 1.28 1.33 1.40 1.39 1.29 1.19 1.05 0.97 0.84 0.76 0.79 0.87 0.97 1.00 0.94 0.92 0.88 0.86 0.89 0.99 1.04 1.04 1.00 1.04 1.15 1.33 1.45
1.61 1.39 1.26 1.18 1.09 1.02 0.99 1.00 1.04 1.02 1.00 1.04 1.06 1.15 1.22 1.22 1.22 1.24 1.28 1.39 1.41 1.26 1.09 0.94 0.82 0.74 0.75 0.80 0.90 0.80 0.79 0.77 0.73 0.75 0.78 0.83 0.90 1.01 0.98 0.92 0.89 0.94 1.01
1.20 1.07 0.96 0.90 0.86 0.81 0.79 0.79 0.83 0.87 0.89 0.90 0.93 0.98 1.03 1.01 1.03 1.07 1.12 1.20 1.30 1.27 1.14 0.94 0.90 0.86 0.84 0.82 0.88 0.78 0.79 0.74 0.71 0.77 0.78 0.82 0.89 1.04 1.09 0.98 0.87 0.78 0.74
0.95 0.86 0.80 0.76 0.72 0.69 0.69 0.73 0.74 0.75 0.77 0.77 0.75 0.72 0.72 0.72 0.74 0.75 0.82 0.92 1.02 1.11 1.11 0.93 0.85 0.90 0.88 0.80 0.90 0.82 0.80 0.80 0.78 0.99 1.10 1.02 0.97 1.14 1.29 1.24 1.06 0.92 0.86
0.73 0.72 0.66 0.62 0.61 0.61 0.61 0.63 0.60 0.57 0.55 0.55 0.54 0.55 0.59 0.58 0.61 0.61 0.65 0.75 0.90 1.02 1.13 0.97 0.85 0.89 0.94 0.90 0.91 0.88 0.84 0.83 0.95 1.34 1.56 1.74 1.46 1.34 1.42 1.36 1.24 1.05 0.93
0.65 0.63 0.57 0.52 0.50 0.47 0.46 0.43 0.41 0.40 0.43 0.44 0.46 0.50 0.52 0.53 0.54 0.56 0.60 0.69 0.81 0.97 1.13 1.11 0.96 0.96 0.97 0.96 1.02 1.02 0.89 0.80 0.86 1.30 1.63 1.95 1.92 1.70 1.69 1.52 1.33 1.11 0.97
0.56 0.54 0.50 0.47 0.43 0.42 0.39 0.35 0.35 0.36 0.38 0.40 0.43 0.48 0.52 0.59 0.61 0.62 0.67 0.71 0.78 0.86 1.04 1.12 1.05 1.06 1.11 1.14 1.25 1.17 1.02 0.98 0.82 1.06 1.47 1.80 1.99 2.06 2.14 1.98 1.66 1.29 1.03
0.53 0.55 0.54 0.45 0.36 0.32 0.32 0.30 0.29 0.31 0.34 0.36 0.41 0.47 0.53 0.62 0.69 0.72 0.72 0.75 0.80 0.88 0.97 1.09 1.11 1.15 1.21 1.28 1.32 1.30 1.13 1.00 0.88 0.88 1.33 1.80 2.14 2.19 2.38 2.48 2.16 1.66 1.23
0.50 0.49 0.49 0.47 0.40 0.32 0.29 0.27 0.26 0.29 0.35 0.41 0.43 0.45 0.49 0.59 0.67 0.65 0.62 0.65 0.77 0.95 1.00 1.11 1.15 1.14 1.12 1.23 1.25 1.10 1.01 0.92 0.82 0.81 1.02 1.42 2.11 2.45 2.52 2.59 2.47 1.95 1.46
0.54 0.48 0.45 0.45 0.42 0.31 0.31 0.29 0.26 0.31 0.39 0.45 0.48 0.48 0.46 0.49 0.48 0.49 0.55 0.61 0.70 0.90 1.18 1.33 1.24 1.17 1.06 1.04 1.07 1.03 1.02 0.98 0.93 0.74 0.75 1.06 1.63 2.35 2.60 2.61 2.54 1.96 1.42
0.52 0.47 0.42 0.43 0.41 0.34 0.31 0.29 0.29 0.33 0.43 0.49 0.52 0.52 0.43 0.38 0.46 0.51 0.55 0.59 0.70 0.83 1.07 1.37 1.44 1.20 1.11 1.05 1.08 1.10 1.13 1.14 1.05 0.77 0.77 1.04 1.43 2.09 2.31 2.35 2.25 1.68 1.25
0.49 0.48 0.46 0.45 0.43 0.34 0.30 0.29 0.30 0.35 0.44 0.48 0.49 0.50 0.52 0.51 0.48 0.50 0.54 0.65 0.80 0.91 1.00 1.07 1.34 1.17 0.95 0.93 0.98 0.99 1.05 1.07 1.00 0.81 0.78 1.05 1.38 1.83 1.86 1.95 1.90 1.48 1.15
0.47 0.43 0.39 0.41 0.43 0.39 0.32 0.30 0.29 0.36 0.43 0.45 0.44 0.43 0.41 0.44 0.47 0.57 0.71 0.92 1.05 1.17 1.12 1.23 1.37 1.31 1.15 1.05 0.92 0.91 1.06 1.08 1.04 0.92 0.81 0.97 1.23 1.39 1.52 1.63 1.51 1.35 1.12
0.42 0.36 0.32 0.34 0.36 0.34 0.24 0.22 0.25 0.33 0.40 0.43 0.46 0.47 0.41 0.38 0.48 0.63 0.87 1.13 1.25 1.32 1.19 1.28 1.50 1.54 1.36 1.31 1.24 1.10 1.13 1.09 1.04 1.03 0.83 0.84 1.05 1.07 1.32 1.40 1.30 1.19 1.13